<?xml version="1.0" encoding="UTF-8" standalone="no" ?>
<gpx xmlns="http://www.topografix.com/GPX/1/1" xmlns:xsi="http://www.w3.org/2001/XMLSchema-instance" xsi:schemaLocation="http://www.topografix.com/GPX/1/1 http://www.topografix.com/GPX/1/1/gpx.xsd" version="1.1" creator="VisuGPX - https://www.visugpx.com">
  <metadata>
    <name>Aller-Retour Mattstall - Wengelsbach</name>
    <desc><![CDATA[shtrhrsttrggt]]></desc>
  </metadata>
  <trk>
    <name><![CDATA[30-AOU-14 07:21:58]]></name>
    <trkseg>
      <trkpt lat="48.98598" lon="7.75894">
        <ele>246.72</ele>
        <time>2014-08-28T07:41:30Z</time>
      </trkpt>
      <trkpt lat="48.98594" lon="7.75895">
        <ele>250.08</ele>
        <time>2014-08-28T07:42:50Z</time>
      </trkpt>
      <trkpt lat="48.98597" lon="7.75908">
        <ele>249.6</ele>
        <time>2014-08-28T07:43:45Z</time>
      </trkpt>
      <trkpt lat="48.98603" lon="7.75918">
        <ele>249.12</ele>
        <time>2014-08-28T07:43:49Z</time>
      </trkpt>
      <trkpt lat="48.98612" lon="7.75918">
        <ele>248.64</ele>
        <time>2014-08-28T07:43:52Z</time>
      </trkpt>
      <trkpt lat="48.98621" lon="7.7591">
        <ele>249.6</ele>
        <time>2014-08-28T07:43:55Z</time>
      </trkpt>
      <trkpt lat="48.98619" lon="7.75917">
        <ele>250.56</ele>
        <time>2014-08-28T07:44:00Z</time>
      </trkpt>
      <trkpt lat="48.98609" lon="7.75921">
        <ele>251.04</ele>
        <time>2014-08-28T07:44:03Z</time>
      </trkpt>
      <trkpt lat="48.98599" lon="7.7592">
        <ele>251.52</ele>
        <time>2014-08-28T07:44:06Z</time>
      </trkpt>
      <trkpt lat="48.98594" lon="7.75908">
        <ele>252.48</ele>
        <time>2014-08-28T07:44:10Z</time>
      </trkpt>
      <trkpt lat="48.98593" lon="7.75891">
        <ele>252.48</ele>
        <time>2014-08-28T07:44:17Z</time>
      </trkpt>
      <trkpt lat="48.98599" lon="7.75897">
        <ele>252</ele>
        <time>2014-08-28T07:44:31Z</time>
      </trkpt>
      <trkpt lat="48.98607" lon="7.75912">
        <ele>250.56</ele>
        <time>2014-08-28T07:45:24Z</time>
      </trkpt>
      <trkpt lat="48.98599" lon="7.75898">
        <ele>248.16</ele>
        <time>2014-08-28T07:45:42Z</time>
      </trkpt>
      <trkpt lat="48.9859" lon="7.75885">
        <ele>264.02</ele>
        <time>2014-08-28T07:46:04Z</time>
      </trkpt>
      <trkpt lat="48.98588" lon="7.75899">
        <ele>260.65</ele>
        <time>2014-08-28T07:46:12Z</time>
      </trkpt>
      <trkpt lat="48.98594" lon="7.75915">
        <ele>257.77</ele>
        <time>2014-08-28T07:46:18Z</time>
      </trkpt>
      <trkpt lat="48.98604" lon="7.75917">
        <ele>254.89</ele>
        <time>2014-08-28T07:46:22Z</time>
      </trkpt>
      <trkpt lat="48.98615" lon="7.75912">
        <ele>253.93</ele>
        <time>2014-08-28T07:46:27Z</time>
      </trkpt>
      <trkpt lat="48.98625" lon="7.75906">
        <ele>254.41</ele>
        <time>2014-08-28T07:46:30Z</time>
      </trkpt>
      <trkpt lat="48.98635" lon="7.75896">
        <ele>255.37</ele>
        <time>2014-08-28T07:46:33Z</time>
      </trkpt>
      <trkpt lat="48.98644" lon="7.75891">
        <ele>252</ele>
        <time>2014-08-28T07:47:41Z</time>
      </trkpt>
      <trkpt lat="48.98648" lon="7.75902">
        <ele>252.96</ele>
        <time>2014-08-28T07:47:50Z</time>
      </trkpt>
      <trkpt lat="48.98655" lon="7.75915">
        <ele>253.44</ele>
        <time>2014-08-28T07:47:55Z</time>
      </trkpt>
      <trkpt lat="48.98661" lon="7.75927">
        <ele>253.44</ele>
        <time>2014-08-28T07:47:58Z</time>
      </trkpt>
      <trkpt lat="48.98667" lon="7.75942">
        <ele>252.96</ele>
        <time>2014-08-28T07:48:01Z</time>
      </trkpt>
      <trkpt lat="48.98675" lon="7.75956">
        <ele>252.48</ele>
        <time>2014-08-28T07:48:04Z</time>
      </trkpt>
      <trkpt lat="48.98683" lon="7.7597">
        <ele>252</ele>
        <time>2014-08-28T07:48:07Z</time>
      </trkpt>
      <trkpt lat="48.98692" lon="7.75984">
        <ele>252</ele>
        <time>2014-08-28T07:48:10Z</time>
      </trkpt>
      <trkpt lat="48.98701" lon="7.75998">
        <ele>252</ele>
        <time>2014-08-28T07:48:13Z</time>
      </trkpt>
      <trkpt lat="48.98709" lon="7.76011">
        <ele>252.48</ele>
        <time>2014-08-28T07:48:16Z</time>
      </trkpt>
      <trkpt lat="48.98717" lon="7.76023">
        <ele>252.96</ele>
        <time>2014-08-28T07:48:19Z</time>
      </trkpt>
      <trkpt lat="48.98724" lon="7.76037">
        <ele>253.44</ele>
        <time>2014-08-28T07:48:22Z</time>
      </trkpt>
      <trkpt lat="48.98732" lon="7.7605">
        <ele>253.93</ele>
        <time>2014-08-28T07:48:25Z</time>
      </trkpt>
      <trkpt lat="48.98739" lon="7.76064">
        <ele>254.89</ele>
        <time>2014-08-28T07:48:28Z</time>
      </trkpt>
      <trkpt lat="48.98744" lon="7.76079">
        <ele>255.85</ele>
        <time>2014-08-28T07:48:32Z</time>
      </trkpt>
      <trkpt lat="48.9875" lon="7.76093">
        <ele>256.33</ele>
        <time>2014-08-28T07:48:37Z</time>
      </trkpt>
      <trkpt lat="48.98753" lon="7.76105">
        <ele>256.81</ele>
        <time>2014-08-28T07:48:42Z</time>
      </trkpt>
      <trkpt lat="48.98758" lon="7.76122">
        <ele>256.81</ele>
        <time>2014-08-28T07:48:46Z</time>
      </trkpt>
      <trkpt lat="48.98762" lon="7.7614">
        <ele>255.85</ele>
        <time>2014-08-28T07:48:49Z</time>
      </trkpt>
      <trkpt lat="48.98766" lon="7.76155">
        <ele>255.37</ele>
        <time>2014-08-28T07:48:51Z</time>
      </trkpt>
      <trkpt lat="48.9877" lon="7.76171">
        <ele>254.89</ele>
        <time>2014-08-28T07:48:53Z</time>
      </trkpt>
      <trkpt lat="48.98774" lon="7.7619">
        <ele>254.41</ele>
        <time>2014-08-28T07:48:55Z</time>
      </trkpt>
      <trkpt lat="48.98779" lon="7.7621">
        <ele>253.44</ele>
        <time>2014-08-28T07:48:57Z</time>
      </trkpt>
      <trkpt lat="48.98784" lon="7.76232">
        <ele>252.48</ele>
        <time>2014-08-28T07:48:59Z</time>
      </trkpt>
      <trkpt lat="48.98788" lon="7.76255">
        <ele>252</ele>
        <time>2014-08-28T07:49:01Z</time>
      </trkpt>
      <trkpt lat="48.98793" lon="7.7628">
        <ele>251.04</ele>
        <time>2014-08-28T07:49:03Z</time>
      </trkpt>
      <trkpt lat="48.98796" lon="7.76293">
        <ele>250.56</ele>
        <time>2014-08-28T07:49:04Z</time>
      </trkpt>
      <trkpt lat="48.98802" lon="7.76319">
        <ele>249.6</ele>
        <time>2014-08-28T07:49:06Z</time>
      </trkpt>
      <trkpt lat="48.98804" lon="7.76333">
        <ele>249.12</ele>
        <time>2014-08-28T07:49:07Z</time>
      </trkpt>
      <trkpt lat="48.98806" lon="7.76347">
        <ele>248.64</ele>
        <time>2014-08-28T07:49:08Z</time>
      </trkpt>
      <trkpt lat="48.98809" lon="7.76377">
        <ele>247.68</ele>
        <time>2014-08-28T07:49:10Z</time>
      </trkpt>
      <trkpt lat="48.98811" lon="7.76391">
        <ele>247.2</ele>
        <time>2014-08-28T07:49:11Z</time>
      </trkpt>
      <trkpt lat="48.98813" lon="7.76407">
        <ele>246.23</ele>
        <time>2014-08-28T07:49:12Z</time>
      </trkpt>
      <trkpt lat="48.98816" lon="7.76422">
        <ele>245.75</ele>
        <time>2014-08-28T07:49:13Z</time>
      </trkpt>
      <trkpt lat="48.98819" lon="7.76438">
        <ele>245.27</ele>
        <time>2014-08-28T07:49:14Z</time>
      </trkpt>
      <trkpt lat="48.98823" lon="7.76454">
        <ele>244.31</ele>
        <time>2014-08-28T07:49:15Z</time>
      </trkpt>
      <trkpt lat="48.98827" lon="7.7647">
        <ele>243.83</ele>
        <time>2014-08-28T07:49:16Z</time>
      </trkpt>
      <trkpt lat="48.98832" lon="7.76487">
        <ele>242.87</ele>
        <time>2014-08-28T07:49:17Z</time>
      </trkpt>
      <trkpt lat="48.98837" lon="7.76504">
        <ele>242.39</ele>
        <time>2014-08-28T07:49:18Z</time>
      </trkpt>
      <trkpt lat="48.98842" lon="7.76521">
        <ele>241.43</ele>
        <time>2014-08-28T07:49:19Z</time>
      </trkpt>
      <trkpt lat="48.98847" lon="7.76538">
        <ele>239.99</ele>
        <time>2014-08-28T07:49:20Z</time>
      </trkpt>
      <trkpt lat="48.98853" lon="7.76556">
        <ele>239.02</ele>
        <time>2014-08-28T07:49:21Z</time>
      </trkpt>
      <trkpt lat="48.98858" lon="7.76573">
        <ele>238.06</ele>
        <time>2014-08-28T07:49:22Z</time>
      </trkpt>
      <trkpt lat="48.98864" lon="7.76592">
        <ele>236.62</ele>
        <time>2014-08-28T07:49:23Z</time>
      </trkpt>
      <trkpt lat="48.98869" lon="7.7661">
        <ele>235.66</ele>
        <time>2014-08-28T07:49:24Z</time>
      </trkpt>
      <trkpt lat="48.98875" lon="7.76629">
        <ele>234.22</ele>
        <time>2014-08-28T07:49:25Z</time>
      </trkpt>
      <trkpt lat="48.9888" lon="7.76649">
        <ele>232.78</ele>
        <time>2014-08-28T07:49:26Z</time>
      </trkpt>
      <trkpt lat="48.98886" lon="7.76669">
        <ele>231.33</ele>
        <time>2014-08-28T07:49:27Z</time>
      </trkpt>
      <trkpt lat="48.98892" lon="7.76689">
        <ele>229.89</ele>
        <time>2014-08-28T07:49:28Z</time>
      </trkpt>
      <trkpt lat="48.98898" lon="7.76711">
        <ele>227.97</ele>
        <time>2014-08-28T07:49:29Z</time>
      </trkpt>
      <trkpt lat="48.98904" lon="7.76732">
        <ele>226.53</ele>
        <time>2014-08-28T07:49:30Z</time>
      </trkpt>
      <trkpt lat="48.98911" lon="7.76754">
        <ele>224.61</ele>
        <time>2014-08-28T07:49:31Z</time>
      </trkpt>
      <trkpt lat="48.98917" lon="7.76776">
        <ele>223.16</ele>
        <time>2014-08-28T07:49:32Z</time>
      </trkpt>
      <trkpt lat="48.98924" lon="7.76798">
        <ele>221.72</ele>
        <time>2014-08-28T07:49:33Z</time>
      </trkpt>
      <trkpt lat="48.9893" lon="7.7682">
        <ele>220.28</ele>
        <time>2014-08-28T07:49:34Z</time>
      </trkpt>
      <trkpt lat="48.98936" lon="7.76841">
        <ele>218.84</ele>
        <time>2014-08-28T07:49:35Z</time>
      </trkpt>
      <trkpt lat="48.98941" lon="7.76862">
        <ele>217.4</ele>
        <time>2014-08-28T07:49:36Z</time>
      </trkpt>
      <trkpt lat="48.98944" lon="7.76883">
        <ele>215.95</ele>
        <time>2014-08-28T07:49:37Z</time>
      </trkpt>
      <trkpt lat="48.98946" lon="7.76903">
        <ele>214.51</ele>
        <time>2014-08-28T07:49:38Z</time>
      </trkpt>
      <trkpt lat="48.98947" lon="7.76922">
        <ele>213.07</ele>
        <time>2014-08-28T07:49:39Z</time>
      </trkpt>
      <trkpt lat="48.98948" lon="7.76941">
        <ele>211.63</ele>
        <time>2014-08-28T07:49:40Z</time>
      </trkpt>
      <trkpt lat="48.98948" lon="7.76959">
        <ele>210.19</ele>
        <time>2014-08-28T07:49:41Z</time>
      </trkpt>
      <trkpt lat="48.98948" lon="7.76975">
        <ele>209.22</ele>
        <time>2014-08-28T07:49:42Z</time>
      </trkpt>
      <trkpt lat="48.98945" lon="7.77005">
        <ele>206.82</ele>
        <time>2014-08-28T07:49:44Z</time>
      </trkpt>
      <trkpt lat="48.98944" lon="7.77018">
        <ele>205.86</ele>
        <time>2014-08-28T07:49:45Z</time>
      </trkpt>
      <trkpt lat="48.98941" lon="7.77043">
        <ele>203.46</ele>
        <time>2014-08-28T07:49:47Z</time>
      </trkpt>
      <trkpt lat="48.98939" lon="7.77066">
        <ele>201.53</ele>
        <time>2014-08-28T07:49:49Z</time>
      </trkpt>
      <trkpt lat="48.98938" lon="7.77089">
        <ele>199.61</ele>
        <time>2014-08-28T07:49:51Z</time>
      </trkpt>
      <trkpt lat="48.98939" lon="7.77112">
        <ele>197.69</ele>
        <time>2014-08-28T07:49:53Z</time>
      </trkpt>
      <trkpt lat="48.98943" lon="7.77133">
        <ele>196.25</ele>
        <time>2014-08-28T07:49:55Z</time>
      </trkpt>
      <trkpt lat="48.98953" lon="7.77154">
        <ele>194.32</ele>
        <time>2014-08-28T07:49:57Z</time>
      </trkpt>
      <trkpt lat="48.98966" lon="7.77174">
        <ele>192.88</ele>
        <time>2014-08-28T07:49:59Z</time>
      </trkpt>
      <trkpt lat="48.98973" lon="7.77184">
        <ele>191.92</ele>
        <time>2014-08-28T07:50:00Z</time>
      </trkpt>
      <trkpt lat="48.98979" lon="7.77194">
        <ele>191.44</ele>
        <time>2014-08-28T07:50:01Z</time>
      </trkpt>
      <trkpt lat="48.98985" lon="7.77206">
        <ele>190.48</ele>
        <time>2014-08-28T07:50:02Z</time>
      </trkpt>
      <trkpt lat="48.9899" lon="7.77218">
        <ele>190</ele>
        <time>2014-08-28T07:50:03Z</time>
      </trkpt>
      <trkpt lat="48.98995" lon="7.7723">
        <ele>189.04</ele>
        <time>2014-08-28T07:50:04Z</time>
      </trkpt>
      <trkpt lat="48.99001" lon="7.77241">
        <ele>188.56</ele>
        <time>2014-08-28T07:50:05Z</time>
      </trkpt>
      <trkpt lat="48.99008" lon="7.77252">
        <ele>188.08</ele>
        <time>2014-08-28T07:50:06Z</time>
      </trkpt>
      <trkpt lat="48.99016" lon="7.77262">
        <ele>187.11</ele>
        <time>2014-08-28T07:50:07Z</time>
      </trkpt>
      <trkpt lat="48.99023" lon="7.77273">
        <ele>186.63</ele>
        <time>2014-08-28T07:50:08Z</time>
      </trkpt>
      <trkpt lat="48.99031" lon="7.77283">
        <ele>186.15</ele>
        <time>2014-08-28T07:50:09Z</time>
      </trkpt>
      <trkpt lat="48.99038" lon="7.77294">
        <ele>185.19</ele>
        <time>2014-08-28T07:50:10Z</time>
      </trkpt>
      <trkpt lat="48.99045" lon="7.77306">
        <ele>184.71</ele>
        <time>2014-08-28T07:50:11Z</time>
      </trkpt>
      <trkpt lat="48.99052" lon="7.77319">
        <ele>184.23</ele>
        <time>2014-08-28T07:50:12Z</time>
      </trkpt>
      <trkpt lat="48.99057" lon="7.77333">
        <ele>183.27</ele>
        <time>2014-08-28T07:50:13Z</time>
      </trkpt>
      <trkpt lat="48.99063" lon="7.77346">
        <ele>182.79</ele>
        <time>2014-08-28T07:50:14Z</time>
      </trkpt>
      <trkpt lat="48.99069" lon="7.7736">
        <ele>182.31</ele>
        <time>2014-08-28T07:50:15Z</time>
      </trkpt>
      <trkpt lat="48.99073" lon="7.77374">
        <ele>181.83</ele>
        <time>2014-08-28T07:50:16Z</time>
      </trkpt>
      <trkpt lat="48.99078" lon="7.77389">
        <ele>181.35</ele>
        <time>2014-08-28T07:50:17Z</time>
      </trkpt>
      <trkpt lat="48.99082" lon="7.77404">
        <ele>180.38</ele>
        <time>2014-08-28T07:50:18Z</time>
      </trkpt>
      <trkpt lat="48.99085" lon="7.7742">
        <ele>179.9</ele>
        <time>2014-08-28T07:50:19Z</time>
      </trkpt>
      <trkpt lat="48.99088" lon="7.77436">
        <ele>179.42</ele>
        <time>2014-08-28T07:50:20Z</time>
      </trkpt>
      <trkpt lat="48.9909" lon="7.77453">
        <ele>178.94</ele>
        <time>2014-08-28T07:50:21Z</time>
      </trkpt>
      <trkpt lat="48.99092" lon="7.7747">
        <ele>178.46</ele>
        <time>2014-08-28T07:50:22Z</time>
      </trkpt>
      <trkpt lat="48.99093" lon="7.77487">
        <ele>178.46</ele>
        <time>2014-08-28T07:50:23Z</time>
      </trkpt>
      <trkpt lat="48.99095" lon="7.77504">
        <ele>177.98</ele>
        <time>2014-08-28T07:50:24Z</time>
      </trkpt>
      <trkpt lat="48.99097" lon="7.77521">
        <ele>177.5</ele>
        <time>2014-08-28T07:50:25Z</time>
      </trkpt>
      <trkpt lat="48.99099" lon="7.77539">
        <ele>177.02</ele>
        <time>2014-08-28T07:50:26Z</time>
      </trkpt>
      <trkpt lat="48.99101" lon="7.77556">
        <ele>176.54</ele>
        <time>2014-08-28T07:50:27Z</time>
      </trkpt>
      <trkpt lat="48.99102" lon="7.77574">
        <ele>176.06</ele>
        <time>2014-08-28T07:50:28Z</time>
      </trkpt>
      <trkpt lat="48.99102" lon="7.77592">
        <ele>176.06</ele>
        <time>2014-08-28T07:50:29Z</time>
      </trkpt>
      <trkpt lat="48.99102" lon="7.7761">
        <ele>175.58</ele>
        <time>2014-08-28T07:50:30Z</time>
      </trkpt>
      <trkpt lat="48.991" lon="7.77628">
        <ele>175.1</ele>
        <time>2014-08-28T07:50:31Z</time>
      </trkpt>
      <trkpt lat="48.99099" lon="7.77645">
        <ele>175.1</ele>
        <time>2014-08-28T07:50:32Z</time>
      </trkpt>
      <trkpt lat="48.99097" lon="7.77663">
        <ele>174.62</ele>
        <time>2014-08-28T07:50:33Z</time>
      </trkpt>
      <trkpt lat="48.99095" lon="7.77681">
        <ele>174.14</ele>
        <time>2014-08-28T07:50:34Z</time>
      </trkpt>
      <trkpt lat="48.99094" lon="7.77698">
        <ele>173.66</ele>
        <time>2014-08-28T07:50:35Z</time>
      </trkpt>
      <trkpt lat="48.99094" lon="7.77716">
        <ele>173.17</ele>
        <time>2014-08-28T07:50:36Z</time>
      </trkpt>
      <trkpt lat="48.99095" lon="7.77733">
        <ele>173.17</ele>
        <time>2014-08-28T07:50:37Z</time>
      </trkpt>
      <trkpt lat="48.99099" lon="7.77749">
        <ele>172.69</ele>
        <time>2014-08-28T07:50:38Z</time>
      </trkpt>
      <trkpt lat="48.99103" lon="7.77764">
        <ele>172.69</ele>
        <time>2014-08-28T07:50:39Z</time>
      </trkpt>
      <trkpt lat="48.99108" lon="7.77779">
        <ele>172.21</ele>
        <time>2014-08-28T07:50:40Z</time>
      </trkpt>
      <trkpt lat="48.99113" lon="7.77793">
        <ele>172.21</ele>
        <time>2014-08-28T07:50:41Z</time>
      </trkpt>
      <trkpt lat="48.99118" lon="7.77807">
        <ele>172.69</ele>
        <time>2014-08-28T07:50:42Z</time>
      </trkpt>
      <trkpt lat="48.99123" lon="7.77821">
        <ele>173.17</ele>
        <time>2014-08-28T07:50:43Z</time>
      </trkpt>
      <trkpt lat="48.9913" lon="7.77833">
        <ele>173.17</ele>
        <time>2014-08-28T07:50:44Z</time>
      </trkpt>
      <trkpt lat="48.99138" lon="7.77844">
        <ele>173.17</ele>
        <time>2014-08-28T07:50:45Z</time>
      </trkpt>
      <trkpt lat="48.99147" lon="7.77853">
        <ele>172.69</ele>
        <time>2014-08-28T07:50:46Z</time>
      </trkpt>
      <trkpt lat="48.99156" lon="7.7786">
        <ele>172.69</ele>
        <time>2014-08-28T07:50:47Z</time>
      </trkpt>
      <trkpt lat="48.99166" lon="7.77865">
        <ele>173.17</ele>
        <time>2014-08-28T07:50:48Z</time>
      </trkpt>
      <trkpt lat="48.99176" lon="7.77869">
        <ele>174.14</ele>
        <time>2014-08-28T07:50:49Z</time>
      </trkpt>
      <trkpt lat="48.99185" lon="7.77874">
        <ele>175.58</ele>
        <time>2014-08-28T07:50:50Z</time>
      </trkpt>
      <trkpt lat="48.99195" lon="7.77878">
        <ele>176.54</ele>
        <time>2014-08-28T07:50:51Z</time>
      </trkpt>
      <trkpt lat="48.99205" lon="7.77882">
        <ele>177.98</ele>
        <time>2014-08-28T07:50:52Z</time>
      </trkpt>
      <trkpt lat="48.99215" lon="7.77885">
        <ele>177.98</ele>
        <time>2014-08-28T07:50:53Z</time>
      </trkpt>
      <trkpt lat="48.99225" lon="7.77886">
        <ele>178.46</ele>
        <time>2014-08-28T07:50:54Z</time>
      </trkpt>
      <trkpt lat="48.99235" lon="7.77887">
        <ele>178.46</ele>
        <time>2014-08-28T07:50:55Z</time>
      </trkpt>
      <trkpt lat="48.99245" lon="7.77886">
        <ele>179.42</ele>
        <time>2014-08-28T07:50:56Z</time>
      </trkpt>
      <trkpt lat="48.99254" lon="7.77884">
        <ele>179.42</ele>
        <time>2014-08-28T07:50:57Z</time>
      </trkpt>
      <trkpt lat="48.99264" lon="7.77882">
        <ele>179.9</ele>
        <time>2014-08-28T07:50:58Z</time>
      </trkpt>
      <trkpt lat="48.99273" lon="7.77879">
        <ele>180.38</ele>
        <time>2014-08-28T07:50:59Z</time>
      </trkpt>
      <trkpt lat="48.99283" lon="7.77876">
        <ele>180.87</ele>
        <time>2014-08-28T07:51:00Z</time>
      </trkpt>
      <trkpt lat="48.99292" lon="7.77874">
        <ele>181.35</ele>
        <time>2014-08-28T07:51:01Z</time>
      </trkpt>
      <trkpt lat="48.99301" lon="7.77872">
        <ele>181.35</ele>
        <time>2014-08-28T07:51:02Z</time>
      </trkpt>
      <trkpt lat="48.99311" lon="7.77871">
        <ele>181.83</ele>
        <time>2014-08-28T07:51:03Z</time>
      </trkpt>
      <trkpt lat="48.9932" lon="7.77872">
        <ele>182.31</ele>
        <time>2014-08-28T07:51:04Z</time>
      </trkpt>
      <trkpt lat="48.99339" lon="7.77878">
        <ele>182.79</ele>
        <time>2014-08-28T07:51:06Z</time>
      </trkpt>
      <trkpt lat="48.99348" lon="7.77882">
        <ele>182.79</ele>
        <time>2014-08-28T07:51:07Z</time>
      </trkpt>
      <trkpt lat="48.99356" lon="7.77887">
        <ele>183.27</ele>
        <time>2014-08-28T07:51:08Z</time>
      </trkpt>
      <trkpt lat="48.99365" lon="7.77892">
        <ele>183.27</ele>
        <time>2014-08-28T07:51:09Z</time>
      </trkpt>
      <trkpt lat="48.99374" lon="7.77897">
        <ele>183.75</ele>
        <time>2014-08-28T07:51:10Z</time>
      </trkpt>
      <trkpt lat="48.99383" lon="7.77902">
        <ele>183.75</ele>
        <time>2014-08-28T07:51:11Z</time>
      </trkpt>
      <trkpt lat="48.99392" lon="7.77907">
        <ele>183.75</ele>
        <time>2014-08-28T07:51:12Z</time>
      </trkpt>
      <trkpt lat="48.99409" lon="7.77918">
        <ele>184.23</ele>
        <time>2014-08-28T07:51:14Z</time>
      </trkpt>
      <trkpt lat="48.99426" lon="7.77927">
        <ele>185.19</ele>
        <time>2014-08-28T07:51:16Z</time>
      </trkpt>
      <trkpt lat="48.99442" lon="7.77935">
        <ele>185.67</ele>
        <time>2014-08-28T07:51:18Z</time>
      </trkpt>
      <trkpt lat="48.99457" lon="7.77943">
        <ele>186.15</ele>
        <time>2014-08-28T07:51:20Z</time>
      </trkpt>
      <trkpt lat="48.99472" lon="7.77952">
        <ele>187.11</ele>
        <time>2014-08-28T07:51:22Z</time>
      </trkpt>
      <trkpt lat="48.99486" lon="7.77964">
        <ele>187.59</ele>
        <time>2014-08-28T07:51:24Z</time>
      </trkpt>
      <trkpt lat="48.99499" lon="7.77978">
        <ele>188.08</ele>
        <time>2014-08-28T07:51:26Z</time>
      </trkpt>
      <trkpt lat="48.99512" lon="7.77993">
        <ele>188.56</ele>
        <time>2014-08-28T07:51:28Z</time>
      </trkpt>
      <trkpt lat="48.99524" lon="7.78009">
        <ele>188.56</ele>
        <time>2014-08-28T07:51:30Z</time>
      </trkpt>
      <trkpt lat="48.99535" lon="7.78024">
        <ele>188.56</ele>
        <time>2014-08-28T07:51:32Z</time>
      </trkpt>
      <trkpt lat="48.99546" lon="7.78038">
        <ele>189.04</ele>
        <time>2014-08-28T07:51:34Z</time>
      </trkpt>
      <trkpt lat="48.99558" lon="7.78053">
        <ele>189.04</ele>
        <time>2014-08-28T07:51:36Z</time>
      </trkpt>
      <trkpt lat="48.99569" lon="7.78069">
        <ele>189.52</ele>
        <time>2014-08-28T07:51:38Z</time>
      </trkpt>
      <trkpt lat="48.99581" lon="7.78087">
        <ele>189.52</ele>
        <time>2014-08-28T07:51:40Z</time>
      </trkpt>
      <trkpt lat="48.99591" lon="7.78108">
        <ele>189.52</ele>
        <time>2014-08-28T07:51:42Z</time>
      </trkpt>
      <trkpt lat="48.99602" lon="7.78129">
        <ele>189.52</ele>
        <time>2014-08-28T07:51:44Z</time>
      </trkpt>
      <trkpt lat="48.99612" lon="7.78151">
        <ele>190</ele>
        <time>2014-08-28T07:51:46Z</time>
      </trkpt>
      <trkpt lat="48.99621" lon="7.78173">
        <ele>190.48</ele>
        <time>2014-08-28T07:51:48Z</time>
      </trkpt>
      <trkpt lat="48.99631" lon="7.78194">
        <ele>190.96</ele>
        <time>2014-08-28T07:51:50Z</time>
      </trkpt>
      <trkpt lat="48.99642" lon="7.78214">
        <ele>191.44</ele>
        <time>2014-08-28T07:51:52Z</time>
      </trkpt>
      <trkpt lat="48.99653" lon="7.78233">
        <ele>191.44</ele>
        <time>2014-08-28T07:51:54Z</time>
      </trkpt>
      <trkpt lat="48.99665" lon="7.78251">
        <ele>191.44</ele>
        <time>2014-08-28T07:51:56Z</time>
      </trkpt>
      <trkpt lat="48.99677" lon="7.78268">
        <ele>191.44</ele>
        <time>2014-08-28T07:51:58Z</time>
      </trkpt>
      <trkpt lat="48.99689" lon="7.78283">
        <ele>191.92</ele>
        <time>2014-08-28T07:52:00Z</time>
      </trkpt>
      <trkpt lat="48.99701" lon="7.78296">
        <ele>191.92</ele>
        <time>2014-08-28T07:52:02Z</time>
      </trkpt>
      <trkpt lat="48.99713" lon="7.78309">
        <ele>192.4</ele>
        <time>2014-08-28T07:52:04Z</time>
      </trkpt>
      <trkpt lat="48.99725" lon="7.78319">
        <ele>192.88</ele>
        <time>2014-08-28T07:52:06Z</time>
      </trkpt>
      <trkpt lat="48.99737" lon="7.78329">
        <ele>192.88</ele>
        <time>2014-08-28T07:52:08Z</time>
      </trkpt>
      <trkpt lat="48.99749" lon="7.78336">
        <ele>193.36</ele>
        <time>2014-08-28T07:52:10Z</time>
      </trkpt>
      <trkpt lat="48.99762" lon="7.78341">
        <ele>193.36</ele>
        <time>2014-08-28T07:52:12Z</time>
      </trkpt>
      <trkpt lat="48.99774" lon="7.78345">
        <ele>193.84</ele>
        <time>2014-08-28T07:52:14Z</time>
      </trkpt>
      <trkpt lat="48.99786" lon="7.78348">
        <ele>193.84</ele>
        <time>2014-08-28T07:52:16Z</time>
      </trkpt>
      <trkpt lat="48.99798" lon="7.7835">
        <ele>194.32</ele>
        <time>2014-08-28T07:52:18Z</time>
      </trkpt>
      <trkpt lat="48.99809" lon="7.78353">
        <ele>194.8</ele>
        <time>2014-08-28T07:52:20Z</time>
      </trkpt>
      <trkpt lat="48.9982" lon="7.78355">
        <ele>195.77</ele>
        <time>2014-08-28T07:52:22Z</time>
      </trkpt>
      <trkpt lat="48.9983" lon="7.78357">
        <ele>196.25</ele>
        <time>2014-08-28T07:52:24Z</time>
      </trkpt>
      <trkpt lat="48.99841" lon="7.7836">
        <ele>197.21</ele>
        <time>2014-08-28T07:52:26Z</time>
      </trkpt>
      <trkpt lat="48.99851" lon="7.78363">
        <ele>197.69</ele>
        <time>2014-08-28T07:52:28Z</time>
      </trkpt>
      <trkpt lat="48.99861" lon="7.78366">
        <ele>198.65</ele>
        <time>2014-08-28T07:52:30Z</time>
      </trkpt>
      <trkpt lat="48.9987" lon="7.78368">
        <ele>199.13</ele>
        <time>2014-08-28T07:52:32Z</time>
      </trkpt>
      <trkpt lat="48.9988" lon="7.7837">
        <ele>200.09</ele>
        <time>2014-08-28T07:52:34Z</time>
      </trkpt>
      <trkpt lat="48.9989" lon="7.78371">
        <ele>200.57</ele>
        <time>2014-08-28T07:52:36Z</time>
      </trkpt>
      <trkpt lat="48.99901" lon="7.78372">
        <ele>201.05</ele>
        <time>2014-08-28T07:52:38Z</time>
      </trkpt>
      <trkpt lat="48.99911" lon="7.78372">
        <ele>201.53</ele>
        <time>2014-08-28T07:52:40Z</time>
      </trkpt>
      <trkpt lat="48.99921" lon="7.78372">
        <ele>202.49</ele>
        <time>2014-08-28T07:52:42Z</time>
      </trkpt>
      <trkpt lat="48.99931" lon="7.78372">
        <ele>202.98</ele>
        <time>2014-08-28T07:52:44Z</time>
      </trkpt>
      <trkpt lat="48.99942" lon="7.78374">
        <ele>203.94</ele>
        <time>2014-08-28T07:52:47Z</time>
      </trkpt>
      <trkpt lat="48.99952" lon="7.78374">
        <ele>204.9</ele>
        <time>2014-08-28T07:52:50Z</time>
      </trkpt>
      <trkpt lat="48.99963" lon="7.78375">
        <ele>205.86</ele>
        <time>2014-08-28T07:52:53Z</time>
      </trkpt>
      <trkpt lat="48.99974" lon="7.78376">
        <ele>207.3</ele>
        <time>2014-08-28T07:52:56Z</time>
      </trkpt>
      <trkpt lat="48.99983" lon="7.78378">
        <ele>208.26</ele>
        <time>2014-08-28T07:52:59Z</time>
      </trkpt>
      <trkpt lat="48.99995" lon="7.78382">
        <ele>209.22</ele>
        <time>2014-08-28T07:53:02Z</time>
      </trkpt>
      <trkpt lat="49.00003" lon="7.78387">
        <ele>209.7</ele>
        <time>2014-08-28T07:53:04Z</time>
      </trkpt>
      <trkpt lat="49.00014" lon="7.78394">
        <ele>210.19</ele>
        <time>2014-08-28T07:53:06Z</time>
      </trkpt>
      <trkpt lat="49.00027" lon="7.78403">
        <ele>210.67</ele>
        <time>2014-08-28T07:53:08Z</time>
      </trkpt>
      <trkpt lat="49.00042" lon="7.78413">
        <ele>211.15</ele>
        <time>2014-08-28T07:53:10Z</time>
      </trkpt>
      <trkpt lat="49.00051" lon="7.78418">
        <ele>211.15</ele>
        <time>2014-08-28T07:53:11Z</time>
      </trkpt>
      <trkpt lat="49.00068" lon="7.78429">
        <ele>211.63</ele>
        <time>2014-08-28T07:53:13Z</time>
      </trkpt>
      <trkpt lat="49.00076" lon="7.78434">
        <ele>211.63</ele>
        <time>2014-08-28T07:53:14Z</time>
      </trkpt>
      <trkpt lat="49.00085" lon="7.7844">
        <ele>211.63</ele>
        <time>2014-08-28T07:53:15Z</time>
      </trkpt>
      <trkpt lat="49.00095" lon="7.78445">
        <ele>211.63</ele>
        <time>2014-08-28T07:53:16Z</time>
      </trkpt>
      <trkpt lat="49.00104" lon="7.7845">
        <ele>211.63</ele>
        <time>2014-08-28T07:53:17Z</time>
      </trkpt>
      <trkpt lat="49.00114" lon="7.78454">
        <ele>211.63</ele>
        <time>2014-08-28T07:53:18Z</time>
      </trkpt>
      <trkpt lat="49.00124" lon="7.78457">
        <ele>211.63</ele>
        <time>2014-08-28T07:53:19Z</time>
      </trkpt>
      <trkpt lat="49.00133" lon="7.7846">
        <ele>211.15</ele>
        <time>2014-08-28T07:53:20Z</time>
      </trkpt>
      <trkpt lat="49.00152" lon="7.78463">
        <ele>211.15</ele>
        <time>2014-08-28T07:53:22Z</time>
      </trkpt>
      <trkpt lat="49.00161" lon="7.78465">
        <ele>211.15</ele>
        <time>2014-08-28T07:53:23Z</time>
      </trkpt>
      <trkpt lat="49.00177" lon="7.78472">
        <ele>211.15</ele>
        <time>2014-08-28T07:53:25Z</time>
      </trkpt>
      <trkpt lat="49.00193" lon="7.78479">
        <ele>210.67</ele>
        <time>2014-08-28T07:53:27Z</time>
      </trkpt>
      <trkpt lat="49.00209" lon="7.78487">
        <ele>210.67</ele>
        <time>2014-08-28T07:53:29Z</time>
      </trkpt>
      <trkpt lat="49.00224" lon="7.78494">
        <ele>210.19</ele>
        <time>2014-08-28T07:53:31Z</time>
      </trkpt>
      <trkpt lat="49.00238" lon="7.78501">
        <ele>210.19</ele>
        <time>2014-08-28T07:53:33Z</time>
      </trkpt>
      <trkpt lat="49.00252" lon="7.78509">
        <ele>209.7</ele>
        <time>2014-08-28T07:53:35Z</time>
      </trkpt>
      <trkpt lat="49.00266" lon="7.78518">
        <ele>209.22</ele>
        <time>2014-08-28T07:53:37Z</time>
      </trkpt>
      <trkpt lat="49.0028" lon="7.78528">
        <ele>209.22</ele>
        <time>2014-08-28T07:53:39Z</time>
      </trkpt>
      <trkpt lat="49.00293" lon="7.78539">
        <ele>208.26</ele>
        <time>2014-08-28T07:53:41Z</time>
      </trkpt>
      <trkpt lat="49.00307" lon="7.78551">
        <ele>208.26</ele>
        <time>2014-08-28T07:53:43Z</time>
      </trkpt>
      <trkpt lat="49.00321" lon="7.78562">
        <ele>207.78</ele>
        <time>2014-08-28T07:53:45Z</time>
      </trkpt>
      <trkpt lat="49.00334" lon="7.78574">
        <ele>207.3</ele>
        <time>2014-08-28T07:53:47Z</time>
      </trkpt>
      <trkpt lat="49.00347" lon="7.78585">
        <ele>206.82</ele>
        <time>2014-08-28T07:53:49Z</time>
      </trkpt>
      <trkpt lat="49.00358" lon="7.78596">
        <ele>206.34</ele>
        <time>2014-08-28T07:53:51Z</time>
      </trkpt>
      <trkpt lat="49.00368" lon="7.78609">
        <ele>205.86</ele>
        <time>2014-08-28T07:53:53Z</time>
      </trkpt>
      <trkpt lat="49.00376" lon="7.78625">
        <ele>205.38</ele>
        <time>2014-08-28T07:53:55Z</time>
      </trkpt>
      <trkpt lat="49.0038" lon="7.78644">
        <ele>204.42</ele>
        <time>2014-08-28T07:53:57Z</time>
      </trkpt>
      <trkpt lat="49.00378" lon="7.78666">
        <ele>202.49</ele>
        <time>2014-08-28T07:53:59Z</time>
      </trkpt>
      <trkpt lat="49.00376" lon="7.7869">
        <ele>201.53</ele>
        <time>2014-08-28T07:54:01Z</time>
      </trkpt>
      <trkpt lat="49.00375" lon="7.78716">
        <ele>199.61</ele>
        <time>2014-08-28T07:54:03Z</time>
      </trkpt>
      <trkpt lat="49.00374" lon="7.7873">
        <ele>198.65</ele>
        <time>2014-08-28T07:54:04Z</time>
      </trkpt>
      <trkpt lat="49.00376" lon="7.78755">
        <ele>197.69</ele>
        <time>2014-08-28T07:54:06Z</time>
      </trkpt>
      <trkpt lat="49.00378" lon="7.78767">
        <ele>197.69</ele>
        <time>2014-08-28T07:54:07Z</time>
      </trkpt>
      <trkpt lat="49.00386" lon="7.78789">
        <ele>197.21</ele>
        <time>2014-08-28T07:54:09Z</time>
      </trkpt>
      <trkpt lat="49.00388" lon="7.78812">
        <ele>196.73</ele>
        <time>2014-08-28T07:54:11Z</time>
      </trkpt>
      <trkpt lat="49.00388" lon="7.78834">
        <ele>196.73</ele>
        <time>2014-08-28T07:54:13Z</time>
      </trkpt>
      <trkpt lat="49.00389" lon="7.78854">
        <ele>196.73</ele>
        <time>2014-08-28T07:54:15Z</time>
      </trkpt>
      <trkpt lat="49.00389" lon="7.78874">
        <ele>196.73</ele>
        <time>2014-08-28T07:54:17Z</time>
      </trkpt>
      <trkpt lat="49.00387" lon="7.78893">
        <ele>196.73</ele>
        <time>2014-08-28T07:54:19Z</time>
      </trkpt>
      <trkpt lat="49.00384" lon="7.7891">
        <ele>196.73</ele>
        <time>2014-08-28T07:54:21Z</time>
      </trkpt>
      <trkpt lat="49.00381" lon="7.78927">
        <ele>196.73</ele>
        <time>2014-08-28T07:54:23Z</time>
      </trkpt>
      <trkpt lat="49.00377" lon="7.78944">
        <ele>196.73</ele>
        <time>2014-08-28T07:54:25Z</time>
      </trkpt>
      <trkpt lat="49.00373" lon="7.78959">
        <ele>197.21</ele>
        <time>2014-08-28T07:54:27Z</time>
      </trkpt>
      <trkpt lat="49.00369" lon="7.78973">
        <ele>197.69</ele>
        <time>2014-08-28T07:54:29Z</time>
      </trkpt>
      <trkpt lat="49.00364" lon="7.78985">
        <ele>197.69</ele>
        <time>2014-08-28T07:54:31Z</time>
      </trkpt>
      <trkpt lat="49.0036" lon="7.79002">
        <ele>197.69</ele>
        <time>2014-08-28T07:54:34Z</time>
      </trkpt>
      <trkpt lat="49.00368" lon="7.79008">
        <ele>198.17</ele>
        <time>2014-08-28T07:54:36Z</time>
      </trkpt>
      <trkpt lat="49.00377" lon="7.79004">
        <ele>197.69</ele>
        <time>2014-08-28T07:54:38Z</time>
      </trkpt>
      <trkpt lat="49.00387" lon="7.79005">
        <ele>197.69</ele>
        <time>2014-08-28T07:54:40Z</time>
      </trkpt>
      <trkpt lat="49.00397" lon="7.79008">
        <ele>197.69</ele>
        <time>2014-08-28T07:54:42Z</time>
      </trkpt>
      <trkpt lat="49.00408" lon="7.7901">
        <ele>198.17</ele>
        <time>2014-08-28T07:54:44Z</time>
      </trkpt>
      <trkpt lat="49.00418" lon="7.79012">
        <ele>198.17</ele>
        <time>2014-08-28T07:54:46Z</time>
      </trkpt>
      <trkpt lat="49.00429" lon="7.79015">
        <ele>198.17</ele>
        <time>2014-08-28T07:54:48Z</time>
      </trkpt>
      <trkpt lat="49.00439" lon="7.79017">
        <ele>198.65</ele>
        <time>2014-08-28T07:54:50Z</time>
      </trkpt>
      <trkpt lat="49.00449" lon="7.79018">
        <ele>199.13</ele>
        <time>2014-08-28T07:54:52Z</time>
      </trkpt>
      <trkpt lat="49.00459" lon="7.79019">
        <ele>199.61</ele>
        <time>2014-08-28T07:54:54Z</time>
      </trkpt>
      <trkpt lat="49.00468" lon="7.79018">
        <ele>200.09</ele>
        <time>2014-08-28T07:54:56Z</time>
      </trkpt>
      <trkpt lat="49.00477" lon="7.79015">
        <ele>201.05</ele>
        <time>2014-08-28T07:54:58Z</time>
      </trkpt>
      <trkpt lat="49.00487" lon="7.79012">
        <ele>202.01</ele>
        <time>2014-08-28T07:55:00Z</time>
      </trkpt>
      <trkpt lat="49.00496" lon="7.7901">
        <ele>202.98</ele>
        <time>2014-08-28T07:55:02Z</time>
      </trkpt>
      <trkpt lat="49.00506" lon="7.79008">
        <ele>203.94</ele>
        <time>2014-08-28T07:55:04Z</time>
      </trkpt>
      <trkpt lat="49.00516" lon="7.79006">
        <ele>204.42</ele>
        <time>2014-08-28T07:55:06Z</time>
      </trkpt>
      <trkpt lat="49.00525" lon="7.79003">
        <ele>205.38</ele>
        <time>2014-08-28T07:55:08Z</time>
      </trkpt>
      <trkpt lat="49.00534" lon="7.79">
        <ele>206.34</ele>
        <time>2014-08-28T07:55:10Z</time>
      </trkpt>
      <trkpt lat="49.00544" lon="7.78996">
        <ele>206.82</ele>
        <time>2014-08-28T07:55:12Z</time>
      </trkpt>
      <trkpt lat="49.00557" lon="7.78993">
        <ele>207.3</ele>
        <time>2014-08-28T07:55:15Z</time>
      </trkpt>
      <trkpt lat="49.00569" lon="7.78989">
        <ele>207.78</ele>
        <time>2014-08-28T07:55:18Z</time>
      </trkpt>
      <trkpt lat="49.00581" lon="7.78985">
        <ele>207.78</ele>
        <time>2014-08-28T07:55:21Z</time>
      </trkpt>
      <trkpt lat="49.00594" lon="7.78981">
        <ele>208.26</ele>
        <time>2014-08-28T07:55:24Z</time>
      </trkpt>
      <trkpt lat="49.00607" lon="7.78976">
        <ele>208.74</ele>
        <time>2014-08-28T07:55:27Z</time>
      </trkpt>
      <trkpt lat="49.00617" lon="7.78973">
        <ele>209.7</ele>
        <time>2014-08-28T07:55:29Z</time>
      </trkpt>
      <trkpt lat="49.00628" lon="7.78968">
        <ele>210.19</ele>
        <time>2014-08-28T07:55:31Z</time>
      </trkpt>
      <trkpt lat="49.00639" lon="7.78964">
        <ele>210.67</ele>
        <time>2014-08-28T07:55:33Z</time>
      </trkpt>
      <trkpt lat="49.00652" lon="7.7896">
        <ele>210.19</ele>
        <time>2014-08-28T07:55:35Z</time>
      </trkpt>
      <trkpt lat="49.00668" lon="7.78956">
        <ele>210.67</ele>
        <time>2014-08-28T07:55:37Z</time>
      </trkpt>
      <trkpt lat="49.00686" lon="7.78951">
        <ele>210.67</ele>
        <time>2014-08-28T07:55:39Z</time>
      </trkpt>
      <trkpt lat="49.00695" lon="7.78949">
        <ele>210.19</ele>
        <time>2014-08-28T07:55:40Z</time>
      </trkpt>
      <trkpt lat="49.00705" lon="7.78946">
        <ele>210.19</ele>
        <time>2014-08-28T07:55:41Z</time>
      </trkpt>
      <trkpt lat="49.00715" lon="7.78942">
        <ele>209.7</ele>
        <time>2014-08-28T07:55:42Z</time>
      </trkpt>
      <trkpt lat="49.00725" lon="7.78939">
        <ele>209.22</ele>
        <time>2014-08-28T07:55:43Z</time>
      </trkpt>
      <trkpt lat="49.00735" lon="7.78935">
        <ele>209.22</ele>
        <time>2014-08-28T07:55:44Z</time>
      </trkpt>
      <trkpt lat="49.00744" lon="7.78932">
        <ele>208.74</ele>
        <time>2014-08-28T07:55:45Z</time>
      </trkpt>
      <trkpt lat="49.00754" lon="7.78929">
        <ele>208.26</ele>
        <time>2014-08-28T07:55:46Z</time>
      </trkpt>
      <trkpt lat="49.00764" lon="7.78927">
        <ele>207.78</ele>
        <time>2014-08-28T07:55:47Z</time>
      </trkpt>
      <trkpt lat="49.00774" lon="7.78925">
        <ele>207.78</ele>
        <time>2014-08-28T07:55:48Z</time>
      </trkpt>
      <trkpt lat="49.00784" lon="7.78923">
        <ele>207.3</ele>
        <time>2014-08-28T07:55:49Z</time>
      </trkpt>
      <trkpt lat="49.00793" lon="7.7892">
        <ele>206.82</ele>
        <time>2014-08-28T07:55:50Z</time>
      </trkpt>
      <trkpt lat="49.00812" lon="7.78915">
        <ele>206.34</ele>
        <time>2014-08-28T07:55:52Z</time>
      </trkpt>
      <trkpt lat="49.00821" lon="7.78912">
        <ele>206.34</ele>
        <time>2014-08-28T07:55:53Z</time>
      </trkpt>
      <trkpt lat="49.00837" lon="7.78906">
        <ele>205.38</ele>
        <time>2014-08-28T07:55:55Z</time>
      </trkpt>
      <trkpt lat="49.00853" lon="7.789">
        <ele>204.9</ele>
        <time>2014-08-28T07:55:57Z</time>
      </trkpt>
      <trkpt lat="49.00867" lon="7.78893">
        <ele>204.9</ele>
        <time>2014-08-28T07:55:59Z</time>
      </trkpt>
      <trkpt lat="49.00882" lon="7.78889">
        <ele>204.42</ele>
        <time>2014-08-28T07:56:01Z</time>
      </trkpt>
      <trkpt lat="49.00896" lon="7.78886">
        <ele>204.42</ele>
        <time>2014-08-28T07:56:03Z</time>
      </trkpt>
      <trkpt lat="49.0091" lon="7.78882">
        <ele>204.9</ele>
        <time>2014-08-28T07:56:05Z</time>
      </trkpt>
      <trkpt lat="49.00923" lon="7.78879">
        <ele>204.9</ele>
        <time>2014-08-28T07:56:07Z</time>
      </trkpt>
      <trkpt lat="49.00935" lon="7.78875">
        <ele>205.38</ele>
        <time>2014-08-28T07:56:09Z</time>
      </trkpt>
      <trkpt lat="49.00946" lon="7.78871">
        <ele>205.38</ele>
        <time>2014-08-28T07:56:11Z</time>
      </trkpt>
      <trkpt lat="49.00957" lon="7.78868">
        <ele>205.86</ele>
        <time>2014-08-28T07:56:13Z</time>
      </trkpt>
      <trkpt lat="49.00968" lon="7.78864">
        <ele>205.86</ele>
        <time>2014-08-28T07:56:15Z</time>
      </trkpt>
      <trkpt lat="49.00979" lon="7.78859">
        <ele>206.34</ele>
        <time>2014-08-28T07:56:17Z</time>
      </trkpt>
      <trkpt lat="49.00989" lon="7.78853">
        <ele>206.82</ele>
        <time>2014-08-28T07:56:19Z</time>
      </trkpt>
      <trkpt lat="49.00999" lon="7.78843">
        <ele>206.82</ele>
        <time>2014-08-28T07:56:21Z</time>
      </trkpt>
      <trkpt lat="49.01006" lon="7.78832">
        <ele>207.3</ele>
        <time>2014-08-28T07:56:23Z</time>
      </trkpt>
      <trkpt lat="49.01013" lon="7.78819">
        <ele>207.78</ele>
        <time>2014-08-28T07:56:25Z</time>
      </trkpt>
      <trkpt lat="49.01019" lon="7.78806">
        <ele>207.78</ele>
        <time>2014-08-28T07:56:27Z</time>
      </trkpt>
      <trkpt lat="49.01025" lon="7.78793">
        <ele>208.26</ele>
        <time>2014-08-28T07:56:29Z</time>
      </trkpt>
      <trkpt lat="49.01031" lon="7.78778">
        <ele>208.26</ele>
        <time>2014-08-28T07:56:31Z</time>
      </trkpt>
      <trkpt lat="49.01039" lon="7.78762">
        <ele>208.74</ele>
        <time>2014-08-28T07:56:33Z</time>
      </trkpt>
      <trkpt lat="49.01049" lon="7.78746">
        <ele>208.74</ele>
        <time>2014-08-28T07:56:35Z</time>
      </trkpt>
      <trkpt lat="49.0106" lon="7.78731">
        <ele>208.74</ele>
        <time>2014-08-28T07:56:37Z</time>
      </trkpt>
      <trkpt lat="49.01071" lon="7.78718">
        <ele>209.22</ele>
        <time>2014-08-28T07:56:39Z</time>
      </trkpt>
      <trkpt lat="49.01084" lon="7.78704">
        <ele>209.22</ele>
        <time>2014-08-28T07:56:41Z</time>
      </trkpt>
      <trkpt lat="49.01098" lon="7.78689">
        <ele>209.7</ele>
        <time>2014-08-28T07:56:43Z</time>
      </trkpt>
      <trkpt lat="49.01112" lon="7.78674">
        <ele>209.7</ele>
        <time>2014-08-28T07:56:45Z</time>
      </trkpt>
      <trkpt lat="49.01119" lon="7.78665">
        <ele>209.7</ele>
        <time>2014-08-28T07:56:46Z</time>
      </trkpt>
      <trkpt lat="49.01126" lon="7.78657">
        <ele>209.22</ele>
        <time>2014-08-28T07:56:47Z</time>
      </trkpt>
      <trkpt lat="49.01141" lon="7.78639">
        <ele>209.22</ele>
        <time>2014-08-28T07:56:49Z</time>
      </trkpt>
      <trkpt lat="49.01148" lon="7.78629">
        <ele>209.22</ele>
        <time>2014-08-28T07:56:50Z</time>
      </trkpt>
      <trkpt lat="49.01162" lon="7.78609">
        <ele>208.74</ele>
        <time>2014-08-28T07:56:52Z</time>
      </trkpt>
      <trkpt lat="49.01169" lon="7.78598">
        <ele>208.74</ele>
        <time>2014-08-28T07:56:53Z</time>
      </trkpt>
      <trkpt lat="49.01176" lon="7.78587">
        <ele>208.74</ele>
        <time>2014-08-28T07:56:54Z</time>
      </trkpt>
      <trkpt lat="49.01183" lon="7.78576">
        <ele>208.74</ele>
        <time>2014-08-28T07:56:55Z</time>
      </trkpt>
      <trkpt lat="49.0119" lon="7.78566">
        <ele>208.26</ele>
        <time>2014-08-28T07:56:56Z</time>
      </trkpt>
      <trkpt lat="49.01197" lon="7.78555">
        <ele>208.26</ele>
        <time>2014-08-28T07:56:57Z</time>
      </trkpt>
      <trkpt lat="49.01204" lon="7.78545">
        <ele>208.26</ele>
        <time>2014-08-28T07:56:58Z</time>
      </trkpt>
      <trkpt lat="49.0121" lon="7.78536">
        <ele>208.26</ele>
        <time>2014-08-28T07:56:59Z</time>
      </trkpt>
      <trkpt lat="49.01217" lon="7.78526">
        <ele>208.26</ele>
        <time>2014-08-28T07:57:00Z</time>
      </trkpt>
      <trkpt lat="49.01224" lon="7.78516">
        <ele>208.26</ele>
        <time>2014-08-28T07:57:01Z</time>
      </trkpt>
      <trkpt lat="49.01231" lon="7.78507">
        <ele>207.78</ele>
        <time>2014-08-28T07:57:02Z</time>
      </trkpt>
      <trkpt lat="49.01238" lon="7.78497">
        <ele>207.78</ele>
        <time>2014-08-28T07:57:03Z</time>
      </trkpt>
      <trkpt lat="49.01245" lon="7.78488">
        <ele>207.78</ele>
        <time>2014-08-28T07:57:04Z</time>
      </trkpt>
      <trkpt lat="49.01252" lon="7.78478">
        <ele>207.78</ele>
        <time>2014-08-28T07:57:05Z</time>
      </trkpt>
      <trkpt lat="49.01259" lon="7.78469">
        <ele>207.78</ele>
        <time>2014-08-28T07:57:06Z</time>
      </trkpt>
      <trkpt lat="49.01266" lon="7.78459">
        <ele>207.78</ele>
        <time>2014-08-28T07:57:07Z</time>
      </trkpt>
      <trkpt lat="49.01273" lon="7.78449">
        <ele>207.78</ele>
        <time>2014-08-28T07:57:08Z</time>
      </trkpt>
      <trkpt lat="49.0128" lon="7.7844">
        <ele>207.78</ele>
        <time>2014-08-28T07:57:09Z</time>
      </trkpt>
      <trkpt lat="49.01287" lon="7.78431">
        <ele>207.78</ele>
        <time>2014-08-28T07:57:10Z</time>
      </trkpt>
      <trkpt lat="49.013" lon="7.78412">
        <ele>207.78</ele>
        <time>2014-08-28T07:57:12Z</time>
      </trkpt>
      <trkpt lat="49.01307" lon="7.78403">
        <ele>207.78</ele>
        <time>2014-08-28T07:57:13Z</time>
      </trkpt>
      <trkpt lat="49.01313" lon="7.78393">
        <ele>207.78</ele>
        <time>2014-08-28T07:57:14Z</time>
      </trkpt>
      <trkpt lat="49.0132" lon="7.78383">
        <ele>207.78</ele>
        <time>2014-08-28T07:57:15Z</time>
      </trkpt>
      <trkpt lat="49.01331" lon="7.78362">
        <ele>208.26</ele>
        <time>2014-08-28T07:57:17Z</time>
      </trkpt>
      <trkpt lat="49.01336" lon="7.7835">
        <ele>208.26</ele>
        <time>2014-08-28T07:57:18Z</time>
      </trkpt>
      <trkpt lat="49.0134" lon="7.78338">
        <ele>208.26</ele>
        <time>2014-08-28T07:57:19Z</time>
      </trkpt>
      <trkpt lat="49.01348" lon="7.78313">
        <ele>208.74</ele>
        <time>2014-08-28T07:57:21Z</time>
      </trkpt>
      <trkpt lat="49.01353" lon="7.78287">
        <ele>208.74</ele>
        <time>2014-08-28T07:57:23Z</time>
      </trkpt>
      <trkpt lat="49.01355" lon="7.78273">
        <ele>208.74</ele>
        <time>2014-08-28T07:57:24Z</time>
      </trkpt>
      <trkpt lat="49.01356" lon="7.7826">
        <ele>208.74</ele>
        <time>2014-08-28T07:57:25Z</time>
      </trkpt>
      <trkpt lat="49.01356" lon="7.78246">
        <ele>209.22</ele>
        <time>2014-08-28T07:57:26Z</time>
      </trkpt>
      <trkpt lat="49.01357" lon="7.78232">
        <ele>208.74</ele>
        <time>2014-08-28T07:57:27Z</time>
      </trkpt>
      <trkpt lat="49.01357" lon="7.78205">
        <ele>208.74</ele>
        <time>2014-08-28T07:57:29Z</time>
      </trkpt>
      <trkpt lat="49.01358" lon="7.78179">
        <ele>208.74</ele>
        <time>2014-08-28T07:57:31Z</time>
      </trkpt>
      <trkpt lat="49.01359" lon="7.78153">
        <ele>208.74</ele>
        <time>2014-08-28T07:57:33Z</time>
      </trkpt>
      <trkpt lat="49.01361" lon="7.78128">
        <ele>208.26</ele>
        <time>2014-08-28T07:57:35Z</time>
      </trkpt>
      <trkpt lat="49.01364" lon="7.78104">
        <ele>208.26</ele>
        <time>2014-08-28T07:57:37Z</time>
      </trkpt>
      <trkpt lat="49.01367" lon="7.7808">
        <ele>208.26</ele>
        <time>2014-08-28T07:57:39Z</time>
      </trkpt>
      <trkpt lat="49.0137" lon="7.78056">
        <ele>208.26</ele>
        <time>2014-08-28T07:57:41Z</time>
      </trkpt>
      <trkpt lat="49.01373" lon="7.78032">
        <ele>208.26</ele>
        <time>2014-08-28T07:57:43Z</time>
      </trkpt>
      <trkpt lat="49.01377" lon="7.78008">
        <ele>207.78</ele>
        <time>2014-08-28T07:57:45Z</time>
      </trkpt>
      <trkpt lat="49.01382" lon="7.77985">
        <ele>207.78</ele>
        <time>2014-08-28T07:57:47Z</time>
      </trkpt>
      <trkpt lat="49.01388" lon="7.77963">
        <ele>207.3</ele>
        <time>2014-08-28T07:57:49Z</time>
      </trkpt>
      <trkpt lat="49.01399" lon="7.77946">
        <ele>207.3</ele>
        <time>2014-08-28T07:57:51Z</time>
      </trkpt>
      <trkpt lat="49.01414" lon="7.77938">
        <ele>207.3</ele>
        <time>2014-08-28T07:57:53Z</time>
      </trkpt>
      <trkpt lat="49.01429" lon="7.77937">
        <ele>207.3</ele>
        <time>2014-08-28T07:57:55Z</time>
      </trkpt>
      <trkpt lat="49.01441" lon="7.77948">
        <ele>207.3</ele>
        <time>2014-08-28T07:57:57Z</time>
      </trkpt>
      <trkpt lat="49.0145" lon="7.77964">
        <ele>207.78</ele>
        <time>2014-08-28T07:57:59Z</time>
      </trkpt>
      <trkpt lat="49.01455" lon="7.77984">
        <ele>207.78</ele>
        <time>2014-08-28T07:58:01Z</time>
      </trkpt>
      <trkpt lat="49.01459" lon="7.78006">
        <ele>207.78</ele>
        <time>2014-08-28T07:58:03Z</time>
      </trkpt>
      <trkpt lat="49.01463" lon="7.78029">
        <ele>208.26</ele>
        <time>2014-08-28T07:58:05Z</time>
      </trkpt>
      <trkpt lat="49.01467" lon="7.78052">
        <ele>208.26</ele>
        <time>2014-08-28T07:58:07Z</time>
      </trkpt>
      <trkpt lat="49.01471" lon="7.78075">
        <ele>208.74</ele>
        <time>2014-08-28T07:58:09Z</time>
      </trkpt>
      <trkpt lat="49.01478" lon="7.78097">
        <ele>208.74</ele>
        <time>2014-08-28T07:58:11Z</time>
      </trkpt>
      <trkpt lat="49.01485" lon="7.78118">
        <ele>208.74</ele>
        <time>2014-08-28T07:58:13Z</time>
      </trkpt>
      <trkpt lat="49.01495" lon="7.78136">
        <ele>209.22</ele>
        <time>2014-08-28T07:58:15Z</time>
      </trkpt>
      <trkpt lat="49.01506" lon="7.78153">
        <ele>209.22</ele>
        <time>2014-08-28T07:58:17Z</time>
      </trkpt>
      <trkpt lat="49.01518" lon="7.78166">
        <ele>209.7</ele>
        <time>2014-08-28T07:58:19Z</time>
      </trkpt>
      <trkpt lat="49.01531" lon="7.78178">
        <ele>210.19</ele>
        <time>2014-08-28T07:58:21Z</time>
      </trkpt>
      <trkpt lat="49.01544" lon="7.78187">
        <ele>210.67</ele>
        <time>2014-08-28T07:58:23Z</time>
      </trkpt>
      <trkpt lat="49.01558" lon="7.78191">
        <ele>210.19</ele>
        <time>2014-08-28T07:58:25Z</time>
      </trkpt>
      <trkpt lat="49.01572" lon="7.78191">
        <ele>210.19</ele>
        <time>2014-08-28T07:58:27Z</time>
      </trkpt>
      <trkpt lat="49.01586" lon="7.78187">
        <ele>209.7</ele>
        <time>2014-08-28T07:58:29Z</time>
      </trkpt>
      <trkpt lat="49.016" lon="7.78178">
        <ele>209.22</ele>
        <time>2014-08-28T07:58:31Z</time>
      </trkpt>
      <trkpt lat="49.01613" lon="7.78166">
        <ele>209.22</ele>
        <time>2014-08-28T07:58:33Z</time>
      </trkpt>
      <trkpt lat="49.01625" lon="7.78152">
        <ele>209.22</ele>
        <time>2014-08-28T07:58:35Z</time>
      </trkpt>
      <trkpt lat="49.01636" lon="7.78136">
        <ele>208.74</ele>
        <time>2014-08-28T07:58:37Z</time>
      </trkpt>
      <trkpt lat="49.01645" lon="7.78119">
        <ele>208.74</ele>
        <time>2014-08-28T07:58:39Z</time>
      </trkpt>
      <trkpt lat="49.01653" lon="7.781">
        <ele>208.74</ele>
        <time>2014-08-28T07:58:41Z</time>
      </trkpt>
      <trkpt lat="49.0166" lon="7.7808">
        <ele>208.74</ele>
        <time>2014-08-28T07:58:43Z</time>
      </trkpt>
      <trkpt lat="49.01666" lon="7.7806">
        <ele>209.22</ele>
        <time>2014-08-28T07:58:45Z</time>
      </trkpt>
      <trkpt lat="49.01672" lon="7.78039">
        <ele>209.22</ele>
        <time>2014-08-28T07:58:47Z</time>
      </trkpt>
      <trkpt lat="49.01677" lon="7.78018">
        <ele>209.22</ele>
        <time>2014-08-28T07:58:49Z</time>
      </trkpt>
      <trkpt lat="49.01682" lon="7.77996">
        <ele>209.22</ele>
        <time>2014-08-28T07:58:51Z</time>
      </trkpt>
      <trkpt lat="49.01687" lon="7.77975">
        <ele>209.22</ele>
        <time>2014-08-28T07:58:53Z</time>
      </trkpt>
      <trkpt lat="49.01692" lon="7.77954">
        <ele>209.22</ele>
        <time>2014-08-28T07:58:55Z</time>
      </trkpt>
      <trkpt lat="49.01697" lon="7.77933">
        <ele>209.22</ele>
        <time>2014-08-28T07:58:57Z</time>
      </trkpt>
      <trkpt lat="49.01704" lon="7.77914">
        <ele>209.7</ele>
        <time>2014-08-28T07:58:59Z</time>
      </trkpt>
      <trkpt lat="49.01713" lon="7.77898">
        <ele>209.7</ele>
        <time>2014-08-28T07:59:01Z</time>
      </trkpt>
      <trkpt lat="49.01724" lon="7.77886">
        <ele>209.7</ele>
        <time>2014-08-28T07:59:03Z</time>
      </trkpt>
      <trkpt lat="49.01737" lon="7.77878">
        <ele>209.7</ele>
        <time>2014-08-28T07:59:05Z</time>
      </trkpt>
      <trkpt lat="49.01751" lon="7.77875">
        <ele>209.7</ele>
        <time>2014-08-28T07:59:07Z</time>
      </trkpt>
      <trkpt lat="49.01766" lon="7.77874">
        <ele>209.7</ele>
        <time>2014-08-28T07:59:09Z</time>
      </trkpt>
      <trkpt lat="49.01782" lon="7.77875">
        <ele>210.19</ele>
        <time>2014-08-28T07:59:11Z</time>
      </trkpt>
      <trkpt lat="49.01796" lon="7.77876">
        <ele>210.19</ele>
        <time>2014-08-28T07:59:13Z</time>
      </trkpt>
      <trkpt lat="49.0181" lon="7.77877">
        <ele>210.67</ele>
        <time>2014-08-28T07:59:15Z</time>
      </trkpt>
      <trkpt lat="49.01824" lon="7.77876">
        <ele>210.67</ele>
        <time>2014-08-28T07:59:17Z</time>
      </trkpt>
      <trkpt lat="49.01837" lon="7.77873">
        <ele>210.67</ele>
        <time>2014-08-28T07:59:19Z</time>
      </trkpt>
      <trkpt lat="49.0185" lon="7.77869">
        <ele>211.15</ele>
        <time>2014-08-28T07:59:21Z</time>
      </trkpt>
      <trkpt lat="49.01863" lon="7.77862">
        <ele>211.15</ele>
        <time>2014-08-28T07:59:23Z</time>
      </trkpt>
      <trkpt lat="49.01877" lon="7.77855">
        <ele>211.15</ele>
        <time>2014-08-28T07:59:25Z</time>
      </trkpt>
      <trkpt lat="49.01889" lon="7.77845">
        <ele>211.15</ele>
        <time>2014-08-28T07:59:27Z</time>
      </trkpt>
      <trkpt lat="49.019" lon="7.77833">
        <ele>211.15</ele>
        <time>2014-08-28T07:59:29Z</time>
      </trkpt>
      <trkpt lat="49.01911" lon="7.7782">
        <ele>211.15</ele>
        <time>2014-08-28T07:59:31Z</time>
      </trkpt>
      <trkpt lat="49.01922" lon="7.77806">
        <ele>211.63</ele>
        <time>2014-08-28T07:59:33Z</time>
      </trkpt>
      <trkpt lat="49.01931" lon="7.7779">
        <ele>212.11</ele>
        <time>2014-08-28T07:59:35Z</time>
      </trkpt>
      <trkpt lat="49.01939" lon="7.77772">
        <ele>212.59</ele>
        <time>2014-08-28T07:59:37Z</time>
      </trkpt>
      <trkpt lat="49.01947" lon="7.77753">
        <ele>213.07</ele>
        <time>2014-08-28T07:59:39Z</time>
      </trkpt>
      <trkpt lat="49.01956" lon="7.77734">
        <ele>214.03</ele>
        <time>2014-08-28T07:59:41Z</time>
      </trkpt>
      <trkpt lat="49.01963" lon="7.77715">
        <ele>214.51</ele>
        <time>2014-08-28T07:59:43Z</time>
      </trkpt>
      <trkpt lat="49.01971" lon="7.77695">
        <ele>214.99</ele>
        <time>2014-08-28T07:59:45Z</time>
      </trkpt>
      <trkpt lat="49.01978" lon="7.77675">
        <ele>215.47</ele>
        <time>2014-08-28T07:59:47Z</time>
      </trkpt>
      <trkpt lat="49.01985" lon="7.77655">
        <ele>215.95</ele>
        <time>2014-08-28T07:59:49Z</time>
      </trkpt>
      <trkpt lat="49.01991" lon="7.77634">
        <ele>216.43</ele>
        <time>2014-08-28T07:59:51Z</time>
      </trkpt>
      <trkpt lat="49.01997" lon="7.77613">
        <ele>216.43</ele>
        <time>2014-08-28T07:59:53Z</time>
      </trkpt>
      <trkpt lat="49.02003" lon="7.77592">
        <ele>216.91</ele>
        <time>2014-08-28T07:59:55Z</time>
      </trkpt>
      <trkpt lat="49.02008" lon="7.7757">
        <ele>217.4</ele>
        <time>2014-08-28T07:59:57Z</time>
      </trkpt>
      <trkpt lat="49.02013" lon="7.77549">
        <ele>217.88</ele>
        <time>2014-08-28T07:59:59Z</time>
      </trkpt>
      <trkpt lat="49.02017" lon="7.77528">
        <ele>217.88</ele>
        <time>2014-08-28T08:00:01Z</time>
      </trkpt>
      <trkpt lat="49.02021" lon="7.77506">
        <ele>217.88</ele>
        <time>2014-08-28T08:00:03Z</time>
      </trkpt>
      <trkpt lat="49.02025" lon="7.77486">
        <ele>218.36</ele>
        <time>2014-08-28T08:00:05Z</time>
      </trkpt>
      <trkpt lat="49.0203" lon="7.77465">
        <ele>218.36</ele>
        <time>2014-08-28T08:00:07Z</time>
      </trkpt>
      <trkpt lat="49.02035" lon="7.77446">
        <ele>218.84</ele>
        <time>2014-08-28T08:00:09Z</time>
      </trkpt>
      <trkpt lat="49.02041" lon="7.77427">
        <ele>218.84</ele>
        <time>2014-08-28T08:00:11Z</time>
      </trkpt>
      <trkpt lat="49.02049" lon="7.77409">
        <ele>219.32</ele>
        <time>2014-08-28T08:00:13Z</time>
      </trkpt>
      <trkpt lat="49.02057" lon="7.77391">
        <ele>219.32</ele>
        <time>2014-08-28T08:00:15Z</time>
      </trkpt>
      <trkpt lat="49.02067" lon="7.77373">
        <ele>219.8</ele>
        <time>2014-08-28T08:00:17Z</time>
      </trkpt>
      <trkpt lat="49.02077" lon="7.77356">
        <ele>219.8</ele>
        <time>2014-08-28T08:00:19Z</time>
      </trkpt>
      <trkpt lat="49.02088" lon="7.77339">
        <ele>219.8</ele>
        <time>2014-08-28T08:00:21Z</time>
      </trkpt>
      <trkpt lat="49.02099" lon="7.77323">
        <ele>219.32</ele>
        <time>2014-08-28T08:00:23Z</time>
      </trkpt>
      <trkpt lat="49.02111" lon="7.77308">
        <ele>219.32</ele>
        <time>2014-08-28T08:00:25Z</time>
      </trkpt>
      <trkpt lat="49.02123" lon="7.77293">
        <ele>218.84</ele>
        <time>2014-08-28T08:00:27Z</time>
      </trkpt>
      <trkpt lat="49.02136" lon="7.77279">
        <ele>218.36</ele>
        <time>2014-08-28T08:00:29Z</time>
      </trkpt>
      <trkpt lat="49.02148" lon="7.77266">
        <ele>217.88</ele>
        <time>2014-08-28T08:00:31Z</time>
      </trkpt>
      <trkpt lat="49.02161" lon="7.77253">
        <ele>217.4</ele>
        <time>2014-08-28T08:00:33Z</time>
      </trkpt>
      <trkpt lat="49.02172" lon="7.7724">
        <ele>217.4</ele>
        <time>2014-08-28T08:00:35Z</time>
      </trkpt>
      <trkpt lat="49.02183" lon="7.77227">
        <ele>216.91</ele>
        <time>2014-08-28T08:00:37Z</time>
      </trkpt>
      <trkpt lat="49.02192" lon="7.77213">
        <ele>216.91</ele>
        <time>2014-08-28T08:00:39Z</time>
      </trkpt>
      <trkpt lat="49.02202" lon="7.77196">
        <ele>216.91</ele>
        <time>2014-08-28T08:00:41Z</time>
      </trkpt>
      <trkpt lat="49.02211" lon="7.77178">
        <ele>216.43</ele>
        <time>2014-08-28T08:00:43Z</time>
      </trkpt>
      <trkpt lat="49.02219" lon="7.77161">
        <ele>216.43</ele>
        <time>2014-08-28T08:00:45Z</time>
      </trkpt>
      <trkpt lat="49.02228" lon="7.77144">
        <ele>216.43</ele>
        <time>2014-08-28T08:00:47Z</time>
      </trkpt>
      <trkpt lat="49.02237" lon="7.77128">
        <ele>215.95</ele>
        <time>2014-08-28T08:00:49Z</time>
      </trkpt>
      <trkpt lat="49.02246" lon="7.7711">
        <ele>215.95</ele>
        <time>2014-08-28T08:00:51Z</time>
      </trkpt>
      <trkpt lat="49.02254" lon="7.77092">
        <ele>215.95</ele>
        <time>2014-08-28T08:00:53Z</time>
      </trkpt>
      <trkpt lat="49.02264" lon="7.77074">
        <ele>215.95</ele>
        <time>2014-08-28T08:00:55Z</time>
      </trkpt>
      <trkpt lat="49.02275" lon="7.77058">
        <ele>215.95</ele>
        <time>2014-08-28T08:00:57Z</time>
      </trkpt>
      <trkpt lat="49.02287" lon="7.77043">
        <ele>215.95</ele>
        <time>2014-08-28T08:00:59Z</time>
      </trkpt>
      <trkpt lat="49.02301" lon="7.7703">
        <ele>215.47</ele>
        <time>2014-08-28T08:01:01Z</time>
      </trkpt>
      <trkpt lat="49.02315" lon="7.77019">
        <ele>215.47</ele>
        <time>2014-08-28T08:01:03Z</time>
      </trkpt>
      <trkpt lat="49.02329" lon="7.7701">
        <ele>214.99</ele>
        <time>2014-08-28T08:01:05Z</time>
      </trkpt>
      <trkpt lat="49.02344" lon="7.77002">
        <ele>214.99</ele>
        <time>2014-08-28T08:01:07Z</time>
      </trkpt>
      <trkpt lat="49.02359" lon="7.76999">
        <ele>214.51</ele>
        <time>2014-08-28T08:01:09Z</time>
      </trkpt>
      <trkpt lat="49.02374" lon="7.77">
        <ele>214.99</ele>
        <time>2014-08-28T08:01:11Z</time>
      </trkpt>
      <trkpt lat="49.02388" lon="7.77005">
        <ele>214.99</ele>
        <time>2014-08-28T08:01:13Z</time>
      </trkpt>
      <trkpt lat="49.02402" lon="7.77012">
        <ele>214.99</ele>
        <time>2014-08-28T08:01:15Z</time>
      </trkpt>
      <trkpt lat="49.02416" lon="7.7702">
        <ele>215.47</ele>
        <time>2014-08-28T08:01:17Z</time>
      </trkpt>
      <trkpt lat="49.02429" lon="7.77028">
        <ele>215.47</ele>
        <time>2014-08-28T08:01:19Z</time>
      </trkpt>
      <trkpt lat="49.02443" lon="7.77035">
        <ele>215.47</ele>
        <time>2014-08-28T08:01:21Z</time>
      </trkpt>
      <trkpt lat="49.02458" lon="7.77041">
        <ele>215.95</ele>
        <time>2014-08-28T08:01:23Z</time>
      </trkpt>
      <trkpt lat="49.02473" lon="7.77045">
        <ele>216.43</ele>
        <time>2014-08-28T08:01:25Z</time>
      </trkpt>
      <trkpt lat="49.02487" lon="7.7705">
        <ele>216.91</ele>
        <time>2014-08-28T08:01:27Z</time>
      </trkpt>
      <trkpt lat="49.02502" lon="7.77054">
        <ele>216.91</ele>
        <time>2014-08-28T08:01:29Z</time>
      </trkpt>
      <trkpt lat="49.02515" lon="7.77059">
        <ele>217.4</ele>
        <time>2014-08-28T08:01:31Z</time>
      </trkpt>
      <trkpt lat="49.02529" lon="7.77064">
        <ele>217.88</ele>
        <time>2014-08-28T08:01:33Z</time>
      </trkpt>
      <trkpt lat="49.02542" lon="7.77068">
        <ele>218.36</ele>
        <time>2014-08-28T08:01:35Z</time>
      </trkpt>
      <trkpt lat="49.02556" lon="7.77072">
        <ele>218.84</ele>
        <time>2014-08-28T08:01:37Z</time>
      </trkpt>
      <trkpt lat="49.0257" lon="7.77073">
        <ele>218.84</ele>
        <time>2014-08-28T08:01:39Z</time>
      </trkpt>
      <trkpt lat="49.02584" lon="7.77068">
        <ele>218.84</ele>
        <time>2014-08-28T08:01:41Z</time>
      </trkpt>
      <trkpt lat="49.02596" lon="7.77056">
        <ele>218.84</ele>
        <time>2014-08-28T08:01:43Z</time>
      </trkpt>
      <trkpt lat="49.02606" lon="7.7704">
        <ele>219.32</ele>
        <time>2014-08-28T08:01:45Z</time>
      </trkpt>
      <trkpt lat="49.02615" lon="7.77023">
        <ele>219.8</ele>
        <time>2014-08-28T08:01:47Z</time>
      </trkpt>
      <trkpt lat="49.02625" lon="7.77006">
        <ele>220.28</ele>
        <time>2014-08-28T08:01:49Z</time>
      </trkpt>
      <trkpt lat="49.02637" lon="7.76993">
        <ele>219.8</ele>
        <time>2014-08-28T08:01:51Z</time>
      </trkpt>
      <trkpt lat="49.02649" lon="7.7698">
        <ele>219.8</ele>
        <time>2014-08-28T08:01:53Z</time>
      </trkpt>
      <trkpt lat="49.02663" lon="7.76968">
        <ele>218.36</ele>
        <time>2014-08-28T08:01:55Z</time>
      </trkpt>
      <trkpt lat="49.02675" lon="7.76953">
        <ele>217.4</ele>
        <time>2014-08-28T08:01:57Z</time>
      </trkpt>
      <trkpt lat="49.02687" lon="7.76937">
        <ele>215.95</ele>
        <time>2014-08-28T08:01:59Z</time>
      </trkpt>
      <trkpt lat="49.02697" lon="7.7692">
        <ele>214.51</ele>
        <time>2014-08-28T08:02:01Z</time>
      </trkpt>
      <trkpt lat="49.02707" lon="7.76902">
        <ele>213.55</ele>
        <time>2014-08-28T08:02:03Z</time>
      </trkpt>
      <trkpt lat="49.02717" lon="7.76885">
        <ele>212.59</ele>
        <time>2014-08-28T08:02:05Z</time>
      </trkpt>
      <trkpt lat="49.02727" lon="7.76867">
        <ele>212.11</ele>
        <time>2014-08-28T08:02:07Z</time>
      </trkpt>
      <trkpt lat="49.02737" lon="7.7685">
        <ele>212.11</ele>
        <time>2014-08-28T08:02:09Z</time>
      </trkpt>
      <trkpt lat="49.02747" lon="7.76833">
        <ele>211.63</ele>
        <time>2014-08-28T08:02:11Z</time>
      </trkpt>
      <trkpt lat="49.02757" lon="7.76816">
        <ele>211.15</ele>
        <time>2014-08-28T08:02:13Z</time>
      </trkpt>
      <trkpt lat="49.02766" lon="7.76799">
        <ele>211.15</ele>
        <time>2014-08-28T08:02:15Z</time>
      </trkpt>
      <trkpt lat="49.02776" lon="7.76782">
        <ele>211.15</ele>
        <time>2014-08-28T08:02:17Z</time>
      </trkpt>
      <trkpt lat="49.02787" lon="7.76766">
        <ele>210.67</ele>
        <time>2014-08-28T08:02:19Z</time>
      </trkpt>
      <trkpt lat="49.02798" lon="7.76751">
        <ele>209.7</ele>
        <time>2014-08-28T08:02:21Z</time>
      </trkpt>
      <trkpt lat="49.0281" lon="7.76737">
        <ele>209.22</ele>
        <time>2014-08-28T08:02:23Z</time>
      </trkpt>
      <trkpt lat="49.02823" lon="7.76723">
        <ele>209.22</ele>
        <time>2014-08-28T08:02:25Z</time>
      </trkpt>
      <trkpt lat="49.02836" lon="7.76711">
        <ele>208.26</ele>
        <time>2014-08-28T08:02:27Z</time>
      </trkpt>
      <trkpt lat="49.02849" lon="7.76699">
        <ele>208.26</ele>
        <time>2014-08-28T08:02:29Z</time>
      </trkpt>
      <trkpt lat="49.02861" lon="7.76687">
        <ele>207.78</ele>
        <time>2014-08-28T08:02:31Z</time>
      </trkpt>
      <trkpt lat="49.02874" lon="7.76676">
        <ele>208.26</ele>
        <time>2014-08-28T08:02:33Z</time>
      </trkpt>
      <trkpt lat="49.02888" lon="7.76667">
        <ele>208.74</ele>
        <time>2014-08-28T08:02:35Z</time>
      </trkpt>
      <trkpt lat="49.02901" lon="7.76659">
        <ele>209.22</ele>
        <time>2014-08-28T08:02:37Z</time>
      </trkpt>
      <trkpt lat="49.02914" lon="7.76651">
        <ele>209.7</ele>
        <time>2014-08-28T08:02:39Z</time>
      </trkpt>
      <trkpt lat="49.02927" lon="7.76644">
        <ele>210.19</ele>
        <time>2014-08-28T08:02:41Z</time>
      </trkpt>
      <trkpt lat="49.0294" lon="7.76635">
        <ele>210.67</ele>
        <time>2014-08-28T08:02:43Z</time>
      </trkpt>
      <trkpt lat="49.02951" lon="7.76624">
        <ele>211.63</ele>
        <time>2014-08-28T08:02:45Z</time>
      </trkpt>
      <trkpt lat="49.0296" lon="7.76609">
        <ele>212.11</ele>
        <time>2014-08-28T08:02:47Z</time>
      </trkpt>
      <trkpt lat="49.02968" lon="7.76593">
        <ele>212.59</ele>
        <time>2014-08-28T08:02:49Z</time>
      </trkpt>
      <trkpt lat="49.02976" lon="7.76576">
        <ele>212.59</ele>
        <time>2014-08-28T08:02:51Z</time>
      </trkpt>
      <trkpt lat="49.02983" lon="7.76559">
        <ele>212.11</ele>
        <time>2014-08-28T08:02:53Z</time>
      </trkpt>
      <trkpt lat="49.02991" lon="7.76543">
        <ele>211.63</ele>
        <time>2014-08-28T08:02:55Z</time>
      </trkpt>
      <trkpt lat="49.02999" lon="7.76525">
        <ele>210.67</ele>
        <time>2014-08-28T08:02:57Z</time>
      </trkpt>
      <trkpt lat="49.03007" lon="7.76508">
        <ele>210.19</ele>
        <time>2014-08-28T08:02:59Z</time>
      </trkpt>
      <trkpt lat="49.03014" lon="7.76491">
        <ele>210.67</ele>
        <time>2014-08-28T08:03:01Z</time>
      </trkpt>
      <trkpt lat="49.03021" lon="7.76474">
        <ele>211.15</ele>
        <time>2014-08-28T08:03:03Z</time>
      </trkpt>
      <trkpt lat="49.03029" lon="7.76457">
        <ele>211.15</ele>
        <time>2014-08-28T08:03:05Z</time>
      </trkpt>
      <trkpt lat="49.03036" lon="7.76441">
        <ele>211.15</ele>
        <time>2014-08-28T08:03:07Z</time>
      </trkpt>
      <trkpt lat="49.03044" lon="7.76424">
        <ele>211.15</ele>
        <time>2014-08-28T08:03:09Z</time>
      </trkpt>
      <trkpt lat="49.0305" lon="7.76407">
        <ele>211.15</ele>
        <time>2014-08-28T08:03:11Z</time>
      </trkpt>
      <trkpt lat="49.03058" lon="7.7639">
        <ele>210.67</ele>
        <time>2014-08-28T08:03:13Z</time>
      </trkpt>
      <trkpt lat="49.03064" lon="7.76373">
        <ele>210.67</ele>
        <time>2014-08-28T08:03:15Z</time>
      </trkpt>
      <trkpt lat="49.03071" lon="7.76357">
        <ele>210.67</ele>
        <time>2014-08-28T08:03:17Z</time>
      </trkpt>
      <trkpt lat="49.03078" lon="7.76339">
        <ele>210.67</ele>
        <time>2014-08-28T08:03:19Z</time>
      </trkpt>
      <trkpt lat="49.03085" lon="7.76323">
        <ele>210.67</ele>
        <time>2014-08-28T08:03:21Z</time>
      </trkpt>
      <trkpt lat="49.03092" lon="7.76307">
        <ele>210.67</ele>
        <time>2014-08-28T08:03:23Z</time>
      </trkpt>
      <trkpt lat="49.03098" lon="7.7629">
        <ele>210.67</ele>
        <time>2014-08-28T08:03:25Z</time>
      </trkpt>
      <trkpt lat="49.03105" lon="7.76272">
        <ele>210.67</ele>
        <time>2014-08-28T08:03:27Z</time>
      </trkpt>
      <trkpt lat="49.03112" lon="7.76253">
        <ele>210.67</ele>
        <time>2014-08-28T08:03:29Z</time>
      </trkpt>
      <trkpt lat="49.03119" lon="7.76234">
        <ele>210.67</ele>
        <time>2014-08-28T08:03:31Z</time>
      </trkpt>
      <trkpt lat="49.03125" lon="7.76214">
        <ele>211.15</ele>
        <time>2014-08-28T08:03:33Z</time>
      </trkpt>
      <trkpt lat="49.0313" lon="7.76192">
        <ele>211.15</ele>
        <time>2014-08-28T08:03:35Z</time>
      </trkpt>
      <trkpt lat="49.03134" lon="7.7617">
        <ele>211.15</ele>
        <time>2014-08-28T08:03:37Z</time>
      </trkpt>
      <trkpt lat="49.03138" lon="7.76148">
        <ele>210.67</ele>
        <time>2014-08-28T08:03:39Z</time>
      </trkpt>
      <trkpt lat="49.03141" lon="7.76126">
        <ele>210.67</ele>
        <time>2014-08-28T08:03:41Z</time>
      </trkpt>
      <trkpt lat="49.03143" lon="7.76104">
        <ele>210.67</ele>
        <time>2014-08-28T08:03:43Z</time>
      </trkpt>
      <trkpt lat="49.03146" lon="7.76082">
        <ele>210.19</ele>
        <time>2014-08-28T08:03:45Z</time>
      </trkpt>
      <trkpt lat="49.03148" lon="7.76059">
        <ele>210.19</ele>
        <time>2014-08-28T08:03:47Z</time>
      </trkpt>
      <trkpt lat="49.03149" lon="7.76036">
        <ele>209.7</ele>
        <time>2014-08-28T08:03:49Z</time>
      </trkpt>
      <trkpt lat="49.03151" lon="7.76013">
        <ele>209.22</ele>
        <time>2014-08-28T08:03:51Z</time>
      </trkpt>
      <trkpt lat="49.03152" lon="7.75991">
        <ele>208.74</ele>
        <time>2014-08-28T08:03:53Z</time>
      </trkpt>
      <trkpt lat="49.03152" lon="7.75968">
        <ele>208.74</ele>
        <time>2014-08-28T08:03:55Z</time>
      </trkpt>
      <trkpt lat="49.03151" lon="7.75944">
        <ele>208.26</ele>
        <time>2014-08-28T08:03:57Z</time>
      </trkpt>
      <trkpt lat="49.03151" lon="7.75921">
        <ele>207.78</ele>
        <time>2014-08-28T08:03:59Z</time>
      </trkpt>
      <trkpt lat="49.03149" lon="7.75897">
        <ele>207.3</ele>
        <time>2014-08-28T08:04:01Z</time>
      </trkpt>
      <trkpt lat="49.03148" lon="7.75874">
        <ele>206.82</ele>
        <time>2014-08-28T08:04:03Z</time>
      </trkpt>
      <trkpt lat="49.03148" lon="7.75852">
        <ele>206.34</ele>
        <time>2014-08-28T08:04:05Z</time>
      </trkpt>
      <trkpt lat="49.03149" lon="7.75829">
        <ele>205.86</ele>
        <time>2014-08-28T08:04:07Z</time>
      </trkpt>
      <trkpt lat="49.03151" lon="7.75808">
        <ele>205.38</ele>
        <time>2014-08-28T08:04:09Z</time>
      </trkpt>
      <trkpt lat="49.03152" lon="7.75787">
        <ele>205.38</ele>
        <time>2014-08-28T08:04:11Z</time>
      </trkpt>
      <trkpt lat="49.03154" lon="7.75767">
        <ele>205.38</ele>
        <time>2014-08-28T08:04:13Z</time>
      </trkpt>
      <trkpt lat="49.03156" lon="7.75748">
        <ele>205.38</ele>
        <time>2014-08-28T08:04:15Z</time>
      </trkpt>
      <trkpt lat="49.03158" lon="7.75729">
        <ele>205.38</ele>
        <time>2014-08-28T08:04:17Z</time>
      </trkpt>
      <trkpt lat="49.0316" lon="7.75711">
        <ele>205.38</ele>
        <time>2014-08-28T08:04:19Z</time>
      </trkpt>
      <trkpt lat="49.03163" lon="7.75694">
        <ele>205.86</ele>
        <time>2014-08-28T08:04:21Z</time>
      </trkpt>
      <trkpt lat="49.03166" lon="7.75677">
        <ele>205.86</ele>
        <time>2014-08-28T08:04:23Z</time>
      </trkpt>
      <trkpt lat="49.0317" lon="7.7566">
        <ele>206.34</ele>
        <time>2014-08-28T08:04:25Z</time>
      </trkpt>
      <trkpt lat="49.03173" lon="7.75644">
        <ele>206.82</ele>
        <time>2014-08-28T08:04:27Z</time>
      </trkpt>
      <trkpt lat="49.03176" lon="7.75626">
        <ele>207.3</ele>
        <time>2014-08-28T08:04:29Z</time>
      </trkpt>
      <trkpt lat="49.03179" lon="7.75608">
        <ele>207.78</ele>
        <time>2014-08-28T08:04:31Z</time>
      </trkpt>
      <trkpt lat="49.03182" lon="7.75589">
        <ele>207.3</ele>
        <time>2014-08-28T08:04:33Z</time>
      </trkpt>
      <trkpt lat="49.03185" lon="7.7557">
        <ele>207.3</ele>
        <time>2014-08-28T08:04:35Z</time>
      </trkpt>
      <trkpt lat="49.03188" lon="7.7555">
        <ele>207.3</ele>
        <time>2014-08-28T08:04:37Z</time>
      </trkpt>
      <trkpt lat="49.03191" lon="7.7553">
        <ele>206.82</ele>
        <time>2014-08-28T08:04:39Z</time>
      </trkpt>
      <trkpt lat="49.03194" lon="7.7551">
        <ele>206.82</ele>
        <time>2014-08-28T08:04:41Z</time>
      </trkpt>
      <trkpt lat="49.03198" lon="7.75492">
        <ele>206.82</ele>
        <time>2014-08-28T08:04:43Z</time>
      </trkpt>
      <trkpt lat="49.03201" lon="7.75473">
        <ele>206.34</ele>
        <time>2014-08-28T08:04:45Z</time>
      </trkpt>
      <trkpt lat="49.03205" lon="7.75453">
        <ele>206.34</ele>
        <time>2014-08-28T08:04:47Z</time>
      </trkpt>
      <trkpt lat="49.0321" lon="7.75434">
        <ele>205.86</ele>
        <time>2014-08-28T08:04:49Z</time>
      </trkpt>
      <trkpt lat="49.03214" lon="7.75414">
        <ele>205.86</ele>
        <time>2014-08-28T08:04:51Z</time>
      </trkpt>
      <trkpt lat="49.03219" lon="7.75395">
        <ele>205.38</ele>
        <time>2014-08-28T08:04:53Z</time>
      </trkpt>
      <trkpt lat="49.03223" lon="7.75376">
        <ele>204.9</ele>
        <time>2014-08-28T08:04:55Z</time>
      </trkpt>
      <trkpt lat="49.03227" lon="7.75357">
        <ele>204.42</ele>
        <time>2014-08-28T08:04:57Z</time>
      </trkpt>
      <trkpt lat="49.03231" lon="7.75339">
        <ele>204.42</ele>
        <time>2014-08-28T08:04:59Z</time>
      </trkpt>
      <trkpt lat="49.03234" lon="7.75321">
        <ele>203.94</ele>
        <time>2014-08-28T08:05:01Z</time>
      </trkpt>
      <trkpt lat="49.03237" lon="7.75304">
        <ele>203.46</ele>
        <time>2014-08-28T08:05:03Z</time>
      </trkpt>
      <trkpt lat="49.03238" lon="7.75289">
        <ele>202.98</ele>
        <time>2014-08-28T08:05:05Z</time>
      </trkpt>
      <trkpt lat="49.03239" lon="7.75274">
        <ele>202.49</ele>
        <time>2014-08-28T08:05:07Z</time>
      </trkpt>
      <trkpt lat="49.0324" lon="7.75253">
        <ele>201.53</ele>
        <time>2014-08-28T08:05:10Z</time>
      </trkpt>
      <trkpt lat="49.0324" lon="7.75231">
        <ele>201.05</ele>
        <time>2014-08-28T08:05:13Z</time>
      </trkpt>
      <trkpt lat="49.0324" lon="7.75215">
        <ele>201.05</ele>
        <time>2014-08-28T08:05:15Z</time>
      </trkpt>
      <trkpt lat="49.03239" lon="7.752">
        <ele>200.57</ele>
        <time>2014-08-28T08:05:17Z</time>
      </trkpt>
      <trkpt lat="49.03238" lon="7.75178">
        <ele>199.61</ele>
        <time>2014-08-28T08:05:20Z</time>
      </trkpt>
      <trkpt lat="49.03236" lon="7.75156">
        <ele>199.61</ele>
        <time>2014-08-28T08:05:23Z</time>
      </trkpt>
      <trkpt lat="49.03233" lon="7.75134">
        <ele>199.61</ele>
        <time>2014-08-28T08:05:26Z</time>
      </trkpt>
      <trkpt lat="49.0323" lon="7.75113">
        <ele>200.57</ele>
        <time>2014-08-28T08:05:29Z</time>
      </trkpt>
      <trkpt lat="49.03228" lon="7.75091">
        <ele>201.05</ele>
        <time>2014-08-28T08:05:32Z</time>
      </trkpt>
      <trkpt lat="49.03226" lon="7.75076">
        <ele>201.53</ele>
        <time>2014-08-28T08:05:34Z</time>
      </trkpt>
      <trkpt lat="49.03222" lon="7.75055">
        <ele>202.49</ele>
        <time>2014-08-28T08:05:37Z</time>
      </trkpt>
      <trkpt lat="49.0322" lon="7.75033">
        <ele>203.94</ele>
        <time>2014-08-28T08:05:40Z</time>
      </trkpt>
      <trkpt lat="49.03218" lon="7.75019">
        <ele>205.38</ele>
        <time>2014-08-28T08:05:42Z</time>
      </trkpt>
      <trkpt lat="49.03216" lon="7.75004">
        <ele>206.34</ele>
        <time>2014-08-28T08:05:44Z</time>
      </trkpt>
      <trkpt lat="49.03214" lon="7.74983">
        <ele>208.26</ele>
        <time>2014-08-28T08:05:47Z</time>
      </trkpt>
      <trkpt lat="49.0321" lon="7.74963">
        <ele>210.19</ele>
        <time>2014-08-28T08:05:50Z</time>
      </trkpt>
      <trkpt lat="49.03204" lon="7.74943">
        <ele>212.11</ele>
        <time>2014-08-28T08:05:53Z</time>
      </trkpt>
      <trkpt lat="49.03196" lon="7.74925">
        <ele>213.55</ele>
        <time>2014-08-28T08:05:56Z</time>
      </trkpt>
      <trkpt lat="49.03186" lon="7.74909">
        <ele>214.99</ele>
        <time>2014-08-28T08:05:59Z</time>
      </trkpt>
      <trkpt lat="49.03174" lon="7.74894">
        <ele>216.91</ele>
        <time>2014-08-28T08:06:02Z</time>
      </trkpt>
      <trkpt lat="49.03166" lon="7.74884">
        <ele>217.88</ele>
        <time>2014-08-28T08:06:04Z</time>
      </trkpt>
      <trkpt lat="49.03158" lon="7.74871">
        <ele>219.32</ele>
        <time>2014-08-28T08:06:06Z</time>
      </trkpt>
      <trkpt lat="49.03148" lon="7.74854">
        <ele>221.24</ele>
        <time>2014-08-28T08:06:09Z</time>
      </trkpt>
      <trkpt lat="49.0314" lon="7.7484">
        <ele>223.16</ele>
        <time>2014-08-28T08:06:12Z</time>
      </trkpt>
      <trkpt lat="49.03132" lon="7.74826">
        <ele>225.09</ele>
        <time>2014-08-28T08:06:15Z</time>
      </trkpt>
      <trkpt lat="49.03125" lon="7.74812">
        <ele>226.53</ele>
        <time>2014-08-28T08:06:18Z</time>
      </trkpt>
      <trkpt lat="49.03117" lon="7.74797">
        <ele>227.49</ele>
        <time>2014-08-28T08:06:21Z</time>
      </trkpt>
      <trkpt lat="49.03109" lon="7.74782">
        <ele>228.45</ele>
        <time>2014-08-28T08:06:24Z</time>
      </trkpt>
      <trkpt lat="49.03102" lon="7.74766">
        <ele>229.89</ele>
        <time>2014-08-28T08:06:27Z</time>
      </trkpt>
      <trkpt lat="49.03093" lon="7.74747">
        <ele>230.85</ele>
        <time>2014-08-28T08:06:30Z</time>
      </trkpt>
      <trkpt lat="49.03088" lon="7.74733">
        <ele>231.33</ele>
        <time>2014-08-28T08:06:32Z</time>
      </trkpt>
      <trkpt lat="49.03081" lon="7.74719">
        <ele>231.81</ele>
        <time>2014-08-28T08:06:34Z</time>
      </trkpt>
      <trkpt lat="49.03074" lon="7.74705">
        <ele>232.3</ele>
        <time>2014-08-28T08:06:36Z</time>
      </trkpt>
      <trkpt lat="49.03068" lon="7.74691">
        <ele>232.3</ele>
        <time>2014-08-28T08:06:38Z</time>
      </trkpt>
      <trkpt lat="49.03062" lon="7.74678">
        <ele>232.78</ele>
        <time>2014-08-28T08:06:40Z</time>
      </trkpt>
      <trkpt lat="49.03057" lon="7.74664">
        <ele>233.26</ele>
        <time>2014-08-28T08:06:42Z</time>
      </trkpt>
      <trkpt lat="49.03052" lon="7.7465">
        <ele>233.74</ele>
        <time>2014-08-28T08:06:44Z</time>
      </trkpt>
      <trkpt lat="49.03046" lon="7.74635">
        <ele>234.22</ele>
        <time>2014-08-28T08:06:46Z</time>
      </trkpt>
      <trkpt lat="49.0304" lon="7.74619">
        <ele>234.7</ele>
        <time>2014-08-28T08:06:48Z</time>
      </trkpt>
      <trkpt lat="49.03035" lon="7.74603">
        <ele>234.7</ele>
        <time>2014-08-28T08:06:50Z</time>
      </trkpt>
      <trkpt lat="49.03029" lon="7.74589">
        <ele>235.18</ele>
        <time>2014-08-28T08:06:52Z</time>
      </trkpt>
      <trkpt lat="49.03024" lon="7.74575">
        <ele>235.66</ele>
        <time>2014-08-28T08:06:54Z</time>
      </trkpt>
      <trkpt lat="49.03018" lon="7.74561">
        <ele>236.14</ele>
        <time>2014-08-28T08:06:56Z</time>
      </trkpt>
      <trkpt lat="49.03014" lon="7.74547">
        <ele>237.1</ele>
        <time>2014-08-28T08:06:58Z</time>
      </trkpt>
      <trkpt lat="49.03009" lon="7.74532">
        <ele>237.1</ele>
        <time>2014-08-28T08:07:00Z</time>
      </trkpt>
      <trkpt lat="49.03004" lon="7.74517">
        <ele>237.58</ele>
        <time>2014-08-28T08:07:02Z</time>
      </trkpt>
      <trkpt lat="49.02997" lon="7.745">
        <ele>238.54</ele>
        <time>2014-08-28T08:07:04Z</time>
      </trkpt>
      <trkpt lat="49.02991" lon="7.74482">
        <ele>239.02</ele>
        <time>2014-08-28T08:07:06Z</time>
      </trkpt>
      <trkpt lat="49.02986" lon="7.74463">
        <ele>239.51</ele>
        <time>2014-08-28T08:07:08Z</time>
      </trkpt>
      <trkpt lat="49.02981" lon="7.74442">
        <ele>239.99</ele>
        <time>2014-08-28T08:07:10Z</time>
      </trkpt>
      <trkpt lat="49.02977" lon="7.7442">
        <ele>239.51</ele>
        <time>2014-08-28T08:07:12Z</time>
      </trkpt>
      <trkpt lat="49.02974" lon="7.74399">
        <ele>239.51</ele>
        <time>2014-08-28T08:07:14Z</time>
      </trkpt>
      <trkpt lat="49.02974" lon="7.74379">
        <ele>239.02</ele>
        <time>2014-08-28T08:07:16Z</time>
      </trkpt>
      <trkpt lat="49.02976" lon="7.7436">
        <ele>238.54</ele>
        <time>2014-08-28T08:07:18Z</time>
      </trkpt>
      <trkpt lat="49.02978" lon="7.74341">
        <ele>238.06</ele>
        <time>2014-08-28T08:07:20Z</time>
      </trkpt>
      <trkpt lat="49.0298" lon="7.74323">
        <ele>237.58</ele>
        <time>2014-08-28T08:07:22Z</time>
      </trkpt>
      <trkpt lat="49.02983" lon="7.74305">
        <ele>237.1</ele>
        <time>2014-08-28T08:07:24Z</time>
      </trkpt>
      <trkpt lat="49.02986" lon="7.74284">
        <ele>236.62</ele>
        <time>2014-08-28T08:07:26Z</time>
      </trkpt>
      <trkpt lat="49.02989" lon="7.74263">
        <ele>236.14</ele>
        <time>2014-08-28T08:07:28Z</time>
      </trkpt>
      <trkpt lat="49.02993" lon="7.74241">
        <ele>236.14</ele>
        <time>2014-08-28T08:07:30Z</time>
      </trkpt>
      <trkpt lat="49.02997" lon="7.74219">
        <ele>235.66</ele>
        <time>2014-08-28T08:07:32Z</time>
      </trkpt>
      <trkpt lat="49.03001" lon="7.74197">
        <ele>235.18</ele>
        <time>2014-08-28T08:07:34Z</time>
      </trkpt>
      <trkpt lat="49.03006" lon="7.74174">
        <ele>234.7</ele>
        <time>2014-08-28T08:07:36Z</time>
      </trkpt>
      <trkpt lat="49.03011" lon="7.74151">
        <ele>233.74</ele>
        <time>2014-08-28T08:07:38Z</time>
      </trkpt>
      <trkpt lat="49.03017" lon="7.74127">
        <ele>232.78</ele>
        <time>2014-08-28T08:07:40Z</time>
      </trkpt>
      <trkpt lat="49.03021" lon="7.74103">
        <ele>232.3</ele>
        <time>2014-08-28T08:07:42Z</time>
      </trkpt>
      <trkpt lat="49.03023" lon="7.74078">
        <ele>231.81</ele>
        <time>2014-08-28T08:07:44Z</time>
      </trkpt>
      <trkpt lat="49.03022" lon="7.74053">
        <ele>230.85</ele>
        <time>2014-08-28T08:07:46Z</time>
      </trkpt>
      <trkpt lat="49.03019" lon="7.74031">
        <ele>230.85</ele>
        <time>2014-08-28T08:07:48Z</time>
      </trkpt>
      <trkpt lat="49.03014" lon="7.7401">
        <ele>230.85</ele>
        <time>2014-08-28T08:07:50Z</time>
      </trkpt>
      <trkpt lat="49.03008" lon="7.73991">
        <ele>230.37</ele>
        <time>2014-08-28T08:07:52Z</time>
      </trkpt>
      <trkpt lat="49.03001" lon="7.73973">
        <ele>229.89</ele>
        <time>2014-08-28T08:07:54Z</time>
      </trkpt>
      <trkpt lat="49.02993" lon="7.73956">
        <ele>229.89</ele>
        <time>2014-08-28T08:07:56Z</time>
      </trkpt>
      <trkpt lat="49.02984" lon="7.73939">
        <ele>229.41</ele>
        <time>2014-08-28T08:07:58Z</time>
      </trkpt>
      <trkpt lat="49.02976" lon="7.73922">
        <ele>228.93</ele>
        <time>2014-08-28T08:08:00Z</time>
      </trkpt>
      <trkpt lat="49.02968" lon="7.73904">
        <ele>228.93</ele>
        <time>2014-08-28T08:08:02Z</time>
      </trkpt>
      <trkpt lat="49.02959" lon="7.73886">
        <ele>228.45</ele>
        <time>2014-08-28T08:08:04Z</time>
      </trkpt>
      <trkpt lat="49.0295" lon="7.73867">
        <ele>228.45</ele>
        <time>2014-08-28T08:08:06Z</time>
      </trkpt>
      <trkpt lat="49.02941" lon="7.73848">
        <ele>227.97</ele>
        <time>2014-08-28T08:08:08Z</time>
      </trkpt>
      <trkpt lat="49.02932" lon="7.73828">
        <ele>227.01</ele>
        <time>2014-08-28T08:08:10Z</time>
      </trkpt>
      <trkpt lat="49.02923" lon="7.73808">
        <ele>226.53</ele>
        <time>2014-08-28T08:08:12Z</time>
      </trkpt>
      <trkpt lat="49.02914" lon="7.73787">
        <ele>226.05</ele>
        <time>2014-08-28T08:08:14Z</time>
      </trkpt>
      <trkpt lat="49.02909" lon="7.73776">
        <ele>226.05</ele>
        <time>2014-08-28T08:08:15Z</time>
      </trkpt>
      <trkpt lat="49.029" lon="7.73754">
        <ele>225.57</ele>
        <time>2014-08-28T08:08:17Z</time>
      </trkpt>
      <trkpt lat="49.0289" lon="7.73733">
        <ele>225.09</ele>
        <time>2014-08-28T08:08:19Z</time>
      </trkpt>
      <trkpt lat="49.0288" lon="7.73712">
        <ele>224.61</ele>
        <time>2014-08-28T08:08:21Z</time>
      </trkpt>
      <trkpt lat="49.0287" lon="7.73692">
        <ele>224.12</ele>
        <time>2014-08-28T08:08:23Z</time>
      </trkpt>
      <trkpt lat="49.02865" lon="7.73681">
        <ele>224.12</ele>
        <time>2014-08-28T08:08:24Z</time>
      </trkpt>
      <trkpt lat="49.02855" lon="7.7366">
        <ele>223.64</ele>
        <time>2014-08-28T08:08:26Z</time>
      </trkpt>
      <trkpt lat="49.02846" lon="7.7364">
        <ele>223.16</ele>
        <time>2014-08-28T08:08:28Z</time>
      </trkpt>
      <trkpt lat="49.02836" lon="7.7362">
        <ele>222.68</ele>
        <time>2014-08-28T08:08:30Z</time>
      </trkpt>
      <trkpt lat="49.02828" lon="7.73599">
        <ele>222.68</ele>
        <time>2014-08-28T08:08:32Z</time>
      </trkpt>
      <trkpt lat="49.0282" lon="7.7358">
        <ele>222.2</ele>
        <time>2014-08-28T08:08:34Z</time>
      </trkpt>
      <trkpt lat="49.02812" lon="7.7356">
        <ele>222.2</ele>
        <time>2014-08-28T08:08:36Z</time>
      </trkpt>
      <trkpt lat="49.02804" lon="7.7354">
        <ele>221.72</ele>
        <time>2014-08-28T08:08:38Z</time>
      </trkpt>
      <trkpt lat="49.02797" lon="7.7352">
        <ele>221.24</ele>
        <time>2014-08-28T08:08:40Z</time>
      </trkpt>
      <trkpt lat="49.02789" lon="7.73499">
        <ele>220.76</ele>
        <time>2014-08-28T08:08:42Z</time>
      </trkpt>
      <trkpt lat="49.02781" lon="7.73478">
        <ele>220.76</ele>
        <time>2014-08-28T08:08:44Z</time>
      </trkpt>
      <trkpt lat="49.02772" lon="7.73458">
        <ele>220.28</ele>
        <time>2014-08-28T08:08:46Z</time>
      </trkpt>
      <trkpt lat="49.02764" lon="7.73437">
        <ele>220.28</ele>
        <time>2014-08-28T08:08:48Z</time>
      </trkpt>
      <trkpt lat="49.02756" lon="7.73417">
        <ele>220.28</ele>
        <time>2014-08-28T08:08:50Z</time>
      </trkpt>
      <trkpt lat="49.02748" lon="7.73397">
        <ele>220.28</ele>
        <time>2014-08-28T08:08:52Z</time>
      </trkpt>
      <trkpt lat="49.0274" lon="7.73376">
        <ele>220.28</ele>
        <time>2014-08-28T08:08:54Z</time>
      </trkpt>
      <trkpt lat="49.02733" lon="7.73356">
        <ele>219.8</ele>
        <time>2014-08-28T08:08:56Z</time>
      </trkpt>
      <trkpt lat="49.02726" lon="7.73334">
        <ele>219.8</ele>
        <time>2014-08-28T08:08:58Z</time>
      </trkpt>
      <trkpt lat="49.02721" lon="7.73312">
        <ele>219.32</ele>
        <time>2014-08-28T08:09:00Z</time>
      </trkpt>
      <trkpt lat="49.02716" lon="7.73289">
        <ele>219.32</ele>
        <time>2014-08-28T08:09:02Z</time>
      </trkpt>
      <trkpt lat="49.02714" lon="7.73267">
        <ele>218.84</ele>
        <time>2014-08-28T08:09:04Z</time>
      </trkpt>
      <trkpt lat="49.02715" lon="7.73256">
        <ele>218.84</ele>
        <time>2014-08-28T08:09:05Z</time>
      </trkpt>
      <trkpt lat="49.02719" lon="7.73234">
        <ele>218.84</ele>
        <time>2014-08-28T08:09:07Z</time>
      </trkpt>
      <trkpt lat="49.02725" lon="7.73214">
        <ele>219.32</ele>
        <time>2014-08-28T08:09:09Z</time>
      </trkpt>
      <trkpt lat="49.02734" lon="7.73193">
        <ele>219.32</ele>
        <time>2014-08-28T08:09:11Z</time>
      </trkpt>
      <trkpt lat="49.02744" lon="7.73173">
        <ele>219.8</ele>
        <time>2014-08-28T08:09:13Z</time>
      </trkpt>
      <trkpt lat="49.02752" lon="7.73153">
        <ele>219.8</ele>
        <time>2014-08-28T08:09:15Z</time>
      </trkpt>
      <trkpt lat="49.02761" lon="7.73133">
        <ele>219.8</ele>
        <time>2014-08-28T08:09:17Z</time>
      </trkpt>
      <trkpt lat="49.02767" lon="7.7311">
        <ele>220.28</ele>
        <time>2014-08-28T08:09:19Z</time>
      </trkpt>
      <trkpt lat="49.0277" lon="7.73087">
        <ele>220.76</ele>
        <time>2014-08-28T08:09:21Z</time>
      </trkpt>
      <trkpt lat="49.02771" lon="7.73063">
        <ele>220.76</ele>
        <time>2014-08-28T08:09:23Z</time>
      </trkpt>
      <trkpt lat="49.0277" lon="7.73039">
        <ele>220.76</ele>
        <time>2014-08-28T08:09:25Z</time>
      </trkpt>
      <trkpt lat="49.02768" lon="7.73016">
        <ele>221.24</ele>
        <time>2014-08-28T08:09:27Z</time>
      </trkpt>
      <trkpt lat="49.02765" lon="7.72993">
        <ele>221.72</ele>
        <time>2014-08-28T08:09:29Z</time>
      </trkpt>
      <trkpt lat="49.02763" lon="7.72971">
        <ele>221.72</ele>
        <time>2014-08-28T08:09:31Z</time>
      </trkpt>
      <trkpt lat="49.0276" lon="7.72949">
        <ele>221.72</ele>
        <time>2014-08-28T08:09:33Z</time>
      </trkpt>
      <trkpt lat="49.02758" lon="7.72928">
        <ele>221.72</ele>
        <time>2014-08-28T08:09:35Z</time>
      </trkpt>
      <trkpt lat="49.02756" lon="7.72905">
        <ele>222.2</ele>
        <time>2014-08-28T08:09:37Z</time>
      </trkpt>
      <trkpt lat="49.02754" lon="7.72883">
        <ele>222.2</ele>
        <time>2014-08-28T08:09:39Z</time>
      </trkpt>
      <trkpt lat="49.02753" lon="7.7286">
        <ele>222.2</ele>
        <time>2014-08-28T08:09:41Z</time>
      </trkpt>
      <trkpt lat="49.02751" lon="7.72838">
        <ele>222.68</ele>
        <time>2014-08-28T08:09:43Z</time>
      </trkpt>
      <trkpt lat="49.0275" lon="7.72815">
        <ele>222.68</ele>
        <time>2014-08-28T08:09:45Z</time>
      </trkpt>
      <trkpt lat="49.02748" lon="7.72792">
        <ele>222.68</ele>
        <time>2014-08-28T08:09:47Z</time>
      </trkpt>
      <trkpt lat="49.02747" lon="7.72769">
        <ele>223.16</ele>
        <time>2014-08-28T08:09:49Z</time>
      </trkpt>
      <trkpt lat="49.02745" lon="7.72746">
        <ele>223.16</ele>
        <time>2014-08-28T08:09:51Z</time>
      </trkpt>
      <trkpt lat="49.02744" lon="7.72724">
        <ele>223.64</ele>
        <time>2014-08-28T08:09:53Z</time>
      </trkpt>
      <trkpt lat="49.02744" lon="7.72702">
        <ele>223.64</ele>
        <time>2014-08-28T08:09:55Z</time>
      </trkpt>
      <trkpt lat="49.02746" lon="7.72681">
        <ele>224.12</ele>
        <time>2014-08-28T08:09:57Z</time>
      </trkpt>
      <trkpt lat="49.02748" lon="7.7266">
        <ele>224.12</ele>
        <time>2014-08-28T08:09:59Z</time>
      </trkpt>
      <trkpt lat="49.02751" lon="7.7264">
        <ele>224.61</ele>
        <time>2014-08-28T08:10:01Z</time>
      </trkpt>
      <trkpt lat="49.02755" lon="7.72621">
        <ele>225.09</ele>
        <time>2014-08-28T08:10:03Z</time>
      </trkpt>
      <trkpt lat="49.02759" lon="7.72602">
        <ele>225.09</ele>
        <time>2014-08-28T08:10:05Z</time>
      </trkpt>
      <trkpt lat="49.02763" lon="7.72583">
        <ele>225.57</ele>
        <time>2014-08-28T08:10:07Z</time>
      </trkpt>
      <trkpt lat="49.02768" lon="7.72564">
        <ele>225.57</ele>
        <time>2014-08-28T08:10:09Z</time>
      </trkpt>
      <trkpt lat="49.02772" lon="7.72545">
        <ele>226.05</ele>
        <time>2014-08-28T08:10:11Z</time>
      </trkpt>
      <trkpt lat="49.02776" lon="7.72524">
        <ele>226.53</ele>
        <time>2014-08-28T08:10:13Z</time>
      </trkpt>
      <trkpt lat="49.02781" lon="7.72502">
        <ele>226.53</ele>
        <time>2014-08-28T08:10:15Z</time>
      </trkpt>
      <trkpt lat="49.02786" lon="7.7248">
        <ele>227.01</ele>
        <time>2014-08-28T08:10:17Z</time>
      </trkpt>
      <trkpt lat="49.02791" lon="7.72457">
        <ele>227.49</ele>
        <time>2014-08-28T08:10:19Z</time>
      </trkpt>
      <trkpt lat="49.02797" lon="7.72435">
        <ele>227.49</ele>
        <time>2014-08-28T08:10:21Z</time>
      </trkpt>
      <trkpt lat="49.02803" lon="7.72412">
        <ele>227.97</ele>
        <time>2014-08-28T08:10:23Z</time>
      </trkpt>
      <trkpt lat="49.0281" lon="7.72391">
        <ele>227.97</ele>
        <time>2014-08-28T08:10:25Z</time>
      </trkpt>
      <trkpt lat="49.02817" lon="7.7237">
        <ele>228.45</ele>
        <time>2014-08-28T08:10:27Z</time>
      </trkpt>
      <trkpt lat="49.02826" lon="7.72351">
        <ele>228.45</ele>
        <time>2014-08-28T08:10:29Z</time>
      </trkpt>
      <trkpt lat="49.02834" lon="7.72332">
        <ele>228.45</ele>
        <time>2014-08-28T08:10:31Z</time>
      </trkpt>
      <trkpt lat="49.02843" lon="7.72314">
        <ele>228.93</ele>
        <time>2014-08-28T08:10:33Z</time>
      </trkpt>
      <trkpt lat="49.02852" lon="7.72297">
        <ele>229.41</ele>
        <time>2014-08-28T08:10:35Z</time>
      </trkpt>
      <trkpt lat="49.0286" lon="7.7228">
        <ele>229.89</ele>
        <time>2014-08-28T08:10:37Z</time>
      </trkpt>
      <trkpt lat="49.02868" lon="7.72263">
        <ele>229.89</ele>
        <time>2014-08-28T08:10:39Z</time>
      </trkpt>
      <trkpt lat="49.02876" lon="7.72244">
        <ele>230.37</ele>
        <time>2014-08-28T08:10:41Z</time>
      </trkpt>
      <trkpt lat="49.02884" lon="7.72226">
        <ele>230.85</ele>
        <time>2014-08-28T08:10:43Z</time>
      </trkpt>
      <trkpt lat="49.02892" lon="7.72208">
        <ele>231.33</ele>
        <time>2014-08-28T08:10:45Z</time>
      </trkpt>
      <trkpt lat="49.029" lon="7.72191">
        <ele>231.81</ele>
        <time>2014-08-28T08:10:47Z</time>
      </trkpt>
      <trkpt lat="49.02907" lon="7.72174">
        <ele>232.3</ele>
        <time>2014-08-28T08:10:49Z</time>
      </trkpt>
      <trkpt lat="49.02915" lon="7.72157">
        <ele>232.3</ele>
        <time>2014-08-28T08:10:51Z</time>
      </trkpt>
      <trkpt lat="49.02923" lon="7.72142">
        <ele>232.78</ele>
        <time>2014-08-28T08:10:53Z</time>
      </trkpt>
      <trkpt lat="49.0293" lon="7.72126">
        <ele>233.26</ele>
        <time>2014-08-28T08:10:55Z</time>
      </trkpt>
      <trkpt lat="49.02938" lon="7.72111">
        <ele>233.74</ele>
        <time>2014-08-28T08:10:57Z</time>
      </trkpt>
      <trkpt lat="49.02947" lon="7.72096">
        <ele>234.22</ele>
        <time>2014-08-28T08:10:59Z</time>
      </trkpt>
      <trkpt lat="49.02954" lon="7.7208">
        <ele>234.7</ele>
        <time>2014-08-28T08:11:01Z</time>
      </trkpt>
      <trkpt lat="49.0296" lon="7.72064">
        <ele>235.18</ele>
        <time>2014-08-28T08:11:03Z</time>
      </trkpt>
      <trkpt lat="49.02965" lon="7.72048">
        <ele>235.18</ele>
        <time>2014-08-28T08:11:05Z</time>
      </trkpt>
      <trkpt lat="49.02968" lon="7.7203">
        <ele>235.66</ele>
        <time>2014-08-28T08:11:07Z</time>
      </trkpt>
      <trkpt lat="49.0297" lon="7.7201">
        <ele>236.14</ele>
        <time>2014-08-28T08:11:09Z</time>
      </trkpt>
      <trkpt lat="49.02971" lon="7.71989">
        <ele>236.14</ele>
        <time>2014-08-28T08:11:11Z</time>
      </trkpt>
      <trkpt lat="49.02972" lon="7.71968">
        <ele>236.62</ele>
        <time>2014-08-28T08:11:13Z</time>
      </trkpt>
      <trkpt lat="49.02973" lon="7.71948">
        <ele>237.1</ele>
        <time>2014-08-28T08:11:15Z</time>
      </trkpt>
      <trkpt lat="49.02973" lon="7.71927">
        <ele>237.58</ele>
        <time>2014-08-28T08:11:17Z</time>
      </trkpt>
      <trkpt lat="49.02974" lon="7.71907">
        <ele>238.06</ele>
        <time>2014-08-28T08:11:19Z</time>
      </trkpt>
      <trkpt lat="49.02975" lon="7.71887">
        <ele>238.06</ele>
        <time>2014-08-28T08:11:21Z</time>
      </trkpt>
      <trkpt lat="49.02976" lon="7.71868">
        <ele>238.54</ele>
        <time>2014-08-28T08:11:23Z</time>
      </trkpt>
      <trkpt lat="49.02977" lon="7.71849">
        <ele>238.54</ele>
        <time>2014-08-28T08:11:25Z</time>
      </trkpt>
      <trkpt lat="49.02977" lon="7.71831">
        <ele>238.54</ele>
        <time>2014-08-28T08:11:27Z</time>
      </trkpt>
      <trkpt lat="49.02977" lon="7.71813">
        <ele>238.54</ele>
        <time>2014-08-28T08:11:29Z</time>
      </trkpt>
      <trkpt lat="49.02978" lon="7.71795">
        <ele>238.54</ele>
        <time>2014-08-28T08:11:31Z</time>
      </trkpt>
      <trkpt lat="49.02978" lon="7.71776">
        <ele>239.02</ele>
        <time>2014-08-28T08:11:33Z</time>
      </trkpt>
      <trkpt lat="49.02977" lon="7.71757">
        <ele>239.02</ele>
        <time>2014-08-28T08:11:35Z</time>
      </trkpt>
      <trkpt lat="49.02977" lon="7.71739">
        <ele>239.02</ele>
        <time>2014-08-28T08:11:37Z</time>
      </trkpt>
      <trkpt lat="49.02975" lon="7.7172">
        <ele>239.02</ele>
        <time>2014-08-28T08:11:39Z</time>
      </trkpt>
      <trkpt lat="49.02972" lon="7.71701">
        <ele>238.54</ele>
        <time>2014-08-28T08:11:41Z</time>
      </trkpt>
      <trkpt lat="49.02969" lon="7.71681">
        <ele>238.06</ele>
        <time>2014-08-28T08:11:43Z</time>
      </trkpt>
      <trkpt lat="49.02966" lon="7.71661">
        <ele>237.58</ele>
        <time>2014-08-28T08:11:45Z</time>
      </trkpt>
      <trkpt lat="49.02962" lon="7.7164">
        <ele>237.58</ele>
        <time>2014-08-28T08:11:47Z</time>
      </trkpt>
      <trkpt lat="49.02959" lon="7.71619">
        <ele>237.58</ele>
        <time>2014-08-28T08:11:49Z</time>
      </trkpt>
      <trkpt lat="49.02957" lon="7.71597">
        <ele>237.58</ele>
        <time>2014-08-28T08:11:51Z</time>
      </trkpt>
      <trkpt lat="49.02955" lon="7.71576">
        <ele>237.58</ele>
        <time>2014-08-28T08:11:53Z</time>
      </trkpt>
      <trkpt lat="49.02953" lon="7.71556">
        <ele>237.58</ele>
        <time>2014-08-28T08:11:55Z</time>
      </trkpt>
      <trkpt lat="49.02952" lon="7.71536">
        <ele>237.1</ele>
        <time>2014-08-28T08:11:57Z</time>
      </trkpt>
      <trkpt lat="49.0295" lon="7.71516">
        <ele>237.1</ele>
        <time>2014-08-28T08:11:59Z</time>
      </trkpt>
      <trkpt lat="49.0295" lon="7.71497">
        <ele>237.58</ele>
        <time>2014-08-28T08:12:01Z</time>
      </trkpt>
      <trkpt lat="49.0295" lon="7.71479">
        <ele>237.58</ele>
        <time>2014-08-28T08:12:03Z</time>
      </trkpt>
      <trkpt lat="49.02951" lon="7.71461">
        <ele>238.06</ele>
        <time>2014-08-28T08:12:05Z</time>
      </trkpt>
      <trkpt lat="49.02953" lon="7.71443">
        <ele>238.06</ele>
        <time>2014-08-28T08:12:07Z</time>
      </trkpt>
      <trkpt lat="49.02955" lon="7.71425">
        <ele>238.54</ele>
        <time>2014-08-28T08:12:09Z</time>
      </trkpt>
      <trkpt lat="49.02958" lon="7.71408">
        <ele>238.54</ele>
        <time>2014-08-28T08:12:11Z</time>
      </trkpt>
      <trkpt lat="49.02961" lon="7.7139">
        <ele>238.54</ele>
        <time>2014-08-28T08:12:13Z</time>
      </trkpt>
      <trkpt lat="49.02966" lon="7.71372">
        <ele>238.54</ele>
        <time>2014-08-28T08:12:15Z</time>
      </trkpt>
      <trkpt lat="49.0297" lon="7.71353">
        <ele>238.54</ele>
        <time>2014-08-28T08:12:17Z</time>
      </trkpt>
      <trkpt lat="49.02975" lon="7.71334">
        <ele>238.06</ele>
        <time>2014-08-28T08:12:19Z</time>
      </trkpt>
      <trkpt lat="49.0298" lon="7.71315">
        <ele>238.54</ele>
        <time>2014-08-28T08:12:21Z</time>
      </trkpt>
      <trkpt lat="49.02985" lon="7.71297">
        <ele>238.54</ele>
        <time>2014-08-28T08:12:23Z</time>
      </trkpt>
      <trkpt lat="49.0299" lon="7.71279">
        <ele>238.54</ele>
        <time>2014-08-28T08:12:25Z</time>
      </trkpt>
      <trkpt lat="49.02997" lon="7.71263">
        <ele>238.54</ele>
        <time>2014-08-28T08:12:27Z</time>
      </trkpt>
      <trkpt lat="49.03002" lon="7.71247">
        <ele>238.54</ele>
        <time>2014-08-28T08:12:29Z</time>
      </trkpt>
      <trkpt lat="49.03008" lon="7.71232">
        <ele>238.54</ele>
        <time>2014-08-28T08:12:31Z</time>
      </trkpt>
      <trkpt lat="49.03012" lon="7.71215">
        <ele>238.54</ele>
        <time>2014-08-28T08:12:33Z</time>
      </trkpt>
      <trkpt lat="49.03016" lon="7.71199">
        <ele>238.54</ele>
        <time>2014-08-28T08:12:35Z</time>
      </trkpt>
      <trkpt lat="49.03019" lon="7.71182">
        <ele>238.54</ele>
        <time>2014-08-28T08:12:37Z</time>
      </trkpt>
      <trkpt lat="49.03024" lon="7.71166">
        <ele>239.02</ele>
        <time>2014-08-28T08:12:39Z</time>
      </trkpt>
      <trkpt lat="49.03031" lon="7.71152">
        <ele>239.02</ele>
        <time>2014-08-28T08:12:41Z</time>
      </trkpt>
      <trkpt lat="49.03039" lon="7.71138">
        <ele>239.02</ele>
        <time>2014-08-28T08:12:43Z</time>
      </trkpt>
      <trkpt lat="49.03047" lon="7.71126">
        <ele>239.51</ele>
        <time>2014-08-28T08:12:45Z</time>
      </trkpt>
      <trkpt lat="49.03056" lon="7.71114">
        <ele>239.99</ele>
        <time>2014-08-28T08:12:47Z</time>
      </trkpt>
      <trkpt lat="49.03066" lon="7.71103">
        <ele>239.99</ele>
        <time>2014-08-28T08:12:49Z</time>
      </trkpt>
      <trkpt lat="49.03077" lon="7.71095">
        <ele>240.47</ele>
        <time>2014-08-28T08:12:51Z</time>
      </trkpt>
      <trkpt lat="49.03088" lon="7.71088">
        <ele>240.47</ele>
        <time>2014-08-28T08:12:53Z</time>
      </trkpt>
      <trkpt lat="49.03099" lon="7.71084">
        <ele>240.95</ele>
        <time>2014-08-28T08:12:55Z</time>
      </trkpt>
      <trkpt lat="49.03111" lon="7.71081">
        <ele>241.43</ele>
        <time>2014-08-28T08:12:57Z</time>
      </trkpt>
      <trkpt lat="49.03124" lon="7.71078">
        <ele>241.43</ele>
        <time>2014-08-28T08:12:59Z</time>
      </trkpt>
      <trkpt lat="49.03136" lon="7.71074">
        <ele>241.91</ele>
        <time>2014-08-28T08:13:01Z</time>
      </trkpt>
      <trkpt lat="49.03147" lon="7.7107">
        <ele>241.91</ele>
        <time>2014-08-28T08:13:03Z</time>
      </trkpt>
      <trkpt lat="49.03159" lon="7.71064">
        <ele>242.39</ele>
        <time>2014-08-28T08:13:05Z</time>
      </trkpt>
      <trkpt lat="49.03168" lon="7.71058">
        <ele>242.39</ele>
        <time>2014-08-28T08:13:07Z</time>
      </trkpt>
      <trkpt lat="49.03178" lon="7.71051">
        <ele>240.95</ele>
        <time>2014-08-28T08:13:09Z</time>
      </trkpt>
      <trkpt lat="49.03185" lon="7.71041">
        <ele>239.51</ele>
        <time>2014-08-28T08:13:11Z</time>
      </trkpt>
      <trkpt lat="49.03193" lon="7.7103">
        <ele>239.02</ele>
        <time>2014-08-28T08:13:13Z</time>
      </trkpt>
      <trkpt lat="49.032" lon="7.71017">
        <ele>239.02</ele>
        <time>2014-08-28T08:13:15Z</time>
      </trkpt>
      <trkpt lat="49.03207" lon="7.71005">
        <ele>239.02</ele>
        <time>2014-08-28T08:13:17Z</time>
      </trkpt>
      <trkpt lat="49.03214" lon="7.7099">
        <ele>239.02</ele>
        <time>2014-08-28T08:13:20Z</time>
      </trkpt>
      <trkpt lat="49.03219" lon="7.70978">
        <ele>239.51</ele>
        <time>2014-08-28T08:13:23Z</time>
      </trkpt>
      <trkpt lat="49.03223" lon="7.7097">
        <ele>240.47</ele>
        <time>2014-08-28T08:14:03Z</time>
      </trkpt>
      <trkpt lat="49.03229" lon="7.70957">
        <ele>239.02</ele>
        <time>2014-08-28T08:14:08Z</time>
      </trkpt>
      <trkpt lat="49.03237" lon="7.70941">
        <ele>239.02</ele>
        <time>2014-08-28T08:14:12Z</time>
      </trkpt>
      <trkpt lat="49.03243" lon="7.70925">
        <ele>238.54</ele>
        <time>2014-08-28T08:14:15Z</time>
      </trkpt>
      <trkpt lat="49.03247" lon="7.70912">
        <ele>238.54</ele>
        <time>2014-08-28T08:14:17Z</time>
      </trkpt>
      <trkpt lat="49.03252" lon="7.70898">
        <ele>238.54</ele>
        <time>2014-08-28T08:14:19Z</time>
      </trkpt>
      <trkpt lat="49.03256" lon="7.70882">
        <ele>238.06</ele>
        <time>2014-08-28T08:14:21Z</time>
      </trkpt>
      <trkpt lat="49.03261" lon="7.70867">
        <ele>238.06</ele>
        <time>2014-08-28T08:14:23Z</time>
      </trkpt>
      <trkpt lat="49.03265" lon="7.7085">
        <ele>238.06</ele>
        <time>2014-08-28T08:14:25Z</time>
      </trkpt>
      <trkpt lat="49.03267" lon="7.70833">
        <ele>237.58</ele>
        <time>2014-08-28T08:14:27Z</time>
      </trkpt>
      <trkpt lat="49.0327" lon="7.70814">
        <ele>237.58</ele>
        <time>2014-08-28T08:14:29Z</time>
      </trkpt>
      <trkpt lat="49.03272" lon="7.70796">
        <ele>237.58</ele>
        <time>2014-08-28T08:14:31Z</time>
      </trkpt>
      <trkpt lat="49.03274" lon="7.70778">
        <ele>237.58</ele>
        <time>2014-08-28T08:14:33Z</time>
      </trkpt>
      <trkpt lat="49.03276" lon="7.70761">
        <ele>237.58</ele>
        <time>2014-08-28T08:14:35Z</time>
      </trkpt>
      <trkpt lat="49.03278" lon="7.70744">
        <ele>238.06</ele>
        <time>2014-08-28T08:14:37Z</time>
      </trkpt>
      <trkpt lat="49.0328" lon="7.70727">
        <ele>237.58</ele>
        <time>2014-08-28T08:14:39Z</time>
      </trkpt>
      <trkpt lat="49.03283" lon="7.70709">
        <ele>237.58</ele>
        <time>2014-08-28T08:14:41Z</time>
      </trkpt>
      <trkpt lat="49.03286" lon="7.70691">
        <ele>237.1</ele>
        <time>2014-08-28T08:14:43Z</time>
      </trkpt>
      <trkpt lat="49.0329" lon="7.70675">
        <ele>236.62</ele>
        <time>2014-08-28T08:14:45Z</time>
      </trkpt>
      <trkpt lat="49.03294" lon="7.7066">
        <ele>236.14</ele>
        <time>2014-08-28T08:14:47Z</time>
      </trkpt>
      <trkpt lat="49.03298" lon="7.70646">
        <ele>236.62</ele>
        <time>2014-08-28T08:14:49Z</time>
      </trkpt>
      <trkpt lat="49.03304" lon="7.70632">
        <ele>237.1</ele>
        <time>2014-08-28T08:14:51Z</time>
      </trkpt>
      <trkpt lat="49.0331" lon="7.70616">
        <ele>237.1</ele>
        <time>2014-08-28T08:14:53Z</time>
      </trkpt>
      <trkpt lat="49.03318" lon="7.70601">
        <ele>237.1</ele>
        <time>2014-08-28T08:14:55Z</time>
      </trkpt>
      <trkpt lat="49.03325" lon="7.70585">
        <ele>236.62</ele>
        <time>2014-08-28T08:14:57Z</time>
      </trkpt>
      <trkpt lat="49.03333" lon="7.70571">
        <ele>236.62</ele>
        <time>2014-08-28T08:14:59Z</time>
      </trkpt>
      <trkpt lat="49.03341" lon="7.70556">
        <ele>236.14</ele>
        <time>2014-08-28T08:15:01Z</time>
      </trkpt>
      <trkpt lat="49.03349" lon="7.7054">
        <ele>235.18</ele>
        <time>2014-08-28T08:15:03Z</time>
      </trkpt>
      <trkpt lat="49.03357" lon="7.70523">
        <ele>234.7</ele>
        <time>2014-08-28T08:15:05Z</time>
      </trkpt>
      <trkpt lat="49.03364" lon="7.70506">
        <ele>234.7</ele>
        <time>2014-08-28T08:15:07Z</time>
      </trkpt>
      <trkpt lat="49.03371" lon="7.7049">
        <ele>234.22</ele>
        <time>2014-08-28T08:15:09Z</time>
      </trkpt>
      <trkpt lat="49.03376" lon="7.70475">
        <ele>234.22</ele>
        <time>2014-08-28T08:15:11Z</time>
      </trkpt>
      <trkpt lat="49.03382" lon="7.70459">
        <ele>234.7</ele>
        <time>2014-08-28T08:15:13Z</time>
      </trkpt>
      <trkpt lat="49.03389" lon="7.70446">
        <ele>235.18</ele>
        <time>2014-08-28T08:15:15Z</time>
      </trkpt>
      <trkpt lat="49.03399" lon="7.70441">
        <ele>235.66</ele>
        <time>2014-08-28T08:15:17Z</time>
      </trkpt>
      <trkpt lat="49.03408" lon="7.70437">
        <ele>236.14</ele>
        <time>2014-08-28T08:15:19Z</time>
      </trkpt>
      <trkpt lat="49.0342" lon="7.70432">
        <ele>235.66</ele>
        <time>2014-08-28T08:15:22Z</time>
      </trkpt>
      <trkpt lat="49.0343" lon="7.70429">
        <ele>236.14</ele>
        <time>2014-08-28T08:15:25Z</time>
      </trkpt>
      <trkpt lat="49.03439" lon="7.70428">
        <ele>235.66</ele>
        <time>2014-08-28T08:15:28Z</time>
      </trkpt>
      <trkpt lat="49.03451" lon="7.70427">
        <ele>236.14</ele>
        <time>2014-08-28T08:15:32Z</time>
      </trkpt>
      <trkpt lat="49.03461" lon="7.70428">
        <ele>236.62</ele>
        <time>2014-08-28T08:15:35Z</time>
      </trkpt>
      <trkpt lat="49.03471" lon="7.7043">
        <ele>238.06</ele>
        <time>2014-08-28T08:15:39Z</time>
      </trkpt>
      <trkpt lat="49.03483" lon="7.70432">
        <ele>239.51</ele>
        <time>2014-08-28T08:15:43Z</time>
      </trkpt>
      <trkpt lat="49.03494" lon="7.70433">
        <ele>240.47</ele>
        <time>2014-08-28T08:15:47Z</time>
      </trkpt>
      <trkpt lat="49.03506" lon="7.70434">
        <ele>240.47</ele>
        <time>2014-08-28T08:15:51Z</time>
      </trkpt>
      <trkpt lat="49.03519" lon="7.70434">
        <ele>239.99</ele>
        <time>2014-08-28T08:15:55Z</time>
      </trkpt>
      <trkpt lat="49.03531" lon="7.70434">
        <ele>240.47</ele>
        <time>2014-08-28T08:15:59Z</time>
      </trkpt>
      <trkpt lat="49.03543" lon="7.70437">
        <ele>241.91</ele>
        <time>2014-08-28T08:16:03Z</time>
      </trkpt>
      <trkpt lat="49.03555" lon="7.70438">
        <ele>241.43</ele>
        <time>2014-08-28T08:16:07Z</time>
      </trkpt>
      <trkpt lat="49.03569" lon="7.70441">
        <ele>241.91</ele>
        <time>2014-08-28T08:16:11Z</time>
      </trkpt>
      <trkpt lat="49.0358" lon="7.70442">
        <ele>241.91</ele>
        <time>2014-08-28T08:16:14Z</time>
      </trkpt>
      <trkpt lat="49.03589" lon="7.70443">
        <ele>241.91</ele>
        <time>2014-08-28T08:16:17Z</time>
      </trkpt>
      <trkpt lat="49.03599" lon="7.70445">
        <ele>241.91</ele>
        <time>2014-08-28T08:16:20Z</time>
      </trkpt>
      <trkpt lat="49.03609" lon="7.70446">
        <ele>241.91</ele>
        <time>2014-08-28T08:16:23Z</time>
      </trkpt>
      <trkpt lat="49.0362" lon="7.70447">
        <ele>241.91</ele>
        <time>2014-08-28T08:16:26Z</time>
      </trkpt>
      <trkpt lat="49.03635" lon="7.7045">
        <ele>242.87</ele>
        <time>2014-08-28T08:16:30Z</time>
      </trkpt>
      <trkpt lat="49.03646" lon="7.7045">
        <ele>243.35</ele>
        <time>2014-08-28T08:16:33Z</time>
      </trkpt>
      <trkpt lat="49.03655" lon="7.70449">
        <ele>242.87</ele>
        <time>2014-08-28T08:16:36Z</time>
      </trkpt>
      <trkpt lat="49.03665" lon="7.70447">
        <ele>242.87</ele>
        <time>2014-08-28T08:16:39Z</time>
      </trkpt>
      <trkpt lat="49.03676" lon="7.70446">
        <ele>242.87</ele>
        <time>2014-08-28T08:16:42Z</time>
      </trkpt>
      <trkpt lat="49.03686" lon="7.70444">
        <ele>243.83</ele>
        <time>2014-08-28T08:16:45Z</time>
      </trkpt>
      <trkpt lat="49.03696" lon="7.70442">
        <ele>245.75</ele>
        <time>2014-08-28T08:16:48Z</time>
      </trkpt>
      <trkpt lat="49.03706" lon="7.70439">
        <ele>246.72</ele>
        <time>2014-08-28T08:16:51Z</time>
      </trkpt>
      <trkpt lat="49.03716" lon="7.70436">
        <ele>246.23</ele>
        <time>2014-08-28T08:16:54Z</time>
      </trkpt>
      <trkpt lat="49.03725" lon="7.70431">
        <ele>245.75</ele>
        <time>2014-08-28T08:16:57Z</time>
      </trkpt>
      <trkpt lat="49.03736" lon="7.70427">
        <ele>245.27</ele>
        <time>2014-08-28T08:17:00Z</time>
      </trkpt>
      <trkpt lat="49.03746" lon="7.70423">
        <ele>244.79</ele>
        <time>2014-08-28T08:17:03Z</time>
      </trkpt>
      <trkpt lat="49.03755" lon="7.70418">
        <ele>244.79</ele>
        <time>2014-08-28T08:17:06Z</time>
      </trkpt>
      <trkpt lat="49.03765" lon="7.70416">
        <ele>244.31</ele>
        <time>2014-08-28T08:17:09Z</time>
      </trkpt>
      <trkpt lat="49.03777" lon="7.70417">
        <ele>243.83</ele>
        <time>2014-08-28T08:17:13Z</time>
      </trkpt>
      <trkpt lat="49.03788" lon="7.70422">
        <ele>243.83</ele>
        <time>2014-08-28T08:17:16Z</time>
      </trkpt>
      <trkpt lat="49.03801" lon="7.70429">
        <ele>242.87</ele>
        <time>2014-08-28T08:17:20Z</time>
      </trkpt>
      <trkpt lat="49.03812" lon="7.70436">
        <ele>241.43</ele>
        <time>2014-08-28T08:17:23Z</time>
      </trkpt>
      <trkpt lat="49.03822" lon="7.70443">
        <ele>239.99</ele>
        <time>2014-08-28T08:17:26Z</time>
      </trkpt>
      <trkpt lat="49.03832" lon="7.70449">
        <ele>239.02</ele>
        <time>2014-08-28T08:17:29Z</time>
      </trkpt>
      <trkpt lat="49.03841" lon="7.70456">
        <ele>238.06</ele>
        <time>2014-08-28T08:17:32Z</time>
      </trkpt>
      <trkpt lat="49.03851" lon="7.70462">
        <ele>237.58</ele>
        <time>2014-08-28T08:17:35Z</time>
      </trkpt>
      <trkpt lat="49.0386" lon="7.70469">
        <ele>238.54</ele>
        <time>2014-08-28T08:17:38Z</time>
      </trkpt>
      <trkpt lat="49.03869" lon="7.70478">
        <ele>240.95</ele>
        <time>2014-08-28T08:17:41Z</time>
      </trkpt>
      <trkpt lat="49.03879" lon="7.70487">
        <ele>242.39</ele>
        <time>2014-08-28T08:17:44Z</time>
      </trkpt>
      <trkpt lat="49.03887" lon="7.70499">
        <ele>245.75</ele>
        <time>2014-08-28T08:17:48Z</time>
      </trkpt>
      <trkpt lat="49.03897" lon="7.7051">
        <ele>250.56</ele>
        <time>2014-08-28T08:17:52Z</time>
      </trkpt>
      <trkpt lat="49.03908" lon="7.7052">
        <ele>254.41</ele>
        <time>2014-08-28T08:17:56Z</time>
      </trkpt>
      <trkpt lat="49.03917" lon="7.70522">
        <ele>258.73</ele>
        <time>2014-08-28T08:18:00Z</time>
      </trkpt>
      <trkpt lat="49.03922" lon="7.70513">
        <ele>261.62</ele>
        <time>2014-08-28T08:18:04Z</time>
      </trkpt>
      <trkpt lat="49.03917" lon="7.70499">
        <ele>264.5</ele>
        <time>2014-08-28T08:18:08Z</time>
      </trkpt>
      <trkpt lat="49.0391" lon="7.70485">
        <ele>268.35</ele>
        <time>2014-08-28T08:18:12Z</time>
      </trkpt>
      <trkpt lat="49.03904" lon="7.70471">
        <ele>270.75</ele>
        <time>2014-08-28T08:18:16Z</time>
      </trkpt>
      <trkpt lat="49.03896" lon="7.70458">
        <ele>274.11</ele>
        <time>2014-08-28T08:18:20Z</time>
      </trkpt>
      <trkpt lat="49.03889" lon="7.70446">
        <ele>277.48</ele>
        <time>2014-08-28T08:18:24Z</time>
      </trkpt>
      <trkpt lat="49.03881" lon="7.70436">
        <ele>278.92</ele>
        <time>2014-08-28T08:18:28Z</time>
      </trkpt>
      <trkpt lat="49.03873" lon="7.70428">
        <ele>280.84</ele>
        <time>2014-08-28T08:18:32Z</time>
      </trkpt>
      <trkpt lat="49.03865" lon="7.70419">
        <ele>282.77</ele>
        <time>2014-08-28T08:18:36Z</time>
      </trkpt>
      <trkpt lat="49.03855" lon="7.70406">
        <ele>285.65</ele>
        <time>2014-08-28T08:18:40Z</time>
      </trkpt>
      <trkpt lat="49.03847" lon="7.70394">
        <ele>288.05</ele>
        <time>2014-08-28T08:18:44Z</time>
      </trkpt>
      <trkpt lat="49.0384" lon="7.70378">
        <ele>290.94</ele>
        <time>2014-08-28T08:18:48Z</time>
      </trkpt>
      <trkpt lat="49.03835" lon="7.7036">
        <ele>293.34</ele>
        <time>2014-08-28T08:18:52Z</time>
      </trkpt>
      <trkpt lat="49.0383" lon="7.70342">
        <ele>294.78</ele>
        <time>2014-08-28T08:18:56Z</time>
      </trkpt>
      <trkpt lat="49.03825" lon="7.70324">
        <ele>295.26</ele>
        <time>2014-08-28T08:19:00Z</time>
      </trkpt>
      <trkpt lat="49.03818" lon="7.70306">
        <ele>295.26</ele>
        <time>2014-08-28T08:19:04Z</time>
      </trkpt>
      <trkpt lat="49.03813" lon="7.70287">
        <ele>295.74</ele>
        <time>2014-08-28T08:19:08Z</time>
      </trkpt>
      <trkpt lat="49.03811" lon="7.70272">
        <ele>296.22</ele>
        <time>2014-08-28T08:19:11Z</time>
      </trkpt>
      <trkpt lat="49.03809" lon="7.70254">
        <ele>295.74</ele>
        <time>2014-08-28T08:19:15Z</time>
      </trkpt>
      <trkpt lat="49.03808" lon="7.70237">
        <ele>295.26</ele>
        <time>2014-08-28T08:19:19Z</time>
      </trkpt>
      <trkpt lat="49.03811" lon="7.7022">
        <ele>295.74</ele>
        <time>2014-08-28T08:19:23Z</time>
      </trkpt>
      <trkpt lat="49.03814" lon="7.70205">
        <ele>296.7</ele>
        <time>2014-08-28T08:19:27Z</time>
      </trkpt>
      <trkpt lat="49.03817" lon="7.70191">
        <ele>297.67</ele>
        <time>2014-08-28T08:19:31Z</time>
      </trkpt>
      <trkpt lat="49.03822" lon="7.70172">
        <ele>299.59</ele>
        <time>2014-08-28T08:19:36Z</time>
      </trkpt>
      <trkpt lat="49.03828" lon="7.70155">
        <ele>299.59</ele>
        <time>2014-08-28T08:19:40Z</time>
      </trkpt>
      <trkpt lat="49.03832" lon="7.70141">
        <ele>300.07</ele>
        <time>2014-08-28T08:19:43Z</time>
      </trkpt>
      <trkpt lat="49.03837" lon="7.70124">
        <ele>301.51</ele>
        <time>2014-08-28T08:19:47Z</time>
      </trkpt>
      <trkpt lat="49.03842" lon="7.70107">
        <ele>302.95</ele>
        <time>2014-08-28T08:19:51Z</time>
      </trkpt>
      <trkpt lat="49.03848" lon="7.70094">
        <ele>305.36</ele>
        <time>2014-08-28T08:19:55Z</time>
      </trkpt>
      <trkpt lat="49.03855" lon="7.70081">
        <ele>308.24</ele>
        <time>2014-08-28T08:19:59Z</time>
      </trkpt>
      <trkpt lat="49.03862" lon="7.70069">
        <ele>312.09</ele>
        <time>2014-08-28T08:20:03Z</time>
      </trkpt>
      <trkpt lat="49.0387" lon="7.70057">
        <ele>314.97</ele>
        <time>2014-08-28T08:20:07Z</time>
      </trkpt>
      <trkpt lat="49.03878" lon="7.70049">
        <ele>317.37</ele>
        <time>2014-08-28T08:20:11Z</time>
      </trkpt>
      <trkpt lat="49.03888" lon="7.7004">
        <ele>318.81</ele>
        <time>2014-08-28T08:20:15Z</time>
      </trkpt>
      <trkpt lat="49.03899" lon="7.70032">
        <ele>320.26</ele>
        <time>2014-08-28T08:20:20Z</time>
      </trkpt>
      <trkpt lat="49.0391" lon="7.70023">
        <ele>323.14</ele>
        <time>2014-08-28T08:20:25Z</time>
      </trkpt>
      <trkpt lat="49.0392" lon="7.70015">
        <ele>326.02</ele>
        <time>2014-08-28T08:20:29Z</time>
      </trkpt>
      <trkpt lat="49.03933" lon="7.70005">
        <ele>328.43</ele>
        <time>2014-08-28T08:20:33Z</time>
      </trkpt>
      <trkpt lat="49.03944" lon="7.69999">
        <ele>330.35</ele>
        <time>2014-08-28T08:20:37Z</time>
      </trkpt>
      <trkpt lat="49.03957" lon="7.69991">
        <ele>331.79</ele>
        <time>2014-08-28T08:20:42Z</time>
      </trkpt>
      <trkpt lat="49.0397" lon="7.69991">
        <ele>333.71</ele>
        <time>2014-08-28T08:20:47Z</time>
      </trkpt>
      <trkpt lat="49.03984" lon="7.69989">
        <ele>334.68</ele>
        <time>2014-08-28T08:20:52Z</time>
      </trkpt>
      <trkpt lat="49.03996" lon="7.6999">
        <ele>334.68</ele>
        <time>2014-08-28T08:20:56Z</time>
      </trkpt>
      <trkpt lat="49.04009" lon="7.69993">
        <ele>334.68</ele>
        <time>2014-08-28T08:21:00Z</time>
      </trkpt>
      <trkpt lat="49.04021" lon="7.69993">
        <ele>334.2</ele>
        <time>2014-08-28T08:21:04Z</time>
      </trkpt>
      <trkpt lat="49.04034" lon="7.69996">
        <ele>333.71</ele>
        <time>2014-08-28T08:21:09Z</time>
      </trkpt>
      <trkpt lat="49.04045" lon="7.69999">
        <ele>332.75</ele>
        <time>2014-08-28T08:21:13Z</time>
      </trkpt>
      <trkpt lat="49.04056" lon="7.70005">
        <ele>333.23</ele>
        <time>2014-08-28T08:21:17Z</time>
      </trkpt>
      <trkpt lat="49.04068" lon="7.7001">
        <ele>333.71</ele>
        <time>2014-08-28T08:21:21Z</time>
      </trkpt>
      <trkpt lat="49.0408" lon="7.70015">
        <ele>334.68</ele>
        <time>2014-08-28T08:21:25Z</time>
      </trkpt>
      <trkpt lat="49.04091" lon="7.7002">
        <ele>336.12</ele>
        <time>2014-08-28T08:21:29Z</time>
      </trkpt>
      <trkpt lat="49.04099" lon="7.70029">
        <ele>337.08</ele>
        <time>2014-08-28T08:21:33Z</time>
      </trkpt>
      <trkpt lat="49.04093" lon="7.70026">
        <ele>339</ele>
        <time>2014-08-28T08:21:39Z</time>
      </trkpt>
      <trkpt lat="49.04085" lon="7.7002">
        <ele>339</ele>
        <time>2014-08-28T08:21:43Z</time>
      </trkpt>
      <trkpt lat="49.04077" lon="7.70015">
        <ele>339</ele>
        <time>2014-08-28T08:21:47Z</time>
      </trkpt>
      <trkpt lat="49.04069" lon="7.70011">
        <ele>340.44</ele>
        <time>2014-08-28T08:21:51Z</time>
      </trkpt>
      <trkpt lat="49.04058" lon="7.7001">
        <ele>342.37</ele>
        <time>2014-08-28T08:21:55Z</time>
      </trkpt>
      <trkpt lat="49.04047" lon="7.7001">
        <ele>343.33</ele>
        <time>2014-08-28T08:21:59Z</time>
      </trkpt>
      <trkpt lat="49.04036" lon="7.70011">
        <ele>344.29</ele>
        <time>2014-08-28T08:22:03Z</time>
      </trkpt>
      <trkpt lat="49.04025" lon="7.70012">
        <ele>345.73</ele>
        <time>2014-08-28T08:22:07Z</time>
      </trkpt>
      <trkpt lat="49.04013" lon="7.70014">
        <ele>347.17</ele>
        <time>2014-08-28T08:22:11Z</time>
      </trkpt>
      <trkpt lat="49.04001" lon="7.7002">
        <ele>348.62</ele>
        <time>2014-08-28T08:22:15Z</time>
      </trkpt>
      <trkpt lat="49.03991" lon="7.70027">
        <ele>350.06</ele>
        <time>2014-08-28T08:22:19Z</time>
      </trkpt>
      <trkpt lat="49.03982" lon="7.70035">
        <ele>351.5</ele>
        <time>2014-08-28T08:22:23Z</time>
      </trkpt>
      <trkpt lat="49.03974" lon="7.70045">
        <ele>352.94</ele>
        <time>2014-08-28T08:22:27Z</time>
      </trkpt>
      <trkpt lat="49.03962" lon="7.70059">
        <ele>353.9</ele>
        <time>2014-08-28T08:22:32Z</time>
      </trkpt>
      <trkpt lat="49.03955" lon="7.70075">
        <ele>353.9</ele>
        <time>2014-08-28T08:22:36Z</time>
      </trkpt>
      <trkpt lat="49.03948" lon="7.70092">
        <ele>353.9</ele>
        <time>2014-08-28T08:22:40Z</time>
      </trkpt>
      <trkpt lat="49.03945" lon="7.70109">
        <ele>355.34</ele>
        <time>2014-08-28T08:22:44Z</time>
      </trkpt>
      <trkpt lat="49.03943" lon="7.70128">
        <ele>355.83</ele>
        <time>2014-08-28T08:22:48Z</time>
      </trkpt>
      <trkpt lat="49.03944" lon="7.70145">
        <ele>356.79</ele>
        <time>2014-08-28T08:22:52Z</time>
      </trkpt>
      <trkpt lat="49.03946" lon="7.70161">
        <ele>357.75</ele>
        <time>2014-08-28T08:22:56Z</time>
      </trkpt>
      <trkpt lat="49.03947" lon="7.70171">
        <ele>359.19</ele>
        <time>2014-08-28T08:23:14Z</time>
      </trkpt>
      <trkpt lat="49.0395" lon="7.70195">
        <ele>347.65</ele>
        <time>2014-08-28T08:24:41Z</time>
      </trkpt>
      <trkpt lat="49.03954" lon="7.70209">
        <ele>347.17</ele>
        <time>2014-08-28T08:24:47Z</time>
      </trkpt>
      <trkpt lat="49.03959" lon="7.70224">
        <ele>348.13</ele>
        <time>2014-08-28T08:24:53Z</time>
      </trkpt>
      <trkpt lat="49.03966" lon="7.70237">
        <ele>349.1</ele>
        <time>2014-08-28T08:24:59Z</time>
      </trkpt>
      <trkpt lat="49.03975" lon="7.7025">
        <ele>351.98</ele>
        <time>2014-08-28T08:25:05Z</time>
      </trkpt>
      <trkpt lat="49.03983" lon="7.70259">
        <ele>352.94</ele>
        <time>2014-08-28T08:25:10Z</time>
      </trkpt>
      <trkpt lat="49.0399" lon="7.70269">
        <ele>352.94</ele>
        <time>2014-08-28T08:25:14Z</time>
      </trkpt>
      <trkpt lat="49.03998" lon="7.70283">
        <ele>353.9</ele>
        <time>2014-08-28T08:25:19Z</time>
      </trkpt>
      <trkpt lat="49.04006" lon="7.70294">
        <ele>356.79</ele>
        <time>2014-08-28T08:25:24Z</time>
      </trkpt>
      <trkpt lat="49.04017" lon="7.70305">
        <ele>360.15</ele>
        <time>2014-08-28T08:25:29Z</time>
      </trkpt>
      <trkpt lat="49.04026" lon="7.70318">
        <ele>363.52</ele>
        <time>2014-08-28T08:25:35Z</time>
      </trkpt>
      <trkpt lat="49.04036" lon="7.70329">
        <ele>367.84</ele>
        <time>2014-08-28T08:25:40Z</time>
      </trkpt>
      <trkpt lat="49.04045" lon="7.70342">
        <ele>371.21</ele>
        <time>2014-08-28T08:25:46Z</time>
      </trkpt>
      <trkpt lat="49.04057" lon="7.70353">
        <ele>374.09</ele>
        <time>2014-08-28T08:25:51Z</time>
      </trkpt>
      <trkpt lat="49.04067" lon="7.70361">
        <ele>376.49</ele>
        <time>2014-08-28T08:25:55Z</time>
      </trkpt>
      <trkpt lat="49.04076" lon="7.70372">
        <ele>377.94</ele>
        <time>2014-08-28T08:26:00Z</time>
      </trkpt>
      <trkpt lat="49.04086" lon="7.70382">
        <ele>378.9</ele>
        <time>2014-08-28T08:26:05Z</time>
      </trkpt>
      <trkpt lat="49.04094" lon="7.70393">
        <ele>380.82</ele>
        <time>2014-08-28T08:26:10Z</time>
      </trkpt>
      <trkpt lat="49.04104" lon="7.70403">
        <ele>382.74</ele>
        <time>2014-08-28T08:26:15Z</time>
      </trkpt>
      <trkpt lat="49.04116" lon="7.70415">
        <ele>382.26</ele>
        <time>2014-08-28T08:26:20Z</time>
      </trkpt>
      <trkpt lat="49.04126" lon="7.70425">
        <ele>382.74</ele>
        <time>2014-08-28T08:26:24Z</time>
      </trkpt>
      <trkpt lat="49.04135" lon="7.70434">
        <ele>383.7</ele>
        <time>2014-08-28T08:26:28Z</time>
      </trkpt>
      <trkpt lat="49.04146" lon="7.70442">
        <ele>384.18</ele>
        <time>2014-08-28T08:26:32Z</time>
      </trkpt>
      <trkpt lat="49.04155" lon="7.70452">
        <ele>384.66</ele>
        <time>2014-08-28T08:26:36Z</time>
      </trkpt>
      <trkpt lat="49.04163" lon="7.70461">
        <ele>385.63</ele>
        <time>2014-08-28T08:26:40Z</time>
      </trkpt>
      <trkpt lat="49.04173" lon="7.70473">
        <ele>387.55</ele>
        <time>2014-08-28T08:26:45Z</time>
      </trkpt>
      <trkpt lat="49.04182" lon="7.70484">
        <ele>390.91</ele>
        <time>2014-08-28T08:26:50Z</time>
      </trkpt>
      <trkpt lat="49.04189" lon="7.70495">
        <ele>392.84</ele>
        <time>2014-08-28T08:26:54Z</time>
      </trkpt>
      <trkpt lat="49.04197" lon="7.70505">
        <ele>393.8</ele>
        <time>2014-08-28T08:26:58Z</time>
      </trkpt>
      <trkpt lat="49.04205" lon="7.70515">
        <ele>394.28</ele>
        <time>2014-08-28T08:27:02Z</time>
      </trkpt>
      <trkpt lat="49.04215" lon="7.70526">
        <ele>395.72</ele>
        <time>2014-08-28T08:27:07Z</time>
      </trkpt>
      <trkpt lat="49.04224" lon="7.7054">
        <ele>396.2</ele>
        <time>2014-08-28T08:27:12Z</time>
      </trkpt>
      <trkpt lat="49.04231" lon="7.70552">
        <ele>396.2</ele>
        <time>2014-08-28T08:27:16Z</time>
      </trkpt>
      <trkpt lat="49.04238" lon="7.70564">
        <ele>395.72</ele>
        <time>2014-08-28T08:27:20Z</time>
      </trkpt>
      <trkpt lat="49.04243" lon="7.70576">
        <ele>396.68</ele>
        <time>2014-08-28T08:27:24Z</time>
      </trkpt>
      <trkpt lat="49.04248" lon="7.70588">
        <ele>397.64</ele>
        <time>2014-08-28T08:27:28Z</time>
      </trkpt>
      <trkpt lat="49.04254" lon="7.706">
        <ele>399.08</ele>
        <time>2014-08-28T08:27:32Z</time>
      </trkpt>
      <trkpt lat="49.0426" lon="7.70612">
        <ele>400.53</ele>
        <time>2014-08-28T08:27:36Z</time>
      </trkpt>
      <trkpt lat="49.04268" lon="7.70626">
        <ele>402.45</ele>
        <time>2014-08-28T08:27:41Z</time>
      </trkpt>
      <trkpt lat="49.04275" lon="7.70638">
        <ele>403.41</ele>
        <time>2014-08-28T08:27:45Z</time>
      </trkpt>
      <trkpt lat="49.04282" lon="7.70649">
        <ele>404.37</ele>
        <time>2014-08-28T08:27:49Z</time>
      </trkpt>
      <trkpt lat="49.04291" lon="7.70662">
        <ele>404.85</ele>
        <time>2014-08-28T08:27:54Z</time>
      </trkpt>
      <trkpt lat="49.043" lon="7.70675">
        <ele>405.81</ele>
        <time>2014-08-28T08:27:59Z</time>
      </trkpt>
      <trkpt lat="49.04309" lon="7.70686">
        <ele>406.29</ele>
        <time>2014-08-28T08:28:03Z</time>
      </trkpt>
      <trkpt lat="49.04318" lon="7.70695">
        <ele>406.77</ele>
        <time>2014-08-28T08:28:07Z</time>
      </trkpt>
      <trkpt lat="49.04326" lon="7.70704">
        <ele>407.26</ele>
        <time>2014-08-28T08:28:11Z</time>
      </trkpt>
      <trkpt lat="49.04334" lon="7.70714">
        <ele>407.26</ele>
        <time>2014-08-28T08:28:15Z</time>
      </trkpt>
      <trkpt lat="49.04341" lon="7.70724">
        <ele>407.26</ele>
        <time>2014-08-28T08:28:19Z</time>
      </trkpt>
      <trkpt lat="49.0435" lon="7.70733">
        <ele>407.26</ele>
        <time>2014-08-28T08:28:23Z</time>
      </trkpt>
      <trkpt lat="49.04359" lon="7.70745">
        <ele>407.26</ele>
        <time>2014-08-28T08:28:28Z</time>
      </trkpt>
      <trkpt lat="49.04367" lon="7.70758">
        <ele>408.22</ele>
        <time>2014-08-28T08:28:33Z</time>
      </trkpt>
      <trkpt lat="49.04375" lon="7.70767">
        <ele>408.22</ele>
        <time>2014-08-28T08:28:37Z</time>
      </trkpt>
      <trkpt lat="49.04382" lon="7.70778">
        <ele>408.7</ele>
        <time>2014-08-28T08:28:41Z</time>
      </trkpt>
      <trkpt lat="49.0439" lon="7.70789">
        <ele>409.18</ele>
        <time>2014-08-28T08:28:46Z</time>
      </trkpt>
      <trkpt lat="49.04399" lon="7.70798">
        <ele>410.62</ele>
        <time>2014-08-28T08:28:51Z</time>
      </trkpt>
      <trkpt lat="49.0441" lon="7.70801">
        <ele>412.54</ele>
        <time>2014-08-28T08:28:57Z</time>
      </trkpt>
      <trkpt lat="49.0442" lon="7.70799">
        <ele>413.5</ele>
        <time>2014-08-28T08:29:01Z</time>
      </trkpt>
      <trkpt lat="49.04432" lon="7.70793">
        <ele>413.5</ele>
        <time>2014-08-28T08:29:05Z</time>
      </trkpt>
      <trkpt lat="49.04442" lon="7.70785">
        <ele>413.02</ele>
        <time>2014-08-28T08:29:08Z</time>
      </trkpt>
      <trkpt lat="49.04452" lon="7.70777">
        <ele>413.5</ele>
        <time>2014-08-28T08:29:11Z</time>
      </trkpt>
      <trkpt lat="49.04462" lon="7.7077">
        <ele>413.5</ele>
        <time>2014-08-28T08:29:14Z</time>
      </trkpt>
      <trkpt lat="49.04472" lon="7.70762">
        <ele>413.98</ele>
        <time>2014-08-28T08:29:17Z</time>
      </trkpt>
      <trkpt lat="49.04485" lon="7.70753">
        <ele>415.43</ele>
        <time>2014-08-28T08:29:20Z</time>
      </trkpt>
      <trkpt lat="49.04495" lon="7.70745">
        <ele>415.43</ele>
        <time>2014-08-28T08:29:22Z</time>
      </trkpt>
      <trkpt lat="49.04506" lon="7.70737">
        <ele>413.5</ele>
        <time>2014-08-28T08:29:24Z</time>
      </trkpt>
      <trkpt lat="49.04519" lon="7.70726">
        <ele>410.14</ele>
        <time>2014-08-28T08:29:26Z</time>
      </trkpt>
      <trkpt lat="49.04529" lon="7.70709">
        <ele>406.77</ele>
        <time>2014-08-28T08:29:28Z</time>
      </trkpt>
      <trkpt lat="49.04539" lon="7.70686">
        <ele>403.41</ele>
        <time>2014-08-28T08:29:30Z</time>
      </trkpt>
      <trkpt lat="49.04548" lon="7.70663">
        <ele>400.53</ele>
        <time>2014-08-28T08:29:32Z</time>
      </trkpt>
      <trkpt lat="49.04558" lon="7.70643">
        <ele>398.6</ele>
        <time>2014-08-28T08:29:34Z</time>
      </trkpt>
      <trkpt lat="49.04567" lon="7.70626">
        <ele>397.16</ele>
        <time>2014-08-28T08:29:36Z</time>
      </trkpt>
      <trkpt lat="49.04573" lon="7.70612">
        <ele>396.2</ele>
        <time>2014-08-28T08:29:38Z</time>
      </trkpt>
      <trkpt lat="49.04581" lon="7.70601">
        <ele>394.76</ele>
        <time>2014-08-28T08:29:41Z</time>
      </trkpt>
      <trkpt lat="49.04588" lon="7.7061">
        <ele>393.32</ele>
        <time>2014-08-28T08:29:44Z</time>
      </trkpt>
      <trkpt lat="49.04585" lon="7.70621">
        <ele>392.84</ele>
        <time>2014-08-28T08:29:46Z</time>
      </trkpt>
      <trkpt lat="49.04579" lon="7.70635">
        <ele>392.36</ele>
        <time>2014-08-28T08:29:48Z</time>
      </trkpt>
      <trkpt lat="49.04572" lon="7.70653">
        <ele>391.39</ele>
        <time>2014-08-28T08:29:50Z</time>
      </trkpt>
      <trkpt lat="49.04565" lon="7.70671">
        <ele>390.91</ele>
        <time>2014-08-28T08:29:52Z</time>
      </trkpt>
      <trkpt lat="49.0456" lon="7.70689">
        <ele>389.95</ele>
        <time>2014-08-28T08:29:54Z</time>
      </trkpt>
      <trkpt lat="49.04555" lon="7.70708">
        <ele>388.99</ele>
        <time>2014-08-28T08:29:56Z</time>
      </trkpt>
      <trkpt lat="49.04548" lon="7.70725">
        <ele>387.55</ele>
        <time>2014-08-28T08:29:58Z</time>
      </trkpt>
      <trkpt lat="49.04539" lon="7.70741">
        <ele>386.11</ele>
        <time>2014-08-28T08:30:00Z</time>
      </trkpt>
      <trkpt lat="49.04528" lon="7.70754">
        <ele>384.18</ele>
        <time>2014-08-28T08:30:02Z</time>
      </trkpt>
      <trkpt lat="49.04517" lon="7.7077">
        <ele>383.22</ele>
        <time>2014-08-28T08:30:04Z</time>
      </trkpt>
      <trkpt lat="49.04507" lon="7.70787">
        <ele>381.78</ele>
        <time>2014-08-28T08:30:06Z</time>
      </trkpt>
      <trkpt lat="49.04497" lon="7.70809">
        <ele>380.82</ele>
        <time>2014-08-28T08:30:08Z</time>
      </trkpt>
      <trkpt lat="49.04493" lon="7.70822">
        <ele>379.86</ele>
        <time>2014-08-28T08:30:09Z</time>
      </trkpt>
      <trkpt lat="49.04486" lon="7.70847">
        <ele>378.42</ele>
        <time>2014-08-28T08:30:11Z</time>
      </trkpt>
      <trkpt lat="49.0448" lon="7.70872">
        <ele>376.97</ele>
        <time>2014-08-28T08:30:13Z</time>
      </trkpt>
      <trkpt lat="49.04477" lon="7.70885">
        <ele>376.01</ele>
        <time>2014-08-28T08:30:14Z</time>
      </trkpt>
      <trkpt lat="49.04472" lon="7.70914">
        <ele>374.57</ele>
        <time>2014-08-28T08:30:16Z</time>
      </trkpt>
      <trkpt lat="49.04471" lon="7.70929">
        <ele>373.61</ele>
        <time>2014-08-28T08:30:17Z</time>
      </trkpt>
      <trkpt lat="49.0447" lon="7.70945">
        <ele>373.13</ele>
        <time>2014-08-28T08:30:18Z</time>
      </trkpt>
      <trkpt lat="49.04472" lon="7.70962">
        <ele>372.65</ele>
        <time>2014-08-28T08:30:19Z</time>
      </trkpt>
      <trkpt lat="49.04474" lon="7.70979">
        <ele>371.69</ele>
        <time>2014-08-28T08:30:20Z</time>
      </trkpt>
      <trkpt lat="49.04475" lon="7.70996">
        <ele>371.21</ele>
        <time>2014-08-28T08:30:21Z</time>
      </trkpt>
      <trkpt lat="49.04475" lon="7.71012">
        <ele>370.73</ele>
        <time>2014-08-28T08:30:22Z</time>
      </trkpt>
      <trkpt lat="49.04476" lon="7.71028">
        <ele>370.24</ele>
        <time>2014-08-28T08:30:23Z</time>
      </trkpt>
      <trkpt lat="49.04476" lon="7.71045">
        <ele>369.76</ele>
        <time>2014-08-28T08:30:24Z</time>
      </trkpt>
      <trkpt lat="49.04475" lon="7.71061">
        <ele>368.8</ele>
        <time>2014-08-28T08:30:25Z</time>
      </trkpt>
      <trkpt lat="49.04476" lon="7.71077">
        <ele>368.32</ele>
        <time>2014-08-28T08:30:26Z</time>
      </trkpt>
      <trkpt lat="49.04476" lon="7.71094">
        <ele>367.36</ele>
        <time>2014-08-28T08:30:27Z</time>
      </trkpt>
      <trkpt lat="49.04477" lon="7.7111">
        <ele>366.88</ele>
        <time>2014-08-28T08:30:28Z</time>
      </trkpt>
      <trkpt lat="49.04479" lon="7.71126">
        <ele>365.92</ele>
        <time>2014-08-28T08:30:29Z</time>
      </trkpt>
      <trkpt lat="49.04481" lon="7.71143">
        <ele>365.44</ele>
        <time>2014-08-28T08:30:30Z</time>
      </trkpt>
      <trkpt lat="49.04483" lon="7.71159">
        <ele>364.48</ele>
        <time>2014-08-28T08:30:31Z</time>
      </trkpt>
      <trkpt lat="49.04486" lon="7.71175">
        <ele>363.52</ele>
        <time>2014-08-28T08:30:32Z</time>
      </trkpt>
      <trkpt lat="49.04488" lon="7.71191">
        <ele>362.55</ele>
        <time>2014-08-28T08:30:33Z</time>
      </trkpt>
      <trkpt lat="49.04489" lon="7.71208">
        <ele>361.59</ele>
        <time>2014-08-28T08:30:34Z</time>
      </trkpt>
      <trkpt lat="49.0449" lon="7.71225">
        <ele>360.63</ele>
        <time>2014-08-28T08:30:35Z</time>
      </trkpt>
      <trkpt lat="49.04491" lon="7.71242">
        <ele>360.15</ele>
        <time>2014-08-28T08:30:36Z</time>
      </trkpt>
      <trkpt lat="49.04492" lon="7.7126">
        <ele>359.19</ele>
        <time>2014-08-28T08:30:37Z</time>
      </trkpt>
      <trkpt lat="49.04492" lon="7.71277">
        <ele>358.23</ele>
        <time>2014-08-28T08:30:38Z</time>
      </trkpt>
      <trkpt lat="49.04492" lon="7.71295">
        <ele>357.27</ele>
        <time>2014-08-28T08:30:39Z</time>
      </trkpt>
      <trkpt lat="49.04493" lon="7.71312">
        <ele>356.79</ele>
        <time>2014-08-28T08:30:40Z</time>
      </trkpt>
      <trkpt lat="49.04494" lon="7.7133">
        <ele>355.83</ele>
        <time>2014-08-28T08:30:41Z</time>
      </trkpt>
      <trkpt lat="49.04495" lon="7.71347">
        <ele>354.86</ele>
        <time>2014-08-28T08:30:42Z</time>
      </trkpt>
      <trkpt lat="49.04496" lon="7.71365">
        <ele>353.9</ele>
        <time>2014-08-28T08:30:43Z</time>
      </trkpt>
      <trkpt lat="49.04498" lon="7.71383">
        <ele>352.94</ele>
        <time>2014-08-28T08:30:44Z</time>
      </trkpt>
      <trkpt lat="49.04499" lon="7.714">
        <ele>352.46</ele>
        <time>2014-08-28T08:30:45Z</time>
      </trkpt>
      <trkpt lat="49.04501" lon="7.71418">
        <ele>351.5</ele>
        <time>2014-08-28T08:30:46Z</time>
      </trkpt>
      <trkpt lat="49.04503" lon="7.71435">
        <ele>350.54</ele>
        <time>2014-08-28T08:30:47Z</time>
      </trkpt>
      <trkpt lat="49.04505" lon="7.71452">
        <ele>349.58</ele>
        <time>2014-08-28T08:30:48Z</time>
      </trkpt>
      <trkpt lat="49.04507" lon="7.71467">
        <ele>349.1</ele>
        <time>2014-08-28T08:30:49Z</time>
      </trkpt>
      <trkpt lat="49.04511" lon="7.71483">
        <ele>348.13</ele>
        <time>2014-08-28T08:30:50Z</time>
      </trkpt>
      <trkpt lat="49.04514" lon="7.71498">
        <ele>347.65</ele>
        <time>2014-08-28T08:30:51Z</time>
      </trkpt>
      <trkpt lat="49.04519" lon="7.71512">
        <ele>346.69</ele>
        <time>2014-08-28T08:30:52Z</time>
      </trkpt>
      <trkpt lat="49.04524" lon="7.71527">
        <ele>346.21</ele>
        <time>2014-08-28T08:30:53Z</time>
      </trkpt>
      <trkpt lat="49.04528" lon="7.71542">
        <ele>345.25</ele>
        <time>2014-08-28T08:30:54Z</time>
      </trkpt>
      <trkpt lat="49.04533" lon="7.71558">
        <ele>344.77</ele>
        <time>2014-08-28T08:30:55Z</time>
      </trkpt>
      <trkpt lat="49.04537" lon="7.71574">
        <ele>343.81</ele>
        <time>2014-08-28T08:30:56Z</time>
      </trkpt>
      <trkpt lat="49.04541" lon="7.71589">
        <ele>343.33</ele>
        <time>2014-08-28T08:30:57Z</time>
      </trkpt>
      <trkpt lat="49.04544" lon="7.71604">
        <ele>342.37</ele>
        <time>2014-08-28T08:30:58Z</time>
      </trkpt>
      <trkpt lat="49.04547" lon="7.71619">
        <ele>341.89</ele>
        <time>2014-08-28T08:30:59Z</time>
      </trkpt>
      <trkpt lat="49.0455" lon="7.71632">
        <ele>341.41</ele>
        <time>2014-08-28T08:31:00Z</time>
      </trkpt>
      <trkpt lat="49.04554" lon="7.71659">
        <ele>339.96</ele>
        <time>2014-08-28T08:31:02Z</time>
      </trkpt>
      <trkpt lat="49.04557" lon="7.71682">
        <ele>338.52</ele>
        <time>2014-08-28T08:31:04Z</time>
      </trkpt>
      <trkpt lat="49.04559" lon="7.71701">
        <ele>337.08</ele>
        <time>2014-08-28T08:31:06Z</time>
      </trkpt>
      <trkpt lat="49.04562" lon="7.71714">
        <ele>335.64</ele>
        <time>2014-08-28T08:31:08Z</time>
      </trkpt>
      <trkpt lat="49.04572" lon="7.71711">
        <ele>336.12</ele>
        <time>2014-08-28T08:31:11Z</time>
      </trkpt>
      <trkpt lat="49.04573" lon="7.71695">
        <ele>336.12</ele>
        <time>2014-08-28T08:31:13Z</time>
      </trkpt>
      <trkpt lat="49.04572" lon="7.71679">
        <ele>335.16</ele>
        <time>2014-08-28T08:31:15Z</time>
      </trkpt>
      <trkpt lat="49.04572" lon="7.7166">
        <ele>334.2</ele>
        <time>2014-08-28T08:31:17Z</time>
      </trkpt>
      <trkpt lat="49.04572" lon="7.71639">
        <ele>333.71</ele>
        <time>2014-08-28T08:31:19Z</time>
      </trkpt>
      <trkpt lat="49.04572" lon="7.71616">
        <ele>332.75</ele>
        <time>2014-08-28T08:31:21Z</time>
      </trkpt>
      <trkpt lat="49.0457" lon="7.71593">
        <ele>332.27</ele>
        <time>2014-08-28T08:31:23Z</time>
      </trkpt>
      <trkpt lat="49.04568" lon="7.71569">
        <ele>331.31</ele>
        <time>2014-08-28T08:31:25Z</time>
      </trkpt>
      <trkpt lat="49.04566" lon="7.71544">
        <ele>329.87</ele>
        <time>2014-08-28T08:31:27Z</time>
      </trkpt>
      <trkpt lat="49.04564" lon="7.71517">
        <ele>328.91</ele>
        <time>2014-08-28T08:31:29Z</time>
      </trkpt>
      <trkpt lat="49.04561" lon="7.7149">
        <ele>327.47</ele>
        <time>2014-08-28T08:31:31Z</time>
      </trkpt>
      <trkpt lat="49.04559" lon="7.71461">
        <ele>326.02</ele>
        <time>2014-08-28T08:31:33Z</time>
      </trkpt>
      <trkpt lat="49.04558" lon="7.71447">
        <ele>325.06</ele>
        <time>2014-08-28T08:31:34Z</time>
      </trkpt>
      <trkpt lat="49.04558" lon="7.7142">
        <ele>323.14</ele>
        <time>2014-08-28T08:31:36Z</time>
      </trkpt>
      <trkpt lat="49.04559" lon="7.71395">
        <ele>321.7</ele>
        <time>2014-08-28T08:31:38Z</time>
      </trkpt>
      <trkpt lat="49.04559" lon="7.71372">
        <ele>319.78</ele>
        <time>2014-08-28T08:31:40Z</time>
      </trkpt>
      <trkpt lat="49.04558" lon="7.71352">
        <ele>318.33</ele>
        <time>2014-08-28T08:31:42Z</time>
      </trkpt>
      <trkpt lat="49.04559" lon="7.71336">
        <ele>316.89</ele>
        <time>2014-08-28T08:31:44Z</time>
      </trkpt>
      <trkpt lat="49.04567" lon="7.71331">
        <ele>315.45</ele>
        <time>2014-08-28T08:31:47Z</time>
      </trkpt>
      <trkpt lat="49.04566" lon="7.71347">
        <ele>313.53</ele>
        <time>2014-08-28T08:31:50Z</time>
      </trkpt>
      <trkpt lat="49.04564" lon="7.7136">
        <ele>312.57</ele>
        <time>2014-08-28T08:31:52Z</time>
      </trkpt>
      <trkpt lat="49.04564" lon="7.71375">
        <ele>311.6</ele>
        <time>2014-08-28T08:31:54Z</time>
      </trkpt>
      <trkpt lat="49.04565" lon="7.71393">
        <ele>310.64</ele>
        <time>2014-08-28T08:31:56Z</time>
      </trkpt>
      <trkpt lat="49.04567" lon="7.71414">
        <ele>309.68</ele>
        <time>2014-08-28T08:31:58Z</time>
      </trkpt>
      <trkpt lat="49.04569" lon="7.71436">
        <ele>308.72</ele>
        <time>2014-08-28T08:32:00Z</time>
      </trkpt>
      <trkpt lat="49.04573" lon="7.71459">
        <ele>307.76</ele>
        <time>2014-08-28T08:32:02Z</time>
      </trkpt>
      <trkpt lat="49.04582" lon="7.71481">
        <ele>306.8</ele>
        <time>2014-08-28T08:32:04Z</time>
      </trkpt>
      <trkpt lat="49.04593" lon="7.715">
        <ele>305.84</ele>
        <time>2014-08-28T08:32:06Z</time>
      </trkpt>
      <trkpt lat="49.04607" lon="7.7152">
        <ele>304.39</ele>
        <time>2014-08-28T08:32:08Z</time>
      </trkpt>
      <trkpt lat="49.04619" lon="7.71538">
        <ele>302.95</ele>
        <time>2014-08-28T08:32:10Z</time>
      </trkpt>
      <trkpt lat="49.04631" lon="7.71559">
        <ele>301.51</ele>
        <time>2014-08-28T08:32:12Z</time>
      </trkpt>
      <trkpt lat="49.04637" lon="7.71571">
        <ele>300.55</ele>
        <time>2014-08-28T08:32:13Z</time>
      </trkpt>
      <trkpt lat="49.04642" lon="7.71584">
        <ele>299.59</ele>
        <time>2014-08-28T08:32:14Z</time>
      </trkpt>
      <trkpt lat="49.04647" lon="7.71597">
        <ele>299.11</ele>
        <time>2014-08-28T08:32:15Z</time>
      </trkpt>
      <trkpt lat="49.04652" lon="7.71611">
        <ele>298.15</ele>
        <time>2014-08-28T08:32:16Z</time>
      </trkpt>
      <trkpt lat="49.04657" lon="7.71625">
        <ele>297.18</ele>
        <time>2014-08-28T08:32:17Z</time>
      </trkpt>
      <trkpt lat="49.04662" lon="7.71639">
        <ele>296.22</ele>
        <time>2014-08-28T08:32:18Z</time>
      </trkpt>
      <trkpt lat="49.04667" lon="7.71653">
        <ele>295.74</ele>
        <time>2014-08-28T08:32:19Z</time>
      </trkpt>
      <trkpt lat="49.04672" lon="7.71667">
        <ele>294.78</ele>
        <time>2014-08-28T08:32:20Z</time>
      </trkpt>
      <trkpt lat="49.04677" lon="7.7168">
        <ele>293.82</ele>
        <time>2014-08-28T08:32:21Z</time>
      </trkpt>
      <trkpt lat="49.04682" lon="7.71694">
        <ele>293.34</ele>
        <time>2014-08-28T08:32:22Z</time>
      </trkpt>
      <trkpt lat="49.04688" lon="7.71708">
        <ele>292.38</ele>
        <time>2014-08-28T08:32:23Z</time>
      </trkpt>
      <trkpt lat="49.04693" lon="7.71723">
        <ele>291.42</ele>
        <time>2014-08-28T08:32:24Z</time>
      </trkpt>
      <trkpt lat="49.04699" lon="7.71737">
        <ele>290.46</ele>
        <time>2014-08-28T08:32:25Z</time>
      </trkpt>
      <trkpt lat="49.04705" lon="7.71751">
        <ele>289.49</ele>
        <time>2014-08-28T08:32:26Z</time>
      </trkpt>
      <trkpt lat="49.04711" lon="7.71766">
        <ele>288.05</ele>
        <time>2014-08-28T08:32:27Z</time>
      </trkpt>
      <trkpt lat="49.04717" lon="7.71781">
        <ele>287.09</ele>
        <time>2014-08-28T08:32:28Z</time>
      </trkpt>
      <trkpt lat="49.04723" lon="7.71797">
        <ele>286.13</ele>
        <time>2014-08-28T08:32:29Z</time>
      </trkpt>
      <trkpt lat="49.04729" lon="7.71812">
        <ele>284.69</ele>
        <time>2014-08-28T08:32:30Z</time>
      </trkpt>
      <trkpt lat="49.04735" lon="7.71828">
        <ele>283.25</ele>
        <time>2014-08-28T08:32:31Z</time>
      </trkpt>
      <trkpt lat="49.04741" lon="7.71844">
        <ele>282.28</ele>
        <time>2014-08-28T08:32:32Z</time>
      </trkpt>
      <trkpt lat="49.04747" lon="7.71859">
        <ele>281.32</ele>
        <time>2014-08-28T08:32:33Z</time>
      </trkpt>
      <trkpt lat="49.04753" lon="7.71874">
        <ele>280.36</ele>
        <time>2014-08-28T08:32:34Z</time>
      </trkpt>
      <trkpt lat="49.04759" lon="7.71888">
        <ele>279.4</ele>
        <time>2014-08-28T08:32:35Z</time>
      </trkpt>
      <trkpt lat="49.04765" lon="7.71901">
        <ele>278.44</ele>
        <time>2014-08-28T08:32:36Z</time>
      </trkpt>
      <trkpt lat="49.0477" lon="7.71913">
        <ele>277.96</ele>
        <time>2014-08-28T08:32:37Z</time>
      </trkpt>
      <trkpt lat="49.04777" lon="7.71923">
        <ele>277.48</ele>
        <time>2014-08-28T08:32:38Z</time>
      </trkpt>
      <trkpt lat="49.04791" lon="7.71942">
        <ele>277</ele>
        <time>2014-08-28T08:32:40Z</time>
      </trkpt>
      <trkpt lat="49.04806" lon="7.71953">
        <ele>277</ele>
        <time>2014-08-28T08:32:42Z</time>
      </trkpt>
      <trkpt lat="49.04818" lon="7.71959">
        <ele>276.52</ele>
        <time>2014-08-28T08:32:44Z</time>
      </trkpt>
      <trkpt lat="49.04828" lon="7.71961">
        <ele>276.52</ele>
        <time>2014-08-28T08:32:46Z</time>
      </trkpt>
      <trkpt lat="49.04838" lon="7.71962">
        <ele>276.04</ele>
        <time>2014-08-28T08:32:57Z</time>
      </trkpt>
      <trkpt lat="49.04849" lon="7.71951">
        <ele>272.19</ele>
        <time>2014-08-28T08:33:32Z</time>
      </trkpt>
      <trkpt lat="49.04853" lon="7.71938">
        <ele>273.15</ele>
        <time>2014-08-28T08:33:36Z</time>
      </trkpt>
      <trkpt lat="49.04853" lon="7.71919">
        <ele>275.07</ele>
        <time>2014-08-28T08:33:40Z</time>
      </trkpt>
      <trkpt lat="49.04852" lon="7.71903">
        <ele>276.04</ele>
        <time>2014-08-28T08:33:43Z</time>
      </trkpt>
      <trkpt lat="49.04853" lon="7.71887">
        <ele>276.04</ele>
        <time>2014-08-28T08:33:46Z</time>
      </trkpt>
      <trkpt lat="49.04853" lon="7.71872">
        <ele>275.56</ele>
        <time>2014-08-28T08:33:49Z</time>
      </trkpt>
      <trkpt lat="49.04853" lon="7.71856">
        <ele>274.59</ele>
        <time>2014-08-28T08:33:52Z</time>
      </trkpt>
      <trkpt lat="49.04853" lon="7.71836">
        <ele>273.63</ele>
        <time>2014-08-28T08:33:55Z</time>
      </trkpt>
      <trkpt lat="49.04853" lon="7.71819">
        <ele>272.19</ele>
        <time>2014-08-28T08:33:57Z</time>
      </trkpt>
      <trkpt lat="49.04854" lon="7.718">
        <ele>271.23</ele>
        <time>2014-08-28T08:33:59Z</time>
      </trkpt>
      <trkpt lat="49.04855" lon="7.7178">
        <ele>270.75</ele>
        <time>2014-08-28T08:34:01Z</time>
      </trkpt>
      <trkpt lat="49.04855" lon="7.7176">
        <ele>269.79</ele>
        <time>2014-08-28T08:34:03Z</time>
      </trkpt>
      <trkpt lat="49.04855" lon="7.7174">
        <ele>268.83</ele>
        <time>2014-08-28T08:34:05Z</time>
      </trkpt>
      <trkpt lat="49.04857" lon="7.71722">
        <ele>268.35</ele>
        <time>2014-08-28T08:34:07Z</time>
      </trkpt>
      <trkpt lat="49.04858" lon="7.71706">
        <ele>267.86</ele>
        <time>2014-08-28T08:34:09Z</time>
      </trkpt>
      <trkpt lat="49.04859" lon="7.71688">
        <ele>268.35</ele>
        <time>2014-08-28T08:34:12Z</time>
      </trkpt>
      <trkpt lat="49.0486" lon="7.71672">
        <ele>269.79</ele>
        <time>2014-08-28T08:34:16Z</time>
      </trkpt>
      <trkpt lat="49.04866" lon="7.71655">
        <ele>271.23</ele>
        <time>2014-08-28T08:34:20Z</time>
      </trkpt>
      <trkpt lat="49.04876" lon="7.71641">
        <ele>269.79</ele>
        <time>2014-08-28T08:34:23Z</time>
      </trkpt>
      <trkpt lat="49.04883" lon="7.71629">
        <ele>269.31</ele>
        <time>2014-08-28T08:34:25Z</time>
      </trkpt>
      <trkpt lat="49.0489" lon="7.71618">
        <ele>268.35</ele>
        <time>2014-08-28T08:34:27Z</time>
      </trkpt>
      <trkpt lat="49.04897" lon="7.71605">
        <ele>267.38</ele>
        <time>2014-08-28T08:34:30Z</time>
      </trkpt>
      <trkpt lat="49.049" lon="7.71595">
        <ele>266.9</ele>
        <time>2014-08-28T08:35:03Z</time>
      </trkpt>
      <trkpt lat="49.04907" lon="7.71586">
        <ele>266.9</ele>
        <time>2014-08-28T08:35:07Z</time>
      </trkpt>
      <trkpt lat="49.04915" lon="7.71572">
        <ele>266.9</ele>
        <time>2014-08-28T08:35:10Z</time>
      </trkpt>
      <trkpt lat="49.04923" lon="7.71559">
        <ele>267.86</ele>
        <time>2014-08-28T08:35:13Z</time>
      </trkpt>
      <trkpt lat="49.0493" lon="7.71543">
        <ele>268.35</ele>
        <time>2014-08-28T08:35:16Z</time>
      </trkpt>
      <trkpt lat="49.04935" lon="7.71531">
        <ele>268.35</ele>
        <time>2014-08-28T08:35:18Z</time>
      </trkpt>
      <trkpt lat="49.04941" lon="7.71515">
        <ele>268.35</ele>
        <time>2014-08-28T08:35:21Z</time>
      </trkpt>
      <trkpt lat="49.04948" lon="7.71499">
        <ele>268.35</ele>
        <time>2014-08-28T08:35:24Z</time>
      </trkpt>
      <trkpt lat="49.04953" lon="7.71484">
        <ele>268.35</ele>
        <time>2014-08-28T08:35:27Z</time>
      </trkpt>
      <trkpt lat="49.04959" lon="7.71471">
        <ele>269.79</ele>
        <time>2014-08-28T08:35:30Z</time>
      </trkpt>
      <trkpt lat="49.04965" lon="7.71455">
        <ele>270.27</ele>
        <time>2014-08-28T08:35:33Z</time>
      </trkpt>
      <trkpt lat="49.04971" lon="7.71439">
        <ele>270.75</ele>
        <time>2014-08-28T08:35:36Z</time>
      </trkpt>
      <trkpt lat="49.04978" lon="7.71422">
        <ele>269.79</ele>
        <time>2014-08-28T08:35:39Z</time>
      </trkpt>
      <trkpt lat="49.04986" lon="7.71408">
        <ele>268.83</ele>
        <time>2014-08-28T08:35:42Z</time>
      </trkpt>
      <trkpt lat="49.04997" lon="7.71405">
        <ele>269.31</ele>
        <time>2014-08-28T08:35:45Z</time>
      </trkpt>
      <trkpt lat="49.05005" lon="7.71415">
        <ele>269.79</ele>
        <time>2014-08-28T08:35:48Z</time>
      </trkpt>
      <trkpt lat="49.05012" lon="7.71427">
        <ele>270.27</ele>
        <time>2014-08-28T08:35:51Z</time>
      </trkpt>
      <trkpt lat="49.05017" lon="7.71438">
        <ele>270.27</ele>
        <time>2014-08-28T08:35:54Z</time>
      </trkpt>
      <trkpt lat="49.05023" lon="7.71449">
        <ele>270.75</ele>
        <time>2014-08-28T08:35:57Z</time>
      </trkpt>
      <trkpt lat="49.0503" lon="7.71459">
        <ele>271.23</ele>
        <time>2014-08-28T08:36:00Z</time>
      </trkpt>
      <trkpt lat="49.05038" lon="7.71467">
        <ele>272.19</ele>
        <time>2014-08-28T08:36:03Z</time>
      </trkpt>
      <trkpt lat="49.05048" lon="7.7147">
        <ele>272.67</ele>
        <time>2014-08-28T08:36:06Z</time>
      </trkpt>
      <trkpt lat="49.05059" lon="7.71471">
        <ele>274.11</ele>
        <time>2014-08-28T08:36:10Z</time>
      </trkpt>
      <trkpt lat="49.0507" lon="7.71465">
        <ele>275.07</ele>
        <time>2014-08-28T08:36:14Z</time>
      </trkpt>
      <trkpt lat="49.0508" lon="7.71458">
        <ele>275.07</ele>
        <time>2014-08-28T08:36:18Z</time>
      </trkpt>
      <trkpt lat="49.0509" lon="7.71454">
        <ele>274.59</ele>
        <time>2014-08-28T08:36:22Z</time>
      </trkpt>
      <trkpt lat="49.05099" lon="7.7146">
        <ele>274.11</ele>
        <time>2014-08-28T08:36:28Z</time>
      </trkpt>
      <trkpt lat="49.05106" lon="7.71472">
        <ele>274.59</ele>
        <time>2014-08-28T08:36:33Z</time>
      </trkpt>
      <trkpt lat="49.05112" lon="7.71484">
        <ele>274.59</ele>
        <time>2014-08-28T08:36:37Z</time>
      </trkpt>
      <trkpt lat="49.05118" lon="7.71498">
        <ele>275.56</ele>
        <time>2014-08-28T08:36:42Z</time>
      </trkpt>
      <trkpt lat="49.05123" lon="7.71511">
        <ele>277</ele>
        <time>2014-08-28T08:36:47Z</time>
      </trkpt>
      <trkpt lat="49.0513" lon="7.71523">
        <ele>276.04</ele>
        <time>2014-08-28T08:36:53Z</time>
      </trkpt>
      <trkpt lat="49.05133" lon="7.71527">
        <ele>278.44</ele>
        <time>2014-08-28T08:37:05Z</time>
      </trkpt>
      <trkpt lat="49.05127" lon="7.71514">
        <ele>279.4</ele>
        <time>2014-08-28T08:37:15Z</time>
      </trkpt>
      <trkpt lat="49.05121" lon="7.71501">
        <ele>279.88</ele>
        <time>2014-08-28T08:37:20Z</time>
      </trkpt>
      <trkpt lat="49.05114" lon="7.71489">
        <ele>279.88</ele>
        <time>2014-08-28T08:37:25Z</time>
      </trkpt>
      <trkpt lat="49.05107" lon="7.71476">
        <ele>280.36</ele>
        <time>2014-08-28T08:37:31Z</time>
      </trkpt>
      <trkpt lat="49.05101" lon="7.71463">
        <ele>280.84</ele>
        <time>2014-08-28T08:37:36Z</time>
      </trkpt>
      <trkpt lat="49.05095" lon="7.71452">
        <ele>280.84</ele>
        <time>2014-08-28T08:37:41Z</time>
      </trkpt>
      <trkpt lat="49.05088" lon="7.71442">
        <ele>279.88</ele>
        <time>2014-08-28T08:37:47Z</time>
      </trkpt>
      <trkpt lat="49.05086" lon="7.71432">
        <ele>280.36</ele>
        <time>2014-08-28T08:38:23Z</time>
      </trkpt>
      <trkpt lat="49.05084" lon="7.71418">
        <ele>279.88</ele>
        <time>2014-08-28T08:38:35Z</time>
      </trkpt>
      <trkpt lat="49.05085" lon="7.71401">
        <ele>283.25</ele>
        <time>2014-08-28T08:38:49Z</time>
      </trkpt>
      <trkpt lat="49.05086" lon="7.71415">
        <ele>283.25</ele>
        <time>2014-08-28T08:39:00Z</time>
      </trkpt>
      <trkpt lat="49.05088" lon="7.71434">
        <ele>286.61</ele>
        <time>2014-08-28T08:39:34Z</time>
      </trkpt>
      <trkpt lat="49.05085" lon="7.71445">
        <ele>283.73</ele>
        <time>2014-08-28T08:39:49Z</time>
      </trkpt>
      <trkpt lat="49.05076" lon="7.71452">
        <ele>283.25</ele>
        <time>2014-08-28T08:39:52Z</time>
      </trkpt>
      <trkpt lat="49.05066" lon="7.7146">
        <ele>282.28</ele>
        <time>2014-08-28T08:39:56Z</time>
      </trkpt>
      <trkpt lat="49.05063" lon="7.71472">
        <ele>281.32</ele>
        <time>2014-08-28T08:40:02Z</time>
      </trkpt>
      <trkpt lat="49.05066" lon="7.71484">
        <ele>273.63</ele>
        <time>2014-08-28T08:40:30Z</time>
      </trkpt>
      <trkpt lat="49.05072" lon="7.715">
        <ele>275.07</ele>
        <time>2014-08-28T08:40:35Z</time>
      </trkpt>
      <trkpt lat="49.05077" lon="7.71513">
        <ele>275.07</ele>
        <time>2014-08-28T08:40:38Z</time>
      </trkpt>
      <trkpt lat="49.05082" lon="7.71527">
        <ele>275.07</ele>
        <time>2014-08-28T08:40:41Z</time>
      </trkpt>
      <trkpt lat="49.05087" lon="7.7154">
        <ele>275.07</ele>
        <time>2014-08-28T08:40:44Z</time>
      </trkpt>
      <trkpt lat="49.05092" lon="7.71557">
        <ele>275.07</ele>
        <time>2014-08-28T08:40:47Z</time>
      </trkpt>
      <trkpt lat="49.05095" lon="7.71575">
        <ele>275.07</ele>
        <time>2014-08-28T08:40:50Z</time>
      </trkpt>
      <trkpt lat="49.05098" lon="7.71588">
        <ele>275.07</ele>
        <time>2014-08-28T08:40:55Z</time>
      </trkpt>
      <trkpt lat="49.05101" lon="7.71595">
        <ele>276.52</ele>
        <time>2014-08-28T08:41:31Z</time>
      </trkpt>
      <trkpt lat="49.05102" lon="7.71609">
        <ele>277</ele>
        <time>2014-08-28T08:41:35Z</time>
      </trkpt>
      <trkpt lat="49.05104" lon="7.71627">
        <ele>277.48</ele>
        <time>2014-08-28T08:41:39Z</time>
      </trkpt>
      <trkpt lat="49.05107" lon="7.71643">
        <ele>277</ele>
        <time>2014-08-28T08:41:43Z</time>
      </trkpt>
      <trkpt lat="49.05109" lon="7.71659">
        <ele>277.48</ele>
        <time>2014-08-28T08:41:47Z</time>
      </trkpt>
      <trkpt lat="49.0511" lon="7.71676">
        <ele>277.48</ele>
        <time>2014-08-28T08:41:52Z</time>
      </trkpt>
      <trkpt lat="49.05113" lon="7.71693">
        <ele>277.48</ele>
        <time>2014-08-28T08:41:57Z</time>
      </trkpt>
      <trkpt lat="49.05115" lon="7.7171">
        <ele>277.48</ele>
        <time>2014-08-28T08:42:01Z</time>
      </trkpt>
      <trkpt lat="49.05117" lon="7.71728">
        <ele>277.96</ele>
        <time>2014-08-28T08:42:05Z</time>
      </trkpt>
      <trkpt lat="49.05117" lon="7.71745">
        <ele>278.44</ele>
        <time>2014-08-28T08:42:10Z</time>
      </trkpt>
      <trkpt lat="49.05118" lon="7.7176">
        <ele>277</ele>
        <time>2014-08-28T08:43:06Z</time>
      </trkpt>
      <trkpt lat="49.05121" lon="7.71775">
        <ele>277</ele>
        <time>2014-08-28T08:43:13Z</time>
      </trkpt>
      <trkpt lat="49.05121" lon="7.71787">
        <ele>274.11</ele>
        <time>2014-08-28T08:43:53Z</time>
      </trkpt>
      <trkpt lat="49.05125" lon="7.71795">
        <ele>270.27</ele>
        <time>2014-08-28T08:44:12Z</time>
      </trkpt>
      <trkpt lat="49.05123" lon="7.71778">
        <ele>268.35</ele>
        <time>2014-08-28T08:44:20Z</time>
      </trkpt>
      <trkpt lat="49.05122" lon="7.71762">
        <ele>267.86</ele>
        <time>2014-08-28T08:44:25Z</time>
      </trkpt>
      <trkpt lat="49.0512" lon="7.71745">
        <ele>266.9</ele>
        <time>2014-08-28T08:44:29Z</time>
      </trkpt>
      <trkpt lat="49.05118" lon="7.71727">
        <ele>266.42</ele>
        <time>2014-08-28T08:44:33Z</time>
      </trkpt>
      <trkpt lat="49.05115" lon="7.71707">
        <ele>265.94</ele>
        <time>2014-08-28T08:44:37Z</time>
      </trkpt>
      <trkpt lat="49.05113" lon="7.71688">
        <ele>265.94</ele>
        <time>2014-08-28T08:44:41Z</time>
      </trkpt>
      <trkpt lat="49.05111" lon="7.71669">
        <ele>266.42</ele>
        <time>2014-08-28T08:44:45Z</time>
      </trkpt>
      <trkpt lat="49.05108" lon="7.71652">
        <ele>266.42</ele>
        <time>2014-08-28T08:44:48Z</time>
      </trkpt>
      <trkpt lat="49.05105" lon="7.71635">
        <ele>266.9</ele>
        <time>2014-08-28T08:44:51Z</time>
      </trkpt>
      <trkpt lat="49.05102" lon="7.71619">
        <ele>267.38</ele>
        <time>2014-08-28T08:44:54Z</time>
      </trkpt>
      <trkpt lat="49.051" lon="7.716">
        <ele>267.38</ele>
        <time>2014-08-28T08:44:58Z</time>
      </trkpt>
      <trkpt lat="49.05098" lon="7.71584">
        <ele>266.9</ele>
        <time>2014-08-28T08:45:01Z</time>
      </trkpt>
      <trkpt lat="49.05096" lon="7.71567">
        <ele>266.9</ele>
        <time>2014-08-28T08:45:04Z</time>
      </trkpt>
      <trkpt lat="49.05094" lon="7.71551">
        <ele>266.42</ele>
        <time>2014-08-28T08:45:07Z</time>
      </trkpt>
      <trkpt lat="49.05088" lon="7.71532">
        <ele>266.9</ele>
        <time>2014-08-28T08:45:11Z</time>
      </trkpt>
      <trkpt lat="49.05081" lon="7.71517">
        <ele>266.9</ele>
        <time>2014-08-28T08:45:14Z</time>
      </trkpt>
      <trkpt lat="49.05076" lon="7.71503">
        <ele>266.42</ele>
        <time>2014-08-28T08:45:17Z</time>
      </trkpt>
      <trkpt lat="49.05069" lon="7.71489">
        <ele>267.38</ele>
        <time>2014-08-28T08:45:21Z</time>
      </trkpt>
      <trkpt lat="49.05063" lon="7.71474">
        <ele>267.86</ele>
        <time>2014-08-28T08:45:26Z</time>
      </trkpt>
      <trkpt lat="49.05053" lon="7.71468">
        <ele>266.9</ele>
        <time>2014-08-28T08:45:30Z</time>
      </trkpt>
      <trkpt lat="49.05043" lon="7.71466">
        <ele>265.94</ele>
        <time>2014-08-28T08:45:32Z</time>
      </trkpt>
      <trkpt lat="49.05033" lon="7.71459">
        <ele>265.46</ele>
        <time>2014-08-28T08:45:34Z</time>
      </trkpt>
      <trkpt lat="49.05024" lon="7.71447">
        <ele>265.46</ele>
        <time>2014-08-28T08:45:36Z</time>
      </trkpt>
      <trkpt lat="49.05016" lon="7.71431">
        <ele>264.98</ele>
        <time>2014-08-28T08:45:38Z</time>
      </trkpt>
      <trkpt lat="49.05007" lon="7.71415">
        <ele>264.02</ele>
        <time>2014-08-28T08:45:40Z</time>
      </trkpt>
      <trkpt lat="49.04998" lon="7.71404">
        <ele>263.54</ele>
        <time>2014-08-28T08:45:42Z</time>
      </trkpt>
      <trkpt lat="49.04986" lon="7.71405">
        <ele>263.06</ele>
        <time>2014-08-28T08:45:44Z</time>
      </trkpt>
      <trkpt lat="49.04977" lon="7.71416">
        <ele>262.58</ele>
        <time>2014-08-28T08:45:46Z</time>
      </trkpt>
      <trkpt lat="49.04971" lon="7.7143">
        <ele>262.58</ele>
        <time>2014-08-28T08:45:48Z</time>
      </trkpt>
      <trkpt lat="49.04964" lon="7.71447">
        <ele>262.1</ele>
        <time>2014-08-28T08:45:50Z</time>
      </trkpt>
      <trkpt lat="49.04957" lon="7.71464">
        <ele>262.1</ele>
        <time>2014-08-28T08:45:52Z</time>
      </trkpt>
      <trkpt lat="49.0495" lon="7.71482">
        <ele>261.62</ele>
        <time>2014-08-28T08:45:54Z</time>
      </trkpt>
      <trkpt lat="49.04943" lon="7.71498">
        <ele>261.62</ele>
        <time>2014-08-28T08:45:56Z</time>
      </trkpt>
      <trkpt lat="49.04937" lon="7.71514">
        <ele>261.62</ele>
        <time>2014-08-28T08:45:58Z</time>
      </trkpt>
      <trkpt lat="49.0493" lon="7.71528">
        <ele>261.62</ele>
        <time>2014-08-28T08:46:00Z</time>
      </trkpt>
      <trkpt lat="49.04924" lon="7.71542">
        <ele>261.62</ele>
        <time>2014-08-28T08:46:02Z</time>
      </trkpt>
      <trkpt lat="49.04916" lon="7.71558">
        <ele>261.62</ele>
        <time>2014-08-28T08:46:04Z</time>
      </trkpt>
      <trkpt lat="49.04907" lon="7.71577">
        <ele>261.62</ele>
        <time>2014-08-28T08:46:06Z</time>
      </trkpt>
      <trkpt lat="49.04899" lon="7.71593">
        <ele>261.14</ele>
        <time>2014-08-28T08:46:08Z</time>
      </trkpt>
      <trkpt lat="49.04892" lon="7.71605">
        <ele>261.62</ele>
        <time>2014-08-28T08:46:10Z</time>
      </trkpt>
      <trkpt lat="49.04885" lon="7.71618">
        <ele>261.62</ele>
        <time>2014-08-28T08:46:13Z</time>
      </trkpt>
      <trkpt lat="49.04877" lon="7.7163">
        <ele>262.58</ele>
        <time>2014-08-28T08:46:18Z</time>
      </trkpt>
      <trkpt lat="49.04868" lon="7.71644">
        <ele>264.02</ele>
        <time>2014-08-28T08:46:24Z</time>
      </trkpt>
      <trkpt lat="49.04861" lon="7.71655">
        <ele>264.02</ele>
        <time>2014-08-28T08:46:28Z</time>
      </trkpt>
      <trkpt lat="49.04858" lon="7.71676">
        <ele>263.06</ele>
        <time>2014-08-28T08:46:32Z</time>
      </trkpt>
      <trkpt lat="49.04856" lon="7.71698">
        <ele>262.58</ele>
        <time>2014-08-28T08:46:35Z</time>
      </trkpt>
      <trkpt lat="49.04856" lon="7.71716">
        <ele>261.62</ele>
        <time>2014-08-28T08:46:37Z</time>
      </trkpt>
      <trkpt lat="49.04855" lon="7.71734">
        <ele>261.62</ele>
        <time>2014-08-28T08:46:39Z</time>
      </trkpt>
      <trkpt lat="49.04855" lon="7.71751">
        <ele>261.14</ele>
        <time>2014-08-28T08:46:41Z</time>
      </trkpt>
      <trkpt lat="49.04854" lon="7.71768">
        <ele>261.14</ele>
        <time>2014-08-28T08:46:43Z</time>
      </trkpt>
      <trkpt lat="49.04853" lon="7.71782">
        <ele>261.14</ele>
        <time>2014-08-28T08:46:45Z</time>
      </trkpt>
      <trkpt lat="49.04853" lon="7.718">
        <ele>261.14</ele>
        <time>2014-08-28T08:46:48Z</time>
      </trkpt>
      <trkpt lat="49.04852" lon="7.71816">
        <ele>261.62</ele>
        <time>2014-08-28T08:46:51Z</time>
      </trkpt>
      <trkpt lat="49.04851" lon="7.71834">
        <ele>262.1</ele>
        <time>2014-08-28T08:46:54Z</time>
      </trkpt>
      <trkpt lat="49.04851" lon="7.71851">
        <ele>262.1</ele>
        <time>2014-08-28T08:46:57Z</time>
      </trkpt>
      <trkpt lat="49.0485" lon="7.71866">
        <ele>263.06</ele>
        <time>2014-08-28T08:47:00Z</time>
      </trkpt>
      <trkpt lat="49.0485" lon="7.71883">
        <ele>263.54</ele>
        <time>2014-08-28T08:47:03Z</time>
      </trkpt>
      <trkpt lat="49.0485" lon="7.71901">
        <ele>264.5</ele>
        <time>2014-08-28T08:47:06Z</time>
      </trkpt>
      <trkpt lat="49.04851" lon="7.71916">
        <ele>265.46</ele>
        <time>2014-08-28T08:47:09Z</time>
      </trkpt>
      <trkpt lat="49.0485" lon="7.7193">
        <ele>265.94</ele>
        <time>2014-08-28T08:47:12Z</time>
      </trkpt>
      <trkpt lat="49.04851" lon="7.71949">
        <ele>268.35</ele>
        <time>2014-08-28T08:47:16Z</time>
      </trkpt>
      <trkpt lat="49.04854" lon="7.71965">
        <ele>268.83</ele>
        <time>2014-08-28T08:47:20Z</time>
      </trkpt>
      <trkpt lat="49.04856" lon="7.7198">
        <ele>268.83</ele>
        <time>2014-08-28T08:47:24Z</time>
      </trkpt>
      <trkpt lat="49.0486" lon="7.71996">
        <ele>268.35</ele>
        <time>2014-08-28T08:47:28Z</time>
      </trkpt>
      <trkpt lat="49.04864" lon="7.7201">
        <ele>268.35</ele>
        <time>2014-08-28T08:47:33Z</time>
      </trkpt>
      <trkpt lat="49.04864" lon="7.72007">
        <ele>269.31</ele>
        <time>2014-08-28T08:47:43Z</time>
      </trkpt>
      <trkpt lat="49.04857" lon="7.71996">
        <ele>269.31</ele>
        <time>2014-08-28T08:47:49Z</time>
      </trkpt>
      <trkpt lat="49.04858" lon="7.71982">
        <ele>266.42</ele>
        <time>2014-08-28T08:48:11Z</time>
      </trkpt>
      <trkpt lat="49.04851" lon="7.71972">
        <ele>266.42</ele>
        <time>2014-08-28T08:48:15Z</time>
      </trkpt>
      <trkpt lat="49.04843" lon="7.71964">
        <ele>266.9</ele>
        <time>2014-08-28T08:48:18Z</time>
      </trkpt>
      <trkpt lat="49.04833" lon="7.71958">
        <ele>266.9</ele>
        <time>2014-08-28T08:48:21Z</time>
      </trkpt>
      <trkpt lat="49.04823" lon="7.71958">
        <ele>266.9</ele>
        <time>2014-08-28T08:48:27Z</time>
      </trkpt>
      <trkpt lat="49.04817" lon="7.71947">
        <ele>260.65</ele>
        <time>2014-08-28T08:48:52Z</time>
      </trkpt>
      <trkpt lat="49.04808" lon="7.71939">
        <ele>262.1</ele>
        <time>2014-08-28T08:48:57Z</time>
      </trkpt>
      <trkpt lat="49.04799" lon="7.71931">
        <ele>263.06</ele>
        <time>2014-08-28T08:49:01Z</time>
      </trkpt>
      <trkpt lat="49.04792" lon="7.7192">
        <ele>263.06</ele>
        <time>2014-08-28T08:49:05Z</time>
      </trkpt>
      <trkpt lat="49.04784" lon="7.7191">
        <ele>262.58</ele>
        <time>2014-08-28T08:49:09Z</time>
      </trkpt>
      <trkpt lat="49.04777" lon="7.71899">
        <ele>261.62</ele>
        <time>2014-08-28T08:49:13Z</time>
      </trkpt>
      <trkpt lat="49.04771" lon="7.71886">
        <ele>261.14</ele>
        <time>2014-08-28T08:49:17Z</time>
      </trkpt>
      <trkpt lat="49.04765" lon="7.71873">
        <ele>260.65</ele>
        <time>2014-08-28T08:49:21Z</time>
      </trkpt>
      <trkpt lat="49.04757" lon="7.71855">
        <ele>261.62</ele>
        <time>2014-08-28T08:49:26Z</time>
      </trkpt>
      <trkpt lat="49.04752" lon="7.71842">
        <ele>261.62</ele>
        <time>2014-08-28T08:49:30Z</time>
      </trkpt>
      <trkpt lat="49.04745" lon="7.71828">
        <ele>260.17</ele>
        <time>2014-08-28T08:49:35Z</time>
      </trkpt>
      <trkpt lat="49.04738" lon="7.71814">
        <ele>259.21</ele>
        <time>2014-08-28T08:49:40Z</time>
      </trkpt>
      <trkpt lat="49.04733" lon="7.71803">
        <ele>258.25</ele>
        <time>2014-08-28T08:49:45Z</time>
      </trkpt>
      <trkpt lat="49.04726" lon="7.71787">
        <ele>258.25</ele>
        <time>2014-08-28T08:49:51Z</time>
      </trkpt>
      <trkpt lat="49.04721" lon="7.7177">
        <ele>262.1</ele>
        <time>2014-08-28T08:49:56Z</time>
      </trkpt>
      <trkpt lat="49.04716" lon="7.71752">
        <ele>267.38</ele>
        <time>2014-08-28T08:50:01Z</time>
      </trkpt>
      <trkpt lat="49.04712" lon="7.7174">
        <ele>269.79</ele>
        <time>2014-08-28T08:50:05Z</time>
      </trkpt>
      <trkpt lat="49.04708" lon="7.71725">
        <ele>272.67</ele>
        <time>2014-08-28T08:50:10Z</time>
      </trkpt>
      <trkpt lat="49.04702" lon="7.71711">
        <ele>275.56</ele>
        <time>2014-08-28T08:50:15Z</time>
      </trkpt>
      <trkpt lat="49.04695" lon="7.71696">
        <ele>277.96</ele>
        <time>2014-08-28T08:50:20Z</time>
      </trkpt>
      <trkpt lat="49.0469" lon="7.71682">
        <ele>280.84</ele>
        <time>2014-08-28T08:50:25Z</time>
      </trkpt>
      <trkpt lat="49.04685" lon="7.71668">
        <ele>281.32</ele>
        <time>2014-08-28T08:50:31Z</time>
      </trkpt>
      <trkpt lat="49.04677" lon="7.71653">
        <ele>283.73</ele>
        <time>2014-08-28T08:50:36Z</time>
      </trkpt>
      <trkpt lat="49.04671" lon="7.71638">
        <ele>284.69</ele>
        <time>2014-08-28T08:50:41Z</time>
      </trkpt>
      <trkpt lat="49.04665" lon="7.71624">
        <ele>286.13</ele>
        <time>2014-08-28T08:50:46Z</time>
      </trkpt>
      <trkpt lat="49.0466" lon="7.71608">
        <ele>287.57</ele>
        <time>2014-08-28T08:50:51Z</time>
      </trkpt>
      <trkpt lat="49.04654" lon="7.71594">
        <ele>289.49</ele>
        <time>2014-08-28T08:50:57Z</time>
      </trkpt>
      <trkpt lat="49.04648" lon="7.71577">
        <ele>291.9</ele>
        <time>2014-08-28T08:51:02Z</time>
      </trkpt>
      <trkpt lat="49.04642" lon="7.71563">
        <ele>293.34</ele>
        <time>2014-08-28T08:51:07Z</time>
      </trkpt>
      <trkpt lat="49.04634" lon="7.71549">
        <ele>293.82</ele>
        <time>2014-08-28T08:51:14Z</time>
      </trkpt>
      <trkpt lat="49.04626" lon="7.71534">
        <ele>296.22</ele>
        <time>2014-08-28T08:51:20Z</time>
      </trkpt>
      <trkpt lat="49.04617" lon="7.7152">
        <ele>298.15</ele>
        <time>2014-08-28T08:51:26Z</time>
      </trkpt>
      <trkpt lat="49.04609" lon="7.71508">
        <ele>301.03</ele>
        <time>2014-08-28T08:51:32Z</time>
      </trkpt>
      <trkpt lat="49.04599" lon="7.71493">
        <ele>305.84</ele>
        <time>2014-08-28T08:51:49Z</time>
      </trkpt>
      <trkpt lat="49.04592" lon="7.71479">
        <ele>307.76</ele>
        <time>2014-08-28T08:51:55Z</time>
      </trkpt>
      <trkpt lat="49.04588" lon="7.71466">
        <ele>311.12</ele>
        <time>2014-08-28T08:52:00Z</time>
      </trkpt>
      <trkpt lat="49.04584" lon="7.71451">
        <ele>313.53</ele>
        <time>2014-08-28T08:52:05Z</time>
      </trkpt>
      <trkpt lat="49.04582" lon="7.71434">
        <ele>314.97</ele>
        <time>2014-08-28T08:52:10Z</time>
      </trkpt>
      <trkpt lat="49.04581" lon="7.71416">
        <ele>316.41</ele>
        <time>2014-08-28T08:52:15Z</time>
      </trkpt>
      <trkpt lat="49.04578" lon="7.71398">
        <ele>319.3</ele>
        <time>2014-08-28T08:52:20Z</time>
      </trkpt>
      <trkpt lat="49.04576" lon="7.7138">
        <ele>322.18</ele>
        <time>2014-08-28T08:52:25Z</time>
      </trkpt>
      <trkpt lat="49.04573" lon="7.7136">
        <ele>322.66</ele>
        <time>2014-08-28T08:52:31Z</time>
      </trkpt>
      <trkpt lat="49.04576" lon="7.71345">
        <ele>324.1</ele>
        <time>2014-08-28T08:52:36Z</time>
      </trkpt>
      <trkpt lat="49.04575" lon="7.71329">
        <ele>324.1</ele>
        <time>2014-08-28T08:52:43Z</time>
      </trkpt>
      <trkpt lat="49.04565" lon="7.71328">
        <ele>323.14</ele>
        <time>2014-08-28T08:52:48Z</time>
      </trkpt>
      <trkpt lat="49.04559" lon="7.7134">
        <ele>322.66</ele>
        <time>2014-08-28T08:52:53Z</time>
      </trkpt>
      <trkpt lat="49.04559" lon="7.71352">
        <ele>321.22</ele>
        <time>2014-08-28T08:52:58Z</time>
      </trkpt>
      <trkpt lat="49.04555" lon="7.71367">
        <ele>321.7</ele>
        <time>2014-08-28T08:53:03Z</time>
      </trkpt>
      <trkpt lat="49.04553" lon="7.71384">
        <ele>322.66</ele>
        <time>2014-08-28T08:53:09Z</time>
      </trkpt>
      <trkpt lat="49.04551" lon="7.71403">
        <ele>325.54</ele>
        <time>2014-08-28T08:53:14Z</time>
      </trkpt>
      <trkpt lat="49.0455" lon="7.71422">
        <ele>328.91</ele>
        <time>2014-08-28T08:53:19Z</time>
      </trkpt>
      <trkpt lat="49.0455" lon="7.71439">
        <ele>331.79</ele>
        <time>2014-08-28T08:53:23Z</time>
      </trkpt>
      <trkpt lat="49.0455" lon="7.71457">
        <ele>333.23</ele>
        <time>2014-08-28T08:53:27Z</time>
      </trkpt>
      <trkpt lat="49.04552" lon="7.71479">
        <ele>334.68</ele>
        <time>2014-08-28T08:53:32Z</time>
      </trkpt>
      <trkpt lat="49.04553" lon="7.71498">
        <ele>335.64</ele>
        <time>2014-08-28T08:53:36Z</time>
      </trkpt>
      <trkpt lat="49.04555" lon="7.71517">
        <ele>336.6</ele>
        <time>2014-08-28T08:53:41Z</time>
      </trkpt>
      <trkpt lat="49.04558" lon="7.71533">
        <ele>336.6</ele>
        <time>2014-08-28T08:53:45Z</time>
      </trkpt>
      <trkpt lat="49.04559" lon="7.71553">
        <ele>336.12</ele>
        <time>2014-08-28T08:53:50Z</time>
      </trkpt>
      <trkpt lat="49.0456" lon="7.7157">
        <ele>335.16</ele>
        <time>2014-08-28T08:53:54Z</time>
      </trkpt>
      <trkpt lat="49.04562" lon="7.71586">
        <ele>335.16</ele>
        <time>2014-08-28T08:53:58Z</time>
      </trkpt>
      <trkpt lat="49.04562" lon="7.71602">
        <ele>335.64</ele>
        <time>2014-08-28T08:54:02Z</time>
      </trkpt>
      <trkpt lat="49.04564" lon="7.7162">
        <ele>337.56</ele>
        <time>2014-08-28T08:54:06Z</time>
      </trkpt>
      <trkpt lat="49.04567" lon="7.71639">
        <ele>339.48</ele>
        <time>2014-08-28T08:54:10Z</time>
      </trkpt>
      <trkpt lat="49.04568" lon="7.71656">
        <ele>339</ele>
        <time>2014-08-28T08:54:14Z</time>
      </trkpt>
      <trkpt lat="49.04569" lon="7.71674">
        <ele>337.56</ele>
        <time>2014-08-28T08:54:19Z</time>
      </trkpt>
      <trkpt lat="49.0457" lon="7.7169">
        <ele>337.08</ele>
        <time>2014-08-28T08:54:23Z</time>
      </trkpt>
      <trkpt lat="49.04573" lon="7.71705">
        <ele>337.56</ele>
        <time>2014-08-28T08:54:27Z</time>
      </trkpt>
      <trkpt lat="49.04567" lon="7.71715">
        <ele>337.56</ele>
        <time>2014-08-28T08:54:32Z</time>
      </trkpt>
      <trkpt lat="49.04565" lon="7.71702">
        <ele>338.52</ele>
        <time>2014-08-28T08:54:36Z</time>
      </trkpt>
      <trkpt lat="49.04566" lon="7.71686">
        <ele>338.52</ele>
        <time>2014-08-28T08:54:40Z</time>
      </trkpt>
      <trkpt lat="49.04565" lon="7.71671">
        <ele>336.6</ele>
        <time>2014-08-28T08:54:44Z</time>
      </trkpt>
      <trkpt lat="49.04561" lon="7.71654">
        <ele>335.64</ele>
        <time>2014-08-28T08:54:49Z</time>
      </trkpt>
      <trkpt lat="49.04559" lon="7.7164">
        <ele>336.12</ele>
        <time>2014-08-28T08:54:53Z</time>
      </trkpt>
      <trkpt lat="49.04557" lon="7.71623">
        <ele>336.12</ele>
        <time>2014-08-28T08:54:57Z</time>
      </trkpt>
      <trkpt lat="49.04553" lon="7.71607">
        <ele>336.6</ele>
        <time>2014-08-28T08:55:01Z</time>
      </trkpt>
      <trkpt lat="49.04551" lon="7.71593">
        <ele>337.08</ele>
        <time>2014-08-28T08:55:05Z</time>
      </trkpt>
      <trkpt lat="49.04547" lon="7.71578">
        <ele>337.56</ele>
        <time>2014-08-28T08:55:09Z</time>
      </trkpt>
      <trkpt lat="49.04543" lon="7.71563">
        <ele>336.6</ele>
        <time>2014-08-28T08:55:13Z</time>
      </trkpt>
      <trkpt lat="49.04538" lon="7.71548">
        <ele>335.64</ele>
        <time>2014-08-28T08:55:17Z</time>
      </trkpt>
      <trkpt lat="49.04533" lon="7.71534">
        <ele>335.64</ele>
        <time>2014-08-28T08:55:21Z</time>
      </trkpt>
      <trkpt lat="49.04529" lon="7.7152">
        <ele>336.12</ele>
        <time>2014-08-28T08:55:25Z</time>
      </trkpt>
      <trkpt lat="49.04524" lon="7.71504">
        <ele>337.56</ele>
        <time>2014-08-28T08:55:30Z</time>
      </trkpt>
      <trkpt lat="49.04521" lon="7.71486">
        <ele>340.44</ele>
        <time>2014-08-28T08:55:35Z</time>
      </trkpt>
      <trkpt lat="49.04518" lon="7.71471">
        <ele>342.37</ele>
        <time>2014-08-28T08:55:39Z</time>
      </trkpt>
      <trkpt lat="49.04516" lon="7.71453">
        <ele>344.77</ele>
        <time>2014-08-28T08:55:44Z</time>
      </trkpt>
      <trkpt lat="49.04515" lon="7.71433">
        <ele>348.13</ele>
        <time>2014-08-28T08:55:48Z</time>
      </trkpt>
      <trkpt lat="49.04513" lon="7.71412">
        <ele>352.46</ele>
        <time>2014-08-28T08:55:53Z</time>
      </trkpt>
      <trkpt lat="49.0451" lon="7.71393">
        <ele>354.38</ele>
        <time>2014-08-28T08:55:58Z</time>
      </trkpt>
      <trkpt lat="49.04509" lon="7.71376">
        <ele>356.31</ele>
        <time>2014-08-28T08:56:03Z</time>
      </trkpt>
      <trkpt lat="49.04508" lon="7.7136">
        <ele>357.75</ele>
        <time>2014-08-28T08:56:07Z</time>
      </trkpt>
      <trkpt lat="49.04507" lon="7.71343">
        <ele>358.71</ele>
        <time>2014-08-28T08:56:11Z</time>
      </trkpt>
      <trkpt lat="49.04506" lon="7.71324">
        <ele>359.67</ele>
        <time>2014-08-28T08:56:15Z</time>
      </trkpt>
      <trkpt lat="49.04506" lon="7.71306">
        <ele>360.63</ele>
        <time>2014-08-28T08:56:19Z</time>
      </trkpt>
      <trkpt lat="49.04507" lon="7.7129">
        <ele>360.63</ele>
        <time>2014-08-28T08:56:23Z</time>
      </trkpt>
      <trkpt lat="49.04507" lon="7.71272">
        <ele>361.11</ele>
        <time>2014-08-28T08:56:27Z</time>
      </trkpt>
      <trkpt lat="49.04506" lon="7.71254">
        <ele>363.04</ele>
        <time>2014-08-28T08:56:31Z</time>
      </trkpt>
      <trkpt lat="49.04505" lon="7.71233">
        <ele>364.48</ele>
        <time>2014-08-28T08:56:35Z</time>
      </trkpt>
      <trkpt lat="49.04504" lon="7.71214">
        <ele>364.96</ele>
        <time>2014-08-28T08:56:39Z</time>
      </trkpt>
      <trkpt lat="49.04501" lon="7.71196">
        <ele>365.92</ele>
        <time>2014-08-28T08:56:43Z</time>
      </trkpt>
      <trkpt lat="49.04499" lon="7.7118">
        <ele>366.88</ele>
        <time>2014-08-28T08:56:47Z</time>
      </trkpt>
      <trkpt lat="49.04497" lon="7.71162">
        <ele>368.8</ele>
        <time>2014-08-28T08:56:51Z</time>
      </trkpt>
      <trkpt lat="49.04495" lon="7.71145">
        <ele>370.73</ele>
        <time>2014-08-28T08:56:55Z</time>
      </trkpt>
      <trkpt lat="49.04493" lon="7.71128">
        <ele>372.17</ele>
        <time>2014-08-28T08:57:00Z</time>
      </trkpt>
      <trkpt lat="49.04491" lon="7.71109">
        <ele>374.09</ele>
        <time>2014-08-28T08:57:04Z</time>
      </trkpt>
      <trkpt lat="49.04491" lon="7.71092">
        <ele>375.53</ele>
        <time>2014-08-28T08:57:08Z</time>
      </trkpt>
      <trkpt lat="49.0449" lon="7.71075">
        <ele>376.49</ele>
        <time>2014-08-28T08:57:12Z</time>
      </trkpt>
      <trkpt lat="49.04492" lon="7.71053">
        <ele>377.45</ele>
        <time>2014-08-28T08:57:16Z</time>
      </trkpt>
      <trkpt lat="49.04491" lon="7.71032">
        <ele>377.45</ele>
        <time>2014-08-28T08:57:20Z</time>
      </trkpt>
      <trkpt lat="49.04489" lon="7.71017">
        <ele>376.49</ele>
        <time>2014-08-28T08:57:23Z</time>
      </trkpt>
      <trkpt lat="49.04487" lon="7.70999">
        <ele>375.05</ele>
        <time>2014-08-28T08:57:27Z</time>
      </trkpt>
      <trkpt lat="49.04485" lon="7.70982">
        <ele>374.57</ele>
        <time>2014-08-28T08:57:31Z</time>
      </trkpt>
      <trkpt lat="49.04484" lon="7.70962">
        <ele>373.61</ele>
        <time>2014-08-28T08:57:36Z</time>
      </trkpt>
      <trkpt lat="49.04484" lon="7.70943">
        <ele>372.65</ele>
        <time>2014-08-28T08:57:40Z</time>
      </trkpt>
      <trkpt lat="49.04485" lon="7.70923">
        <ele>371.69</ele>
        <time>2014-08-28T08:57:44Z</time>
      </trkpt>
      <trkpt lat="49.04488" lon="7.70906">
        <ele>371.69</ele>
        <time>2014-08-28T08:57:48Z</time>
      </trkpt>
      <trkpt lat="49.04491" lon="7.7089">
        <ele>372.65</ele>
        <time>2014-08-28T08:57:52Z</time>
      </trkpt>
      <trkpt lat="49.04495" lon="7.70874">
        <ele>372.65</ele>
        <time>2014-08-28T08:57:56Z</time>
      </trkpt>
      <trkpt lat="49.04496" lon="7.70858">
        <ele>371.69</ele>
        <time>2014-08-28T08:58:00Z</time>
      </trkpt>
      <trkpt lat="49.04499" lon="7.70844">
        <ele>371.21</ele>
        <time>2014-08-28T08:58:04Z</time>
      </trkpt>
      <trkpt lat="49.04501" lon="7.70828">
        <ele>370.73</ele>
        <time>2014-08-28T08:58:09Z</time>
      </trkpt>
      <trkpt lat="49.04506" lon="7.70812">
        <ele>369.28</ele>
        <time>2014-08-28T08:58:14Z</time>
      </trkpt>
      <trkpt lat="49.04513" lon="7.70793">
        <ele>370.24</ele>
        <time>2014-08-28T08:58:19Z</time>
      </trkpt>
      <trkpt lat="49.0452" lon="7.70779">
        <ele>371.21</ele>
        <time>2014-08-28T08:58:23Z</time>
      </trkpt>
      <trkpt lat="49.04528" lon="7.70766">
        <ele>372.17</ele>
        <time>2014-08-28T08:58:27Z</time>
      </trkpt>
      <trkpt lat="49.04536" lon="7.70757">
        <ele>373.61</ele>
        <time>2014-08-28T08:58:31Z</time>
      </trkpt>
      <trkpt lat="49.04544" lon="7.70747">
        <ele>374.57</ele>
        <time>2014-08-28T08:58:35Z</time>
      </trkpt>
      <trkpt lat="49.04551" lon="7.70737">
        <ele>376.49</ele>
        <time>2014-08-28T08:58:39Z</time>
      </trkpt>
      <trkpt lat="49.04558" lon="7.70724">
        <ele>379.86</ele>
        <time>2014-08-28T08:58:44Z</time>
      </trkpt>
      <trkpt lat="49.04563" lon="7.70709">
        <ele>382.26</ele>
        <time>2014-08-28T08:58:48Z</time>
      </trkpt>
      <trkpt lat="49.04567" lon="7.70693">
        <ele>382.26</ele>
        <time>2014-08-28T08:58:53Z</time>
      </trkpt>
      <trkpt lat="49.04574" lon="7.70678">
        <ele>384.66</ele>
        <time>2014-08-28T08:58:59Z</time>
      </trkpt>
      <trkpt lat="49.0458" lon="7.70665">
        <ele>386.59</ele>
        <time>2014-08-28T08:59:04Z</time>
      </trkpt>
      <trkpt lat="49.04586" lon="7.70649">
        <ele>388.99</ele>
        <time>2014-08-28T08:59:09Z</time>
      </trkpt>
      <trkpt lat="49.04593" lon="7.70635">
        <ele>391.87</ele>
        <time>2014-08-28T08:59:14Z</time>
      </trkpt>
      <trkpt lat="49.046" lon="7.70626">
        <ele>393.8</ele>
        <time>2014-08-28T08:59:26Z</time>
      </trkpt>
      <trkpt lat="49.04608" lon="7.70628">
        <ele>396.68</ele>
        <time>2014-08-28T08:59:38Z</time>
      </trkpt>
      <trkpt lat="49.04609" lon="7.70626">
        <ele>397.64</ele>
        <time>2014-08-28T08:59:49Z</time>
      </trkpt>
      <trkpt lat="49.04598" lon="7.70619">
        <ele>397.64</ele>
        <time>2014-08-28T09:00:06Z</time>
      </trkpt>
      <trkpt lat="49.04597" lon="7.70596">
        <ele>395.72</ele>
        <time>2014-08-28T09:00:22Z</time>
      </trkpt>
      <trkpt lat="49.04583" lon="7.70587">
        <ele>392.36</ele>
        <time>2014-08-28T09:01:01Z</time>
      </trkpt>
      <trkpt lat="49.04574" lon="7.70598">
        <ele>389.95</ele>
        <time>2014-08-28T09:01:06Z</time>
      </trkpt>
      <trkpt lat="49.04567" lon="7.70611">
        <ele>388.03</ele>
        <time>2014-08-28T09:01:10Z</time>
      </trkpt>
      <trkpt lat="49.04559" lon="7.70624">
        <ele>386.59</ele>
        <time>2014-08-28T09:01:14Z</time>
      </trkpt>
      <trkpt lat="49.04551" lon="7.70637">
        <ele>385.15</ele>
        <time>2014-08-28T09:01:18Z</time>
      </trkpt>
      <trkpt lat="49.04544" lon="7.70653">
        <ele>383.7</ele>
        <time>2014-08-28T09:01:22Z</time>
      </trkpt>
      <trkpt lat="49.04539" lon="7.70668">
        <ele>382.26</ele>
        <time>2014-08-28T09:01:26Z</time>
      </trkpt>
      <trkpt lat="49.04532" lon="7.70682">
        <ele>381.3</ele>
        <time>2014-08-28T09:01:30Z</time>
      </trkpt>
      <trkpt lat="49.04524" lon="7.70693">
        <ele>380.34</ele>
        <time>2014-08-28T09:01:34Z</time>
      </trkpt>
      <trkpt lat="49.04515" lon="7.70703">
        <ele>379.86</ele>
        <time>2014-08-28T09:01:38Z</time>
      </trkpt>
      <trkpt lat="49.04505" lon="7.70712">
        <ele>380.34</ele>
        <time>2014-08-28T09:01:42Z</time>
      </trkpt>
      <trkpt lat="49.04495" lon="7.70722">
        <ele>380.82</ele>
        <time>2014-08-28T09:01:46Z</time>
      </trkpt>
      <trkpt lat="49.04486" lon="7.70732">
        <ele>380.82</ele>
        <time>2014-08-28T09:01:50Z</time>
      </trkpt>
      <trkpt lat="49.04477" lon="7.70743">
        <ele>380.82</ele>
        <time>2014-08-28T09:01:54Z</time>
      </trkpt>
      <trkpt lat="49.04468" lon="7.70752">
        <ele>379.86</ele>
        <time>2014-08-28T09:01:58Z</time>
      </trkpt>
      <trkpt lat="49.04458" lon="7.70761">
        <ele>378.9</ele>
        <time>2014-08-28T09:02:02Z</time>
      </trkpt>
      <trkpt lat="49.04447" lon="7.70769">
        <ele>378.9</ele>
        <time>2014-08-28T09:02:06Z</time>
      </trkpt>
      <trkpt lat="49.04433" lon="7.70782">
        <ele>384.18</ele>
        <time>2014-08-28T09:02:10Z</time>
      </trkpt>
      <trkpt lat="49.0442" lon="7.70789">
        <ele>390.43</ele>
        <time>2014-08-28T09:02:15Z</time>
      </trkpt>
      <trkpt lat="49.04409" lon="7.70789">
        <ele>392.84</ele>
        <time>2014-08-28T09:02:20Z</time>
      </trkpt>
      <trkpt lat="49.04399" lon="7.70783">
        <ele>390.91</ele>
        <time>2014-08-28T09:02:24Z</time>
      </trkpt>
      <trkpt lat="49.04391" lon="7.70776">
        <ele>389.95</ele>
        <time>2014-08-28T09:02:26Z</time>
      </trkpt>
      <trkpt lat="49.04382" lon="7.70766">
        <ele>388.99</ele>
        <time>2014-08-28T09:02:28Z</time>
      </trkpt>
      <trkpt lat="49.04372" lon="7.70752">
        <ele>388.03</ele>
        <time>2014-08-28T09:02:30Z</time>
      </trkpt>
      <trkpt lat="49.0436" lon="7.70737">
        <ele>387.07</ele>
        <time>2014-08-28T09:02:32Z</time>
      </trkpt>
      <trkpt lat="49.04353" lon="7.70728">
        <ele>386.59</ele>
        <time>2014-08-28T09:02:33Z</time>
      </trkpt>
      <trkpt lat="49.04339" lon="7.70709">
        <ele>385.15</ele>
        <time>2014-08-28T09:02:35Z</time>
      </trkpt>
      <trkpt lat="49.04331" lon="7.707">
        <ele>384.66</ele>
        <time>2014-08-28T09:02:36Z</time>
      </trkpt>
      <trkpt lat="49.04324" lon="7.7069">
        <ele>383.7</ele>
        <time>2014-08-28T09:02:37Z</time>
      </trkpt>
      <trkpt lat="49.0431" lon="7.70669">
        <ele>382.26</ele>
        <time>2014-08-28T09:02:39Z</time>
      </trkpt>
      <trkpt lat="49.04304" lon="7.70659">
        <ele>381.78</ele>
        <time>2014-08-28T09:02:40Z</time>
      </trkpt>
      <trkpt lat="49.04297" lon="7.70648">
        <ele>380.82</ele>
        <time>2014-08-28T09:02:41Z</time>
      </trkpt>
      <trkpt lat="49.0429" lon="7.70636">
        <ele>379.86</ele>
        <time>2014-08-28T09:02:42Z</time>
      </trkpt>
      <trkpt lat="49.04284" lon="7.70624">
        <ele>378.9</ele>
        <time>2014-08-28T09:02:43Z</time>
      </trkpt>
      <trkpt lat="49.04277" lon="7.70611">
        <ele>378.42</ele>
        <time>2014-08-28T09:02:44Z</time>
      </trkpt>
      <trkpt lat="49.0427" lon="7.70597">
        <ele>377.45</ele>
        <time>2014-08-28T09:02:45Z</time>
      </trkpt>
      <trkpt lat="49.04263" lon="7.70583">
        <ele>376.49</ele>
        <time>2014-08-28T09:02:46Z</time>
      </trkpt>
      <trkpt lat="49.04256" lon="7.70569">
        <ele>375.53</ele>
        <time>2014-08-28T09:02:47Z</time>
      </trkpt>
      <trkpt lat="49.04248" lon="7.70555">
        <ele>374.57</ele>
        <time>2014-08-28T09:02:48Z</time>
      </trkpt>
      <trkpt lat="49.0424" lon="7.7054">
        <ele>373.61</ele>
        <time>2014-08-28T09:02:49Z</time>
      </trkpt>
      <trkpt lat="49.04232" lon="7.70527">
        <ele>372.65</ele>
        <time>2014-08-28T09:02:50Z</time>
      </trkpt>
      <trkpt lat="49.04223" lon="7.70514">
        <ele>371.69</ele>
        <time>2014-08-28T09:02:51Z</time>
      </trkpt>
      <trkpt lat="49.04215" lon="7.70502">
        <ele>370.24</ele>
        <time>2014-08-28T09:02:52Z</time>
      </trkpt>
      <trkpt lat="49.04206" lon="7.7049">
        <ele>369.28</ele>
        <time>2014-08-28T09:02:53Z</time>
      </trkpt>
      <trkpt lat="49.04197" lon="7.70479">
        <ele>368.32</ele>
        <time>2014-08-28T09:02:54Z</time>
      </trkpt>
      <trkpt lat="49.04188" lon="7.70467">
        <ele>366.88</ele>
        <time>2014-08-28T09:02:55Z</time>
      </trkpt>
      <trkpt lat="49.04179" lon="7.70455">
        <ele>365.92</ele>
        <time>2014-08-28T09:02:56Z</time>
      </trkpt>
      <trkpt lat="49.04169" lon="7.70444">
        <ele>364.96</ele>
        <time>2014-08-28T09:02:57Z</time>
      </trkpt>
      <trkpt lat="49.04161" lon="7.70433">
        <ele>363.52</ele>
        <time>2014-08-28T09:02:58Z</time>
      </trkpt>
      <trkpt lat="49.04152" lon="7.70423">
        <ele>362.55</ele>
        <time>2014-08-28T09:02:59Z</time>
      </trkpt>
      <trkpt lat="49.04144" lon="7.70413">
        <ele>361.59</ele>
        <time>2014-08-28T09:03:00Z</time>
      </trkpt>
      <trkpt lat="49.04136" lon="7.70403">
        <ele>360.15</ele>
        <time>2014-08-28T09:03:01Z</time>
      </trkpt>
      <trkpt lat="49.04128" lon="7.70393">
        <ele>359.19</ele>
        <time>2014-08-28T09:03:02Z</time>
      </trkpt>
      <trkpt lat="49.0412" lon="7.70384">
        <ele>358.23</ele>
        <time>2014-08-28T09:03:03Z</time>
      </trkpt>
      <trkpt lat="49.04111" lon="7.70375">
        <ele>357.27</ele>
        <time>2014-08-28T09:03:04Z</time>
      </trkpt>
      <trkpt lat="49.04102" lon="7.70366">
        <ele>356.31</ele>
        <time>2014-08-28T09:03:05Z</time>
      </trkpt>
      <trkpt lat="49.04093" lon="7.70357">
        <ele>355.34</ele>
        <time>2014-08-28T09:03:06Z</time>
      </trkpt>
      <trkpt lat="49.04084" lon="7.70348">
        <ele>353.9</ele>
        <time>2014-08-28T09:03:07Z</time>
      </trkpt>
      <trkpt lat="49.04076" lon="7.70339">
        <ele>352.94</ele>
        <time>2014-08-28T09:03:08Z</time>
      </trkpt>
      <trkpt lat="49.04067" lon="7.70331">
        <ele>351.98</ele>
        <time>2014-08-28T09:03:09Z</time>
      </trkpt>
      <trkpt lat="49.04057" lon="7.70321">
        <ele>350.54</ele>
        <time>2014-08-28T09:03:10Z</time>
      </trkpt>
      <trkpt lat="49.04048" lon="7.70312">
        <ele>349.58</ele>
        <time>2014-08-28T09:03:11Z</time>
      </trkpt>
      <trkpt lat="49.04039" lon="7.70303">
        <ele>348.62</ele>
        <time>2014-08-28T09:03:12Z</time>
      </trkpt>
      <trkpt lat="49.04029" lon="7.70294">
        <ele>347.65</ele>
        <time>2014-08-28T09:03:13Z</time>
      </trkpt>
      <trkpt lat="49.0402" lon="7.70285">
        <ele>346.21</ele>
        <time>2014-08-28T09:03:14Z</time>
      </trkpt>
      <trkpt lat="49.04012" lon="7.70277">
        <ele>345.25</ele>
        <time>2014-08-28T09:03:15Z</time>
      </trkpt>
      <trkpt lat="49.04003" lon="7.70268">
        <ele>344.29</ele>
        <time>2014-08-28T09:03:16Z</time>
      </trkpt>
      <trkpt lat="49.03995" lon="7.70259">
        <ele>343.33</ele>
        <time>2014-08-28T09:03:17Z</time>
      </trkpt>
      <trkpt lat="49.03987" lon="7.70249">
        <ele>342.37</ele>
        <time>2014-08-28T09:03:18Z</time>
      </trkpt>
      <trkpt lat="49.03979" lon="7.70239">
        <ele>341.41</ele>
        <time>2014-08-28T09:03:19Z</time>
      </trkpt>
      <trkpt lat="49.03966" lon="7.70218">
        <ele>339.48</ele>
        <time>2014-08-28T09:03:21Z</time>
      </trkpt>
      <trkpt lat="49.03956" lon="7.70196">
        <ele>338.04</ele>
        <time>2014-08-28T09:03:23Z</time>
      </trkpt>
      <trkpt lat="49.03949" lon="7.70172">
        <ele>336.6</ele>
        <time>2014-08-28T09:03:25Z</time>
      </trkpt>
      <trkpt lat="49.03946" lon="7.70147">
        <ele>334.68</ele>
        <time>2014-08-28T09:03:27Z</time>
      </trkpt>
      <trkpt lat="49.03947" lon="7.70122">
        <ele>333.23</ele>
        <time>2014-08-28T09:03:29Z</time>
      </trkpt>
      <trkpt lat="49.03953" lon="7.70097">
        <ele>331.79</ele>
        <time>2014-08-28T09:03:31Z</time>
      </trkpt>
      <trkpt lat="49.03965" lon="7.70073">
        <ele>329.87</ele>
        <time>2014-08-28T09:03:33Z</time>
      </trkpt>
      <trkpt lat="49.03971" lon="7.70062">
        <ele>328.91</ele>
        <time>2014-08-28T09:03:34Z</time>
      </trkpt>
      <trkpt lat="49.03978" lon="7.70052">
        <ele>327.95</ele>
        <time>2014-08-28T09:03:35Z</time>
      </trkpt>
      <trkpt lat="49.03986" lon="7.70043">
        <ele>326.99</ele>
        <time>2014-08-28T09:03:36Z</time>
      </trkpt>
      <trkpt lat="49.03995" lon="7.70036">
        <ele>326.02</ele>
        <time>2014-08-28T09:03:37Z</time>
      </trkpt>
      <trkpt lat="49.04004" lon="7.7003">
        <ele>325.54</ele>
        <time>2014-08-28T09:03:38Z</time>
      </trkpt>
      <trkpt lat="49.04014" lon="7.70027">
        <ele>324.58</ele>
        <time>2014-08-28T09:03:39Z</time>
      </trkpt>
      <trkpt lat="49.04024" lon="7.70025">
        <ele>323.62</ele>
        <time>2014-08-28T09:03:40Z</time>
      </trkpt>
      <trkpt lat="49.04035" lon="7.70024">
        <ele>322.66</ele>
        <time>2014-08-28T09:03:41Z</time>
      </trkpt>
      <trkpt lat="49.04046" lon="7.70024">
        <ele>321.7</ele>
        <time>2014-08-28T09:03:42Z</time>
      </trkpt>
      <trkpt lat="49.04057" lon="7.70024">
        <ele>320.74</ele>
        <time>2014-08-28T09:03:43Z</time>
      </trkpt>
      <trkpt lat="49.04067" lon="7.70025">
        <ele>320.26</ele>
        <time>2014-08-28T09:03:44Z</time>
      </trkpt>
      <trkpt lat="49.04085" lon="7.70027">
        <ele>318.33</ele>
        <time>2014-08-28T09:03:46Z</time>
      </trkpt>
      <trkpt lat="49.04101" lon="7.70032">
        <ele>316.89</ele>
        <time>2014-08-28T09:03:48Z</time>
      </trkpt>
      <trkpt lat="49.04112" lon="7.70038">
        <ele>315.45</ele>
        <time>2014-08-28T09:03:50Z</time>
      </trkpt>
      <trkpt lat="49.04118" lon="7.7003">
        <ele>314.01</ele>
        <time>2014-08-28T09:03:53Z</time>
      </trkpt>
      <trkpt lat="49.04111" lon="7.7002">
        <ele>312.57</ele>
        <time>2014-08-28T09:03:55Z</time>
      </trkpt>
      <trkpt lat="49.04099" lon="7.70016">
        <ele>311.12</ele>
        <time>2014-08-28T09:03:57Z</time>
      </trkpt>
      <trkpt lat="49.04085" lon="7.70011">
        <ele>309.68</ele>
        <time>2014-08-28T09:03:59Z</time>
      </trkpt>
      <trkpt lat="49.0407" lon="7.70005">
        <ele>307.76</ele>
        <time>2014-08-28T09:04:01Z</time>
      </trkpt>
      <trkpt lat="49.04054" lon="7.69999">
        <ele>305.84</ele>
        <time>2014-08-28T09:04:03Z</time>
      </trkpt>
      <trkpt lat="49.04036" lon="7.69993">
        <ele>303.91</ele>
        <time>2014-08-28T09:04:05Z</time>
      </trkpt>
      <trkpt lat="49.04026" lon="7.69991">
        <ele>302.95</ele>
        <time>2014-08-28T09:04:06Z</time>
      </trkpt>
      <trkpt lat="49.04017" lon="7.69989">
        <ele>301.99</ele>
        <time>2014-08-28T09:04:07Z</time>
      </trkpt>
      <trkpt lat="49.04007" lon="7.69988">
        <ele>300.55</ele>
        <time>2014-08-28T09:04:08Z</time>
      </trkpt>
      <trkpt lat="49.03997" lon="7.69987">
        <ele>299.59</ele>
        <time>2014-08-28T09:04:09Z</time>
      </trkpt>
      <trkpt lat="49.03988" lon="7.69986">
        <ele>298.15</ele>
        <time>2014-08-28T09:04:10Z</time>
      </trkpt>
      <trkpt lat="49.03978" lon="7.69986">
        <ele>297.18</ele>
        <time>2014-08-28T09:04:11Z</time>
      </trkpt>
      <trkpt lat="49.03968" lon="7.69988">
        <ele>296.22</ele>
        <time>2014-08-28T09:04:12Z</time>
      </trkpt>
      <trkpt lat="49.0396" lon="7.6999">
        <ele>294.78</ele>
        <time>2014-08-28T09:04:13Z</time>
      </trkpt>
      <trkpt lat="49.03942" lon="7.69998">
        <ele>292.38</ele>
        <time>2014-08-28T09:04:15Z</time>
      </trkpt>
      <trkpt lat="49.03934" lon="7.70003">
        <ele>291.42</ele>
        <time>2014-08-28T09:04:16Z</time>
      </trkpt>
      <trkpt lat="49.03925" lon="7.70008">
        <ele>289.97</ele>
        <time>2014-08-28T09:04:17Z</time>
      </trkpt>
      <trkpt lat="49.03915" lon="7.70013">
        <ele>289.01</ele>
        <time>2014-08-28T09:04:18Z</time>
      </trkpt>
      <trkpt lat="49.03906" lon="7.70019">
        <ele>288.05</ele>
        <time>2014-08-28T09:04:19Z</time>
      </trkpt>
      <trkpt lat="49.03896" lon="7.70025">
        <ele>287.09</ele>
        <time>2014-08-28T09:04:20Z</time>
      </trkpt>
      <trkpt lat="49.03886" lon="7.70031">
        <ele>286.13</ele>
        <time>2014-08-28T09:04:21Z</time>
      </trkpt>
      <trkpt lat="49.03877" lon="7.70038">
        <ele>285.17</ele>
        <time>2014-08-28T09:04:22Z</time>
      </trkpt>
      <trkpt lat="49.03868" lon="7.70046">
        <ele>284.21</ele>
        <time>2014-08-28T09:04:23Z</time>
      </trkpt>
      <trkpt lat="49.03859" lon="7.70054">
        <ele>284.21</ele>
        <time>2014-08-28T09:04:24Z</time>
      </trkpt>
      <trkpt lat="49.03851" lon="7.70064">
        <ele>284.21</ele>
        <time>2014-08-28T09:04:25Z</time>
      </trkpt>
      <trkpt lat="49.03845" lon="7.70076">
        <ele>283.73</ele>
        <time>2014-08-28T09:04:26Z</time>
      </trkpt>
      <trkpt lat="49.03839" lon="7.7009">
        <ele>283.73</ele>
        <time>2014-08-28T09:04:27Z</time>
      </trkpt>
      <trkpt lat="49.03834" lon="7.70104">
        <ele>283.25</ele>
        <time>2014-08-28T09:04:28Z</time>
      </trkpt>
      <trkpt lat="49.0383" lon="7.70119">
        <ele>283.25</ele>
        <time>2014-08-28T09:04:29Z</time>
      </trkpt>
      <trkpt lat="49.03825" lon="7.70135">
        <ele>283.25</ele>
        <time>2014-08-28T09:04:30Z</time>
      </trkpt>
      <trkpt lat="49.03821" lon="7.70152">
        <ele>283.25</ele>
        <time>2014-08-28T09:04:31Z</time>
      </trkpt>
      <trkpt lat="49.03816" lon="7.70168">
        <ele>283.25</ele>
        <time>2014-08-28T09:04:32Z</time>
      </trkpt>
      <trkpt lat="49.03811" lon="7.70184">
        <ele>282.77</ele>
        <time>2014-08-28T09:04:33Z</time>
      </trkpt>
      <trkpt lat="49.03807" lon="7.702">
        <ele>282.28</ele>
        <time>2014-08-28T09:04:34Z</time>
      </trkpt>
      <trkpt lat="49.03804" lon="7.70215">
        <ele>281.8</ele>
        <time>2014-08-28T09:04:35Z</time>
      </trkpt>
      <trkpt lat="49.03801" lon="7.70229">
        <ele>281.32</ele>
        <time>2014-08-28T09:04:36Z</time>
      </trkpt>
      <trkpt lat="49.03799" lon="7.70242">
        <ele>280.84</ele>
        <time>2014-08-28T09:04:37Z</time>
      </trkpt>
      <trkpt lat="49.03799" lon="7.70256">
        <ele>280.36</ele>
        <time>2014-08-28T09:04:38Z</time>
      </trkpt>
      <trkpt lat="49.03799" lon="7.70271">
        <ele>279.88</ele>
        <time>2014-08-28T09:04:39Z</time>
      </trkpt>
      <trkpt lat="49.03802" lon="7.70285">
        <ele>278.92</ele>
        <time>2014-08-28T09:04:40Z</time>
      </trkpt>
      <trkpt lat="49.03806" lon="7.70299">
        <ele>278.44</ele>
        <time>2014-08-28T09:04:41Z</time>
      </trkpt>
      <trkpt lat="49.03811" lon="7.70312">
        <ele>277.96</ele>
        <time>2014-08-28T09:04:42Z</time>
      </trkpt>
      <trkpt lat="49.03815" lon="7.70326">
        <ele>277.96</ele>
        <time>2014-08-28T09:04:43Z</time>
      </trkpt>
      <trkpt lat="49.0382" lon="7.7034">
        <ele>277.48</ele>
        <time>2014-08-28T09:04:44Z</time>
      </trkpt>
      <trkpt lat="49.03825" lon="7.70354">
        <ele>277</ele>
        <time>2014-08-28T09:04:45Z</time>
      </trkpt>
      <trkpt lat="49.03831" lon="7.70367">
        <ele>276.52</ele>
        <time>2014-08-28T09:04:46Z</time>
      </trkpt>
      <trkpt lat="49.03839" lon="7.70379">
        <ele>276.04</ele>
        <time>2014-08-28T09:04:47Z</time>
      </trkpt>
      <trkpt lat="49.03846" lon="7.70391">
        <ele>275.56</ele>
        <time>2014-08-28T09:04:48Z</time>
      </trkpt>
      <trkpt lat="49.03854" lon="7.70403">
        <ele>274.59</ele>
        <time>2014-08-28T09:04:49Z</time>
      </trkpt>
      <trkpt lat="49.03862" lon="7.70414">
        <ele>274.11</ele>
        <time>2014-08-28T09:04:50Z</time>
      </trkpt>
      <trkpt lat="49.0387" lon="7.70426">
        <ele>273.63</ele>
        <time>2014-08-28T09:04:51Z</time>
      </trkpt>
      <trkpt lat="49.03877" lon="7.70437">
        <ele>273.15</ele>
        <time>2014-08-28T09:04:52Z</time>
      </trkpt>
      <trkpt lat="49.03885" lon="7.70448">
        <ele>272.19</ele>
        <time>2014-08-28T09:04:53Z</time>
      </trkpt>
      <trkpt lat="49.03891" lon="7.7046">
        <ele>271.71</ele>
        <time>2014-08-28T09:04:54Z</time>
      </trkpt>
      <trkpt lat="49.03897" lon="7.70471">
        <ele>271.23</ele>
        <time>2014-08-28T09:04:55Z</time>
      </trkpt>
      <trkpt lat="49.03907" lon="7.70491">
        <ele>270.27</ele>
        <time>2014-08-28T09:04:57Z</time>
      </trkpt>
      <trkpt lat="49.03913" lon="7.70507">
        <ele>268.83</ele>
        <time>2014-08-28T09:04:59Z</time>
      </trkpt>
      <trkpt lat="49.03909" lon="7.70524">
        <ele>267.38</ele>
        <time>2014-08-28T09:05:02Z</time>
      </trkpt>
      <trkpt lat="49.03898" lon="7.70522">
        <ele>265.94</ele>
        <time>2014-08-28T09:05:04Z</time>
      </trkpt>
      <trkpt lat="49.03886" lon="7.70513">
        <ele>264.5</ele>
        <time>2014-08-28T09:05:06Z</time>
      </trkpt>
      <trkpt lat="49.03872" lon="7.705">
        <ele>263.06</ele>
        <time>2014-08-28T09:05:08Z</time>
      </trkpt>
      <trkpt lat="49.03856" lon="7.70483">
        <ele>261.62</ele>
        <time>2014-08-28T09:05:10Z</time>
      </trkpt>
      <trkpt lat="49.03848" lon="7.70475">
        <ele>261.14</ele>
        <time>2014-08-28T09:05:11Z</time>
      </trkpt>
      <trkpt lat="49.03839" lon="7.70468">
        <ele>260.17</ele>
        <time>2014-08-28T09:05:12Z</time>
      </trkpt>
      <trkpt lat="49.0383" lon="7.7046">
        <ele>259.69</ele>
        <time>2014-08-28T09:05:13Z</time>
      </trkpt>
      <trkpt lat="49.03821" lon="7.70452">
        <ele>258.73</ele>
        <time>2014-08-28T09:05:14Z</time>
      </trkpt>
      <trkpt lat="49.03811" lon="7.70445">
        <ele>258.25</ele>
        <time>2014-08-28T09:05:15Z</time>
      </trkpt>
      <trkpt lat="49.03801" lon="7.70439">
        <ele>257.77</ele>
        <time>2014-08-28T09:05:16Z</time>
      </trkpt>
      <trkpt lat="49.03791" lon="7.70433">
        <ele>256.81</ele>
        <time>2014-08-28T09:05:17Z</time>
      </trkpt>
      <trkpt lat="49.0378" lon="7.7043">
        <ele>256.33</ele>
        <time>2014-08-28T09:05:18Z</time>
      </trkpt>
      <trkpt lat="49.03769" lon="7.70427">
        <ele>255.85</ele>
        <time>2014-08-28T09:05:19Z</time>
      </trkpt>
      <trkpt lat="49.03759" lon="7.70426">
        <ele>255.37</ele>
        <time>2014-08-28T09:05:20Z</time>
      </trkpt>
      <trkpt lat="49.03749" lon="7.70427">
        <ele>254.41</ele>
        <time>2014-08-28T09:05:21Z</time>
      </trkpt>
      <trkpt lat="49.03739" lon="7.7043">
        <ele>253.93</ele>
        <time>2014-08-28T09:05:22Z</time>
      </trkpt>
      <trkpt lat="49.03729" lon="7.70433">
        <ele>253.44</ele>
        <time>2014-08-28T09:05:23Z</time>
      </trkpt>
      <trkpt lat="49.03718" lon="7.70437">
        <ele>252.96</ele>
        <time>2014-08-28T09:05:24Z</time>
      </trkpt>
      <trkpt lat="49.03707" lon="7.70441">
        <ele>252.48</ele>
        <time>2014-08-28T09:05:25Z</time>
      </trkpt>
      <trkpt lat="49.03696" lon="7.70444">
        <ele>252.48</ele>
        <time>2014-08-28T09:05:26Z</time>
      </trkpt>
      <trkpt lat="49.03684" lon="7.70447">
        <ele>251.52</ele>
        <time>2014-08-28T09:05:27Z</time>
      </trkpt>
      <trkpt lat="49.03672" lon="7.70449">
        <ele>251.04</ele>
        <time>2014-08-28T09:05:28Z</time>
      </trkpt>
      <trkpt lat="49.0366" lon="7.70452">
        <ele>250.56</ele>
        <time>2014-08-28T09:05:29Z</time>
      </trkpt>
      <trkpt lat="49.03648" lon="7.70453">
        <ele>249.6</ele>
        <time>2014-08-28T09:05:30Z</time>
      </trkpt>
      <trkpt lat="49.03635" lon="7.70454">
        <ele>249.12</ele>
        <time>2014-08-28T09:05:31Z</time>
      </trkpt>
      <trkpt lat="49.03623" lon="7.70454">
        <ele>248.64</ele>
        <time>2014-08-28T09:05:32Z</time>
      </trkpt>
      <trkpt lat="49.0361" lon="7.70453">
        <ele>247.68</ele>
        <time>2014-08-28T09:05:33Z</time>
      </trkpt>
      <trkpt lat="49.03598" lon="7.70451">
        <ele>247.2</ele>
        <time>2014-08-28T09:05:34Z</time>
      </trkpt>
      <trkpt lat="49.03585" lon="7.70449">
        <ele>246.72</ele>
        <time>2014-08-28T09:05:35Z</time>
      </trkpt>
      <trkpt lat="49.03573" lon="7.70448">
        <ele>246.23</ele>
        <time>2014-08-28T09:05:36Z</time>
      </trkpt>
      <trkpt lat="49.03561" lon="7.70446">
        <ele>245.75</ele>
        <time>2014-08-28T09:05:37Z</time>
      </trkpt>
      <trkpt lat="49.03549" lon="7.70443">
        <ele>244.79</ele>
        <time>2014-08-28T09:05:38Z</time>
      </trkpt>
      <trkpt lat="49.03537" lon="7.70441">
        <ele>244.31</ele>
        <time>2014-08-28T09:05:39Z</time>
      </trkpt>
      <trkpt lat="49.03526" lon="7.70439">
        <ele>243.83</ele>
        <time>2014-08-28T09:05:40Z</time>
      </trkpt>
      <trkpt lat="49.03515" lon="7.70437">
        <ele>243.35</ele>
        <time>2014-08-28T09:05:41Z</time>
      </trkpt>
      <trkpt lat="49.03504" lon="7.70436">
        <ele>242.39</ele>
        <time>2014-08-28T09:05:42Z</time>
      </trkpt>
      <trkpt lat="49.03493" lon="7.70434">
        <ele>241.43</ele>
        <time>2014-08-28T09:05:43Z</time>
      </trkpt>
      <trkpt lat="49.03483" lon="7.70433">
        <ele>240.95</ele>
        <time>2014-08-28T09:05:44Z</time>
      </trkpt>
      <trkpt lat="49.03474" lon="7.70431">
        <ele>239.99</ele>
        <time>2014-08-28T09:05:45Z</time>
      </trkpt>
      <trkpt lat="49.03464" lon="7.7043">
        <ele>239.51</ele>
        <time>2014-08-28T09:05:46Z</time>
      </trkpt>
      <trkpt lat="49.03455" lon="7.70428">
        <ele>238.54</ele>
        <time>2014-08-28T09:05:47Z</time>
      </trkpt>
      <trkpt lat="49.03437" lon="7.70426">
        <ele>237.58</ele>
        <time>2014-08-28T09:05:49Z</time>
      </trkpt>
      <trkpt lat="49.0342" lon="7.70429">
        <ele>236.62</ele>
        <time>2014-08-28T09:05:51Z</time>
      </trkpt>
      <trkpt lat="49.03406" lon="7.70434">
        <ele>236.14</ele>
        <time>2014-08-28T09:05:53Z</time>
      </trkpt>
      <trkpt lat="49.03394" lon="7.70437">
        <ele>235.66</ele>
        <time>2014-08-28T09:05:55Z</time>
      </trkpt>
      <trkpt lat="49.03383" lon="7.70445">
        <ele>236.14</ele>
        <time>2014-08-28T09:05:58Z</time>
      </trkpt>
      <trkpt lat="49.03377" lon="7.70458">
        <ele>236.14</ele>
        <time>2014-08-28T09:06:00Z</time>
      </trkpt>
      <trkpt lat="49.03373" lon="7.70472">
        <ele>236.14</ele>
        <time>2014-08-28T09:06:02Z</time>
      </trkpt>
      <trkpt lat="49.03368" lon="7.70487">
        <ele>236.14</ele>
        <time>2014-08-28T09:06:04Z</time>
      </trkpt>
      <trkpt lat="49.03362" lon="7.70502">
        <ele>236.14</ele>
        <time>2014-08-28T09:06:06Z</time>
      </trkpt>
      <trkpt lat="49.03356" lon="7.70519">
        <ele>236.14</ele>
        <time>2014-08-28T09:06:08Z</time>
      </trkpt>
      <trkpt lat="49.03348" lon="7.70535">
        <ele>235.66</ele>
        <time>2014-08-28T09:06:10Z</time>
      </trkpt>
      <trkpt lat="49.0334" lon="7.7055">
        <ele>235.66</ele>
        <time>2014-08-28T09:06:12Z</time>
      </trkpt>
      <trkpt lat="49.03332" lon="7.70566">
        <ele>236.14</ele>
        <time>2014-08-28T09:06:14Z</time>
      </trkpt>
      <trkpt lat="49.03324" lon="7.7058">
        <ele>236.14</ele>
        <time>2014-08-28T09:06:16Z</time>
      </trkpt>
      <trkpt lat="49.03317" lon="7.70595">
        <ele>236.62</ele>
        <time>2014-08-28T09:06:18Z</time>
      </trkpt>
      <trkpt lat="49.03309" lon="7.7061">
        <ele>236.62</ele>
        <time>2014-08-28T09:06:20Z</time>
      </trkpt>
      <trkpt lat="49.03301" lon="7.70627">
        <ele>236.62</ele>
        <time>2014-08-28T09:06:22Z</time>
      </trkpt>
      <trkpt lat="49.03294" lon="7.70645">
        <ele>236.62</ele>
        <time>2014-08-28T09:06:24Z</time>
      </trkpt>
      <trkpt lat="49.03288" lon="7.70665">
        <ele>236.14</ele>
        <time>2014-08-28T09:06:26Z</time>
      </trkpt>
      <trkpt lat="49.03283" lon="7.70686">
        <ele>236.14</ele>
        <time>2014-08-28T09:06:28Z</time>
      </trkpt>
      <trkpt lat="49.03279" lon="7.70707">
        <ele>236.14</ele>
        <time>2014-08-28T09:06:30Z</time>
      </trkpt>
      <trkpt lat="49.03276" lon="7.70729">
        <ele>235.66</ele>
        <time>2014-08-28T09:06:32Z</time>
      </trkpt>
      <trkpt lat="49.03274" lon="7.70751">
        <ele>235.18</ele>
        <time>2014-08-28T09:06:34Z</time>
      </trkpt>
      <trkpt lat="49.03272" lon="7.70772">
        <ele>234.7</ele>
        <time>2014-08-28T09:06:36Z</time>
      </trkpt>
      <trkpt lat="49.0327" lon="7.70794">
        <ele>234.22</ele>
        <time>2014-08-28T09:06:38Z</time>
      </trkpt>
      <trkpt lat="49.03267" lon="7.70816">
        <ele>233.74</ele>
        <time>2014-08-28T09:06:40Z</time>
      </trkpt>
      <trkpt lat="49.03264" lon="7.70838">
        <ele>233.26</ele>
        <time>2014-08-28T09:06:42Z</time>
      </trkpt>
      <trkpt lat="49.0326" lon="7.7086">
        <ele>233.26</ele>
        <time>2014-08-28T09:06:44Z</time>
      </trkpt>
      <trkpt lat="49.03254" lon="7.70882">
        <ele>233.26</ele>
        <time>2014-08-28T09:06:46Z</time>
      </trkpt>
      <trkpt lat="49.03247" lon="7.70903">
        <ele>233.26</ele>
        <time>2014-08-28T09:06:48Z</time>
      </trkpt>
      <trkpt lat="49.03239" lon="7.70924">
        <ele>233.74</ele>
        <time>2014-08-28T09:06:50Z</time>
      </trkpt>
      <trkpt lat="49.03231" lon="7.70944">
        <ele>233.74</ele>
        <time>2014-08-28T09:06:52Z</time>
      </trkpt>
      <trkpt lat="49.03223" lon="7.70964">
        <ele>233.74</ele>
        <time>2014-08-28T09:06:54Z</time>
      </trkpt>
      <trkpt lat="49.03214" lon="7.70983">
        <ele>233.74</ele>
        <time>2014-08-28T09:06:56Z</time>
      </trkpt>
      <trkpt lat="49.03205" lon="7.71">
        <ele>233.74</ele>
        <time>2014-08-28T09:06:58Z</time>
      </trkpt>
      <trkpt lat="49.03197" lon="7.71016">
        <ele>234.22</ele>
        <time>2014-08-28T09:07:00Z</time>
      </trkpt>
      <trkpt lat="49.03187" lon="7.71032">
        <ele>234.22</ele>
        <time>2014-08-28T09:07:02Z</time>
      </trkpt>
      <trkpt lat="49.03175" lon="7.71046">
        <ele>233.74</ele>
        <time>2014-08-28T09:07:04Z</time>
      </trkpt>
      <trkpt lat="49.03161" lon="7.71055">
        <ele>233.74</ele>
        <time>2014-08-28T09:07:06Z</time>
      </trkpt>
      <trkpt lat="49.03145" lon="7.71062">
        <ele>233.26</ele>
        <time>2014-08-28T09:07:08Z</time>
      </trkpt>
      <trkpt lat="49.03129" lon="7.71067">
        <ele>233.26</ele>
        <time>2014-08-28T09:07:10Z</time>
      </trkpt>
      <trkpt lat="49.03114" lon="7.71072">
        <ele>232.78</ele>
        <time>2014-08-28T09:07:12Z</time>
      </trkpt>
      <trkpt lat="49.03099" lon="7.71076">
        <ele>232.78</ele>
        <time>2014-08-28T09:07:14Z</time>
      </trkpt>
      <trkpt lat="49.03084" lon="7.71082">
        <ele>232.78</ele>
        <time>2014-08-28T09:07:16Z</time>
      </trkpt>
      <trkpt lat="49.0307" lon="7.71091">
        <ele>233.26</ele>
        <time>2014-08-28T09:07:18Z</time>
      </trkpt>
      <trkpt lat="49.03056" lon="7.71104">
        <ele>233.26</ele>
        <time>2014-08-28T09:07:20Z</time>
      </trkpt>
      <trkpt lat="49.03044" lon="7.7112">
        <ele>233.26</ele>
        <time>2014-08-28T09:07:22Z</time>
      </trkpt>
      <trkpt lat="49.03033" lon="7.71137">
        <ele>233.26</ele>
        <time>2014-08-28T09:07:24Z</time>
      </trkpt>
      <trkpt lat="49.03024" lon="7.71156">
        <ele>232.78</ele>
        <time>2014-08-28T09:07:26Z</time>
      </trkpt>
      <trkpt lat="49.03017" lon="7.71178">
        <ele>232.78</ele>
        <time>2014-08-28T09:07:28Z</time>
      </trkpt>
      <trkpt lat="49.03012" lon="7.71201">
        <ele>232.3</ele>
        <time>2014-08-28T09:07:30Z</time>
      </trkpt>
      <trkpt lat="49.03009" lon="7.71213">
        <ele>232.3</ele>
        <time>2014-08-28T09:07:31Z</time>
      </trkpt>
      <trkpt lat="49.03003" lon="7.71236">
        <ele>232.3</ele>
        <time>2014-08-28T09:07:33Z</time>
      </trkpt>
      <trkpt lat="49.02995" lon="7.71258">
        <ele>232.78</ele>
        <time>2014-08-28T09:07:35Z</time>
      </trkpt>
      <trkpt lat="49.02987" lon="7.7128">
        <ele>232.78</ele>
        <time>2014-08-28T09:07:37Z</time>
      </trkpt>
      <trkpt lat="49.02979" lon="7.71302">
        <ele>232.78</ele>
        <time>2014-08-28T09:07:39Z</time>
      </trkpt>
      <trkpt lat="49.02973" lon="7.71326">
        <ele>232.3</ele>
        <time>2014-08-28T09:07:41Z</time>
      </trkpt>
      <trkpt lat="49.02966" lon="7.7135">
        <ele>232.3</ele>
        <time>2014-08-28T09:07:43Z</time>
      </trkpt>
      <trkpt lat="49.02961" lon="7.71375">
        <ele>231.81</ele>
        <time>2014-08-28T09:07:45Z</time>
      </trkpt>
      <trkpt lat="49.02955" lon="7.71399">
        <ele>232.3</ele>
        <time>2014-08-28T09:07:47Z</time>
      </trkpt>
      <trkpt lat="49.0295" lon="7.71423">
        <ele>232.3</ele>
        <time>2014-08-28T09:07:49Z</time>
      </trkpt>
      <trkpt lat="49.02947" lon="7.71447">
        <ele>232.3</ele>
        <time>2014-08-28T09:07:51Z</time>
      </trkpt>
      <trkpt lat="49.02945" lon="7.7147">
        <ele>232.3</ele>
        <time>2014-08-28T09:07:53Z</time>
      </trkpt>
      <trkpt lat="49.02944" lon="7.71493">
        <ele>232.78</ele>
        <time>2014-08-28T09:07:55Z</time>
      </trkpt>
      <trkpt lat="49.02944" lon="7.71516">
        <ele>232.3</ele>
        <time>2014-08-28T09:07:57Z</time>
      </trkpt>
      <trkpt lat="49.02944" lon="7.7154">
        <ele>232.3</ele>
        <time>2014-08-28T09:07:59Z</time>
      </trkpt>
      <trkpt lat="49.02946" lon="7.71564">
        <ele>232.3</ele>
        <time>2014-08-28T09:08:01Z</time>
      </trkpt>
      <trkpt lat="49.02948" lon="7.71588">
        <ele>231.81</ele>
        <time>2014-08-28T09:08:03Z</time>
      </trkpt>
      <trkpt lat="49.02951" lon="7.71613">
        <ele>231.81</ele>
        <time>2014-08-28T09:08:05Z</time>
      </trkpt>
      <trkpt lat="49.02953" lon="7.71637">
        <ele>231.81</ele>
        <time>2014-08-28T09:08:07Z</time>
      </trkpt>
      <trkpt lat="49.02957" lon="7.71661">
        <ele>231.33</ele>
        <time>2014-08-28T09:08:09Z</time>
      </trkpt>
      <trkpt lat="49.02961" lon="7.71685">
        <ele>231.33</ele>
        <time>2014-08-28T09:08:11Z</time>
      </trkpt>
      <trkpt lat="49.02966" lon="7.71709">
        <ele>231.33</ele>
        <time>2014-08-28T09:08:13Z</time>
      </trkpt>
      <trkpt lat="49.02969" lon="7.71732">
        <ele>231.33</ele>
        <time>2014-08-28T09:08:15Z</time>
      </trkpt>
      <trkpt lat="49.0297" lon="7.71754">
        <ele>231.81</ele>
        <time>2014-08-28T09:08:17Z</time>
      </trkpt>
      <trkpt lat="49.02971" lon="7.71775">
        <ele>231.81</ele>
        <time>2014-08-28T09:08:19Z</time>
      </trkpt>
      <trkpt lat="49.02971" lon="7.71797">
        <ele>231.81</ele>
        <time>2014-08-28T09:08:21Z</time>
      </trkpt>
      <trkpt lat="49.02971" lon="7.71819">
        <ele>231.81</ele>
        <time>2014-08-28T09:08:23Z</time>
      </trkpt>
      <trkpt lat="49.0297" lon="7.71831">
        <ele>231.81</ele>
        <time>2014-08-28T09:08:24Z</time>
      </trkpt>
      <trkpt lat="49.0297" lon="7.71855">
        <ele>231.81</ele>
        <time>2014-08-28T09:08:26Z</time>
      </trkpt>
      <trkpt lat="49.0297" lon="7.7188">
        <ele>231.33</ele>
        <time>2014-08-28T09:08:28Z</time>
      </trkpt>
      <trkpt lat="49.02969" lon="7.71904">
        <ele>230.85</ele>
        <time>2014-08-28T09:08:30Z</time>
      </trkpt>
      <trkpt lat="49.02968" lon="7.7193">
        <ele>229.89</ele>
        <time>2014-08-28T09:08:32Z</time>
      </trkpt>
      <trkpt lat="49.02968" lon="7.71956">
        <ele>229.41</ele>
        <time>2014-08-28T09:08:34Z</time>
      </trkpt>
      <trkpt lat="49.02967" lon="7.71983">
        <ele>228.93</ele>
        <time>2014-08-28T09:08:36Z</time>
      </trkpt>
      <trkpt lat="49.02966" lon="7.7201">
        <ele>228.45</ele>
        <time>2014-08-28T09:08:38Z</time>
      </trkpt>
      <trkpt lat="49.02963" lon="7.72037">
        <ele>228.45</ele>
        <time>2014-08-28T09:08:40Z</time>
      </trkpt>
      <trkpt lat="49.02957" lon="7.72062">
        <ele>227.97</ele>
        <time>2014-08-28T09:08:42Z</time>
      </trkpt>
      <trkpt lat="49.02949" lon="7.72084">
        <ele>227.97</ele>
        <time>2014-08-28T09:08:44Z</time>
      </trkpt>
      <trkpt lat="49.02939" lon="7.72103">
        <ele>228.45</ele>
        <time>2014-08-28T09:08:46Z</time>
      </trkpt>
      <trkpt lat="49.02928" lon="7.72122">
        <ele>228.45</ele>
        <time>2014-08-28T09:08:48Z</time>
      </trkpt>
      <trkpt lat="49.02918" lon="7.72142">
        <ele>227.97</ele>
        <time>2014-08-28T09:08:50Z</time>
      </trkpt>
      <trkpt lat="49.02908" lon="7.72162">
        <ele>227.97</ele>
        <time>2014-08-28T09:08:52Z</time>
      </trkpt>
      <trkpt lat="49.02898" lon="7.72182">
        <ele>227.49</ele>
        <time>2014-08-28T09:08:54Z</time>
      </trkpt>
      <trkpt lat="49.0289" lon="7.72202">
        <ele>227.49</ele>
        <time>2014-08-28T09:08:56Z</time>
      </trkpt>
      <trkpt lat="49.02881" lon="7.72223">
        <ele>227.01</ele>
        <time>2014-08-28T09:08:58Z</time>
      </trkpt>
      <trkpt lat="49.02872" lon="7.72244">
        <ele>226.53</ele>
        <time>2014-08-28T09:09:00Z</time>
      </trkpt>
      <trkpt lat="49.02863" lon="7.72265">
        <ele>226.53</ele>
        <time>2014-08-28T09:09:02Z</time>
      </trkpt>
      <trkpt lat="49.02854" lon="7.72284">
        <ele>226.05</ele>
        <time>2014-08-28T09:09:04Z</time>
      </trkpt>
      <trkpt lat="49.02845" lon="7.72303">
        <ele>225.57</ele>
        <time>2014-08-28T09:09:06Z</time>
      </trkpt>
      <trkpt lat="49.02836" lon="7.72322">
        <ele>225.57</ele>
        <time>2014-08-28T09:09:08Z</time>
      </trkpt>
      <trkpt lat="49.02826" lon="7.72341">
        <ele>225.57</ele>
        <time>2014-08-28T09:09:10Z</time>
      </trkpt>
      <trkpt lat="49.02817" lon="7.72362">
        <ele>225.57</ele>
        <time>2014-08-28T09:09:12Z</time>
      </trkpt>
      <trkpt lat="49.02808" lon="7.72383">
        <ele>225.57</ele>
        <time>2014-08-28T09:09:14Z</time>
      </trkpt>
      <trkpt lat="49.02801" lon="7.72406">
        <ele>225.57</ele>
        <time>2014-08-28T09:09:16Z</time>
      </trkpt>
      <trkpt lat="49.02793" lon="7.72429">
        <ele>225.57</ele>
        <time>2014-08-28T09:09:18Z</time>
      </trkpt>
      <trkpt lat="49.02787" lon="7.72452">
        <ele>225.57</ele>
        <time>2014-08-28T09:09:20Z</time>
      </trkpt>
      <trkpt lat="49.02782" lon="7.72477">
        <ele>225.09</ele>
        <time>2014-08-28T09:09:22Z</time>
      </trkpt>
      <trkpt lat="49.02777" lon="7.725">
        <ele>225.09</ele>
        <time>2014-08-28T09:09:24Z</time>
      </trkpt>
      <trkpt lat="49.02772" lon="7.72523">
        <ele>225.57</ele>
        <time>2014-08-28T09:09:26Z</time>
      </trkpt>
      <trkpt lat="49.02767" lon="7.72546">
        <ele>225.57</ele>
        <time>2014-08-28T09:09:28Z</time>
      </trkpt>
      <trkpt lat="49.02762" lon="7.72567">
        <ele>225.57</ele>
        <time>2014-08-28T09:09:30Z</time>
      </trkpt>
      <trkpt lat="49.02757" lon="7.72588">
        <ele>225.57</ele>
        <time>2014-08-28T09:09:32Z</time>
      </trkpt>
      <trkpt lat="49.02752" lon="7.72609">
        <ele>226.05</ele>
        <time>2014-08-28T09:09:34Z</time>
      </trkpt>
      <trkpt lat="49.02748" lon="7.72631">
        <ele>226.53</ele>
        <time>2014-08-28T09:09:36Z</time>
      </trkpt>
      <trkpt lat="49.02745" lon="7.72653">
        <ele>226.05</ele>
        <time>2014-08-28T09:09:38Z</time>
      </trkpt>
      <trkpt lat="49.02742" lon="7.72677">
        <ele>225.57</ele>
        <time>2014-08-28T09:09:40Z</time>
      </trkpt>
      <trkpt lat="49.0274" lon="7.72702">
        <ele>225.09</ele>
        <time>2014-08-28T09:09:42Z</time>
      </trkpt>
      <trkpt lat="49.0274" lon="7.72726">
        <ele>224.61</ele>
        <time>2014-08-28T09:09:44Z</time>
      </trkpt>
      <trkpt lat="49.02741" lon="7.7275">
        <ele>224.12</ele>
        <time>2014-08-28T09:09:46Z</time>
      </trkpt>
      <trkpt lat="49.02743" lon="7.72775">
        <ele>224.12</ele>
        <time>2014-08-28T09:09:48Z</time>
      </trkpt>
      <trkpt lat="49.02745" lon="7.728">
        <ele>223.64</ele>
        <time>2014-08-28T09:09:50Z</time>
      </trkpt>
      <trkpt lat="49.02746" lon="7.72825">
        <ele>223.64</ele>
        <time>2014-08-28T09:09:52Z</time>
      </trkpt>
      <trkpt lat="49.02748" lon="7.7285">
        <ele>223.16</ele>
        <time>2014-08-28T09:09:54Z</time>
      </trkpt>
      <trkpt lat="49.02749" lon="7.72875">
        <ele>222.68</ele>
        <time>2014-08-28T09:09:56Z</time>
      </trkpt>
      <trkpt lat="49.02751" lon="7.729">
        <ele>222.68</ele>
        <time>2014-08-28T09:09:58Z</time>
      </trkpt>
      <trkpt lat="49.02753" lon="7.72924">
        <ele>222.68</ele>
        <time>2014-08-28T09:10:00Z</time>
      </trkpt>
      <trkpt lat="49.02755" lon="7.72948">
        <ele>222.68</ele>
        <time>2014-08-28T09:10:02Z</time>
      </trkpt>
      <trkpt lat="49.02757" lon="7.72973">
        <ele>222.2</ele>
        <time>2014-08-28T09:10:04Z</time>
      </trkpt>
      <trkpt lat="49.02759" lon="7.72998">
        <ele>222.2</ele>
        <time>2014-08-28T09:10:06Z</time>
      </trkpt>
      <trkpt lat="49.02762" lon="7.73023">
        <ele>221.72</ele>
        <time>2014-08-28T09:10:08Z</time>
      </trkpt>
      <trkpt lat="49.02764" lon="7.73047">
        <ele>221.72</ele>
        <time>2014-08-28T09:10:10Z</time>
      </trkpt>
      <trkpt lat="49.02766" lon="7.73071">
        <ele>221.24</ele>
        <time>2014-08-28T09:10:12Z</time>
      </trkpt>
      <trkpt lat="49.02765" lon="7.73096">
        <ele>221.24</ele>
        <time>2014-08-28T09:10:14Z</time>
      </trkpt>
      <trkpt lat="49.0276" lon="7.7312">
        <ele>220.76</ele>
        <time>2014-08-28T09:10:16Z</time>
      </trkpt>
      <trkpt lat="49.02752" lon="7.73143">
        <ele>221.24</ele>
        <time>2014-08-28T09:10:18Z</time>
      </trkpt>
      <trkpt lat="49.02743" lon="7.73163">
        <ele>221.24</ele>
        <time>2014-08-28T09:10:20Z</time>
      </trkpt>
      <trkpt lat="49.02735" lon="7.73183">
        <ele>221.72</ele>
        <time>2014-08-28T09:10:22Z</time>
      </trkpt>
      <trkpt lat="49.02726" lon="7.73202">
        <ele>222.2</ele>
        <time>2014-08-28T09:10:24Z</time>
      </trkpt>
      <trkpt lat="49.02719" lon="7.73222">
        <ele>222.2</ele>
        <time>2014-08-28T09:10:26Z</time>
      </trkpt>
      <trkpt lat="49.02713" lon="7.73243">
        <ele>222.68</ele>
        <time>2014-08-28T09:10:28Z</time>
      </trkpt>
      <trkpt lat="49.0271" lon="7.73265">
        <ele>222.68</ele>
        <time>2014-08-28T09:10:30Z</time>
      </trkpt>
      <trkpt lat="49.0271" lon="7.73288">
        <ele>223.16</ele>
        <time>2014-08-28T09:10:32Z</time>
      </trkpt>
      <trkpt lat="49.02714" lon="7.73311">
        <ele>223.16</ele>
        <time>2014-08-28T09:10:34Z</time>
      </trkpt>
      <trkpt lat="49.02719" lon="7.73335">
        <ele>223.16</ele>
        <time>2014-08-28T09:10:36Z</time>
      </trkpt>
      <trkpt lat="49.02726" lon="7.73359">
        <ele>223.64</ele>
        <time>2014-08-28T09:10:38Z</time>
      </trkpt>
      <trkpt lat="49.02735" lon="7.73383">
        <ele>223.16</ele>
        <time>2014-08-28T09:10:40Z</time>
      </trkpt>
      <trkpt lat="49.02739" lon="7.73395">
        <ele>223.16</ele>
        <time>2014-08-28T09:10:41Z</time>
      </trkpt>
      <trkpt lat="49.02744" lon="7.73407">
        <ele>223.64</ele>
        <time>2014-08-28T09:10:42Z</time>
      </trkpt>
      <trkpt lat="49.02753" lon="7.7343">
        <ele>223.64</ele>
        <time>2014-08-28T09:10:44Z</time>
      </trkpt>
      <trkpt lat="49.02762" lon="7.73452">
        <ele>223.64</ele>
        <time>2014-08-28T09:10:46Z</time>
      </trkpt>
      <trkpt lat="49.02771" lon="7.73475">
        <ele>224.12</ele>
        <time>2014-08-28T09:10:48Z</time>
      </trkpt>
      <trkpt lat="49.02779" lon="7.73498">
        <ele>224.61</ele>
        <time>2014-08-28T09:10:50Z</time>
      </trkpt>
      <trkpt lat="49.02788" lon="7.73522">
        <ele>224.61</ele>
        <time>2014-08-28T09:10:52Z</time>
      </trkpt>
      <trkpt lat="49.02797" lon="7.73546">
        <ele>224.61</ele>
        <time>2014-08-28T09:10:54Z</time>
      </trkpt>
      <trkpt lat="49.02802" lon="7.73558">
        <ele>224.61</ele>
        <time>2014-08-28T09:10:55Z</time>
      </trkpt>
      <trkpt lat="49.02807" lon="7.7357">
        <ele>224.61</ele>
        <time>2014-08-28T09:10:56Z</time>
      </trkpt>
      <trkpt lat="49.02817" lon="7.73594">
        <ele>224.61</ele>
        <time>2014-08-28T09:10:58Z</time>
      </trkpt>
      <trkpt lat="49.02822" lon="7.73606">
        <ele>224.61</ele>
        <time>2014-08-28T09:10:59Z</time>
      </trkpt>
      <trkpt lat="49.02827" lon="7.73618">
        <ele>224.12</ele>
        <time>2014-08-28T09:11:00Z</time>
      </trkpt>
      <trkpt lat="49.02837" lon="7.73642">
        <ele>223.64</ele>
        <time>2014-08-28T09:11:02Z</time>
      </trkpt>
      <trkpt lat="49.02848" lon="7.73664">
        <ele>223.64</ele>
        <time>2014-08-28T09:11:04Z</time>
      </trkpt>
      <trkpt lat="49.02858" lon="7.73686">
        <ele>223.16</ele>
        <time>2014-08-28T09:11:06Z</time>
      </trkpt>
      <trkpt lat="49.02868" lon="7.73707">
        <ele>223.16</ele>
        <time>2014-08-28T09:11:08Z</time>
      </trkpt>
      <trkpt lat="49.02878" lon="7.73728">
        <ele>223.16</ele>
        <time>2014-08-28T09:11:10Z</time>
      </trkpt>
      <trkpt lat="49.02887" lon="7.73748">
        <ele>223.16</ele>
        <time>2014-08-28T09:11:12Z</time>
      </trkpt>
      <trkpt lat="49.02896" lon="7.73768">
        <ele>223.16</ele>
        <time>2014-08-28T09:11:14Z</time>
      </trkpt>
      <trkpt lat="49.02906" lon="7.73787">
        <ele>223.16</ele>
        <time>2014-08-28T09:11:16Z</time>
      </trkpt>
      <trkpt lat="49.02914" lon="7.73807">
        <ele>223.16</ele>
        <time>2014-08-28T09:11:18Z</time>
      </trkpt>
      <trkpt lat="49.02923" lon="7.73826">
        <ele>222.68</ele>
        <time>2014-08-28T09:11:20Z</time>
      </trkpt>
      <trkpt lat="49.02931" lon="7.73844">
        <ele>223.16</ele>
        <time>2014-08-28T09:11:22Z</time>
      </trkpt>
      <trkpt lat="49.0294" lon="7.73863">
        <ele>223.16</ele>
        <time>2014-08-28T09:11:24Z</time>
      </trkpt>
      <trkpt lat="49.02948" lon="7.73881">
        <ele>223.16</ele>
        <time>2014-08-28T09:11:26Z</time>
      </trkpt>
      <trkpt lat="49.02956" lon="7.73899">
        <ele>223.64</ele>
        <time>2014-08-28T09:11:28Z</time>
      </trkpt>
      <trkpt lat="49.02964" lon="7.73917">
        <ele>223.64</ele>
        <time>2014-08-28T09:11:30Z</time>
      </trkpt>
      <trkpt lat="49.02972" lon="7.73934">
        <ele>224.12</ele>
        <time>2014-08-28T09:11:32Z</time>
      </trkpt>
      <trkpt lat="49.02981" lon="7.73952">
        <ele>224.12</ele>
        <time>2014-08-28T09:11:34Z</time>
      </trkpt>
      <trkpt lat="49.02989" lon="7.7397">
        <ele>224.12</ele>
        <time>2014-08-28T09:11:36Z</time>
      </trkpt>
      <trkpt lat="49.02997" lon="7.73988">
        <ele>223.64</ele>
        <time>2014-08-28T09:11:38Z</time>
      </trkpt>
      <trkpt lat="49.03004" lon="7.74007">
        <ele>223.16</ele>
        <time>2014-08-28T09:11:40Z</time>
      </trkpt>
      <trkpt lat="49.0301" lon="7.74029">
        <ele>223.16</ele>
        <time>2014-08-28T09:11:42Z</time>
      </trkpt>
      <trkpt lat="49.03015" lon="7.74052">
        <ele>222.2</ele>
        <time>2014-08-28T09:11:44Z</time>
      </trkpt>
      <trkpt lat="49.03015" lon="7.74078">
        <ele>221.72</ele>
        <time>2014-08-28T09:11:46Z</time>
      </trkpt>
      <trkpt lat="49.03013" lon="7.74104">
        <ele>221.72</ele>
        <time>2014-08-28T09:11:48Z</time>
      </trkpt>
      <trkpt lat="49.03007" lon="7.74128">
        <ele>221.24</ele>
        <time>2014-08-28T09:11:50Z</time>
      </trkpt>
      <trkpt lat="49.03002" lon="7.74152">
        <ele>221.24</ele>
        <time>2014-08-28T09:11:52Z</time>
      </trkpt>
      <trkpt lat="49.02996" lon="7.74175">
        <ele>221.24</ele>
        <time>2014-08-28T09:11:54Z</time>
      </trkpt>
      <trkpt lat="49.02991" lon="7.74197">
        <ele>221.24</ele>
        <time>2014-08-28T09:11:56Z</time>
      </trkpt>
      <trkpt lat="49.02987" lon="7.7422">
        <ele>221.24</ele>
        <time>2014-08-28T09:11:58Z</time>
      </trkpt>
      <trkpt lat="49.02982" lon="7.74242">
        <ele>221.72</ele>
        <time>2014-08-28T09:12:00Z</time>
      </trkpt>
      <trkpt lat="49.02978" lon="7.74265">
        <ele>221.72</ele>
        <time>2014-08-28T09:12:02Z</time>
      </trkpt>
      <trkpt lat="49.02974" lon="7.74287">
        <ele>222.2</ele>
        <time>2014-08-28T09:12:04Z</time>
      </trkpt>
      <trkpt lat="49.02971" lon="7.7431">
        <ele>222.2</ele>
        <time>2014-08-28T09:12:06Z</time>
      </trkpt>
      <trkpt lat="49.02967" lon="7.74332">
        <ele>222.68</ele>
        <time>2014-08-28T09:12:08Z</time>
      </trkpt>
      <trkpt lat="49.02964" lon="7.74353">
        <ele>222.68</ele>
        <time>2014-08-28T09:12:10Z</time>
      </trkpt>
      <trkpt lat="49.02961" lon="7.74374">
        <ele>222.68</ele>
        <time>2014-08-28T09:12:12Z</time>
      </trkpt>
      <trkpt lat="49.0296" lon="7.74396">
        <ele>222.68</ele>
        <time>2014-08-28T09:12:14Z</time>
      </trkpt>
      <trkpt lat="49.02961" lon="7.74417">
        <ele>223.16</ele>
        <time>2014-08-28T09:12:16Z</time>
      </trkpt>
      <trkpt lat="49.02964" lon="7.74437">
        <ele>223.16</ele>
        <time>2014-08-28T09:12:18Z</time>
      </trkpt>
      <trkpt lat="49.02969" lon="7.74456">
        <ele>223.16</ele>
        <time>2014-08-28T09:12:20Z</time>
      </trkpt>
      <trkpt lat="49.02974" lon="7.74474">
        <ele>223.64</ele>
        <time>2014-08-28T09:12:22Z</time>
      </trkpt>
      <trkpt lat="49.02979" lon="7.74491">
        <ele>224.12</ele>
        <time>2014-08-28T09:12:24Z</time>
      </trkpt>
      <trkpt lat="49.02984" lon="7.74507">
        <ele>224.12</ele>
        <time>2014-08-28T09:12:26Z</time>
      </trkpt>
      <trkpt lat="49.0299" lon="7.74523">
        <ele>224.12</ele>
        <time>2014-08-28T09:12:28Z</time>
      </trkpt>
      <trkpt lat="49.02995" lon="7.74538">
        <ele>224.12</ele>
        <time>2014-08-28T09:12:30Z</time>
      </trkpt>
      <trkpt lat="49.03002" lon="7.74551">
        <ele>224.12</ele>
        <time>2014-08-28T09:12:32Z</time>
      </trkpt>
      <trkpt lat="49.03009" lon="7.74566">
        <ele>223.64</ele>
        <time>2014-08-28T09:12:34Z</time>
      </trkpt>
      <trkpt lat="49.03016" lon="7.74581">
        <ele>223.64</ele>
        <time>2014-08-28T09:12:36Z</time>
      </trkpt>
      <trkpt lat="49.03022" lon="7.74597">
        <ele>223.64</ele>
        <time>2014-08-28T09:12:38Z</time>
      </trkpt>
      <trkpt lat="49.03028" lon="7.74614">
        <ele>224.12</ele>
        <time>2014-08-28T09:12:40Z</time>
      </trkpt>
      <trkpt lat="49.03035" lon="7.74631">
        <ele>224.12</ele>
        <time>2014-08-28T09:12:42Z</time>
      </trkpt>
      <trkpt lat="49.03042" lon="7.74648">
        <ele>225.09</ele>
        <time>2014-08-28T09:12:44Z</time>
      </trkpt>
      <trkpt lat="49.03049" lon="7.74665">
        <ele>225.57</ele>
        <time>2014-08-28T09:12:46Z</time>
      </trkpt>
      <trkpt lat="49.03056" lon="7.74681">
        <ele>226.05</ele>
        <time>2014-08-28T09:12:48Z</time>
      </trkpt>
      <trkpt lat="49.03062" lon="7.74697">
        <ele>227.01</ele>
        <time>2014-08-28T09:12:50Z</time>
      </trkpt>
      <trkpt lat="49.03069" lon="7.74711">
        <ele>227.49</ele>
        <time>2014-08-28T09:12:52Z</time>
      </trkpt>
      <trkpt lat="49.03076" lon="7.74725">
        <ele>228.45</ele>
        <time>2014-08-28T09:12:54Z</time>
      </trkpt>
      <trkpt lat="49.03083" lon="7.74738">
        <ele>228.93</ele>
        <time>2014-08-28T09:12:56Z</time>
      </trkpt>
      <trkpt lat="49.0309" lon="7.74751">
        <ele>229.41</ele>
        <time>2014-08-28T09:12:58Z</time>
      </trkpt>
      <trkpt lat="49.03096" lon="7.74763">
        <ele>229.41</ele>
        <time>2014-08-28T09:13:00Z</time>
      </trkpt>
      <trkpt lat="49.03102" lon="7.74776">
        <ele>229.41</ele>
        <time>2014-08-28T09:13:02Z</time>
      </trkpt>
      <trkpt lat="49.03108" lon="7.7479">
        <ele>229.89</ele>
        <time>2014-08-28T09:13:04Z</time>
      </trkpt>
      <trkpt lat="49.03115" lon="7.74806">
        <ele>229.41</ele>
        <time>2014-08-28T09:13:06Z</time>
      </trkpt>
      <trkpt lat="49.03123" lon="7.74824">
        <ele>229.41</ele>
        <time>2014-08-28T09:13:08Z</time>
      </trkpt>
      <trkpt lat="49.03132" lon="7.74841">
        <ele>228.93</ele>
        <time>2014-08-28T09:13:10Z</time>
      </trkpt>
      <trkpt lat="49.03142" lon="7.74856">
        <ele>228.93</ele>
        <time>2014-08-28T09:13:12Z</time>
      </trkpt>
      <trkpt lat="49.03153" lon="7.74871">
        <ele>228.93</ele>
        <time>2014-08-28T09:13:14Z</time>
      </trkpt>
      <trkpt lat="49.03164" lon="7.74884">
        <ele>229.41</ele>
        <time>2014-08-28T09:13:16Z</time>
      </trkpt>
      <trkpt lat="49.03174" lon="7.74897">
        <ele>229.89</ele>
        <time>2014-08-28T09:13:18Z</time>
      </trkpt>
      <trkpt lat="49.03184" lon="7.74911">
        <ele>230.37</ele>
        <time>2014-08-28T09:13:20Z</time>
      </trkpt>
      <trkpt lat="49.03193" lon="7.74927">
        <ele>230.37</ele>
        <time>2014-08-28T09:13:22Z</time>
      </trkpt>
      <trkpt lat="49.032" lon="7.74945">
        <ele>230.37</ele>
        <time>2014-08-28T09:13:24Z</time>
      </trkpt>
      <trkpt lat="49.03204" lon="7.74967">
        <ele>230.37</ele>
        <time>2014-08-28T09:13:26Z</time>
      </trkpt>
      <trkpt lat="49.03206" lon="7.74989">
        <ele>230.85</ele>
        <time>2014-08-28T09:13:28Z</time>
      </trkpt>
      <trkpt lat="49.03209" lon="7.75012">
        <ele>230.85</ele>
        <time>2014-08-28T09:13:30Z</time>
      </trkpt>
      <trkpt lat="49.03211" lon="7.75036">
        <ele>231.33</ele>
        <time>2014-08-28T09:13:32Z</time>
      </trkpt>
      <trkpt lat="49.03213" lon="7.75058">
        <ele>231.33</ele>
        <time>2014-08-28T09:13:34Z</time>
      </trkpt>
      <trkpt lat="49.03216" lon="7.7508">
        <ele>232.3</ele>
        <time>2014-08-28T09:13:36Z</time>
      </trkpt>
      <trkpt lat="49.03219" lon="7.75102">
        <ele>232.78</ele>
        <time>2014-08-28T09:13:38Z</time>
      </trkpt>
      <trkpt lat="49.03222" lon="7.75125">
        <ele>233.26</ele>
        <time>2014-08-28T09:13:40Z</time>
      </trkpt>
      <trkpt lat="49.03224" lon="7.75148">
        <ele>233.74</ele>
        <time>2014-08-28T09:13:42Z</time>
      </trkpt>
      <trkpt lat="49.03227" lon="7.75173">
        <ele>234.22</ele>
        <time>2014-08-28T09:13:44Z</time>
      </trkpt>
      <trkpt lat="49.03229" lon="7.75197">
        <ele>234.22</ele>
        <time>2014-08-28T09:13:46Z</time>
      </trkpt>
      <trkpt lat="49.03231" lon="7.75222">
        <ele>233.74</ele>
        <time>2014-08-28T09:13:48Z</time>
      </trkpt>
      <trkpt lat="49.03233" lon="7.75248">
        <ele>232.78</ele>
        <time>2014-08-28T09:13:50Z</time>
      </trkpt>
      <trkpt lat="49.03233" lon="7.75262">
        <ele>232.3</ele>
        <time>2014-08-28T09:13:51Z</time>
      </trkpt>
      <trkpt lat="49.03233" lon="7.75277">
        <ele>231.81</ele>
        <time>2014-08-28T09:13:52Z</time>
      </trkpt>
      <trkpt lat="49.03233" lon="7.75291">
        <ele>231.33</ele>
        <time>2014-08-28T09:13:53Z</time>
      </trkpt>
      <trkpt lat="49.03231" lon="7.75318">
        <ele>230.37</ele>
        <time>2014-08-28T09:13:55Z</time>
      </trkpt>
      <trkpt lat="49.03228" lon="7.75332">
        <ele>229.89</ele>
        <time>2014-08-28T09:13:56Z</time>
      </trkpt>
      <trkpt lat="49.03225" lon="7.75347">
        <ele>229.89</ele>
        <time>2014-08-28T09:13:57Z</time>
      </trkpt>
      <trkpt lat="49.03222" lon="7.75361">
        <ele>229.41</ele>
        <time>2014-08-28T09:13:58Z</time>
      </trkpt>
      <trkpt lat="49.03218" lon="7.75376">
        <ele>228.93</ele>
        <time>2014-08-28T09:13:59Z</time>
      </trkpt>
      <trkpt lat="49.03215" lon="7.7539">
        <ele>228.45</ele>
        <time>2014-08-28T09:14:00Z</time>
      </trkpt>
      <trkpt lat="49.03211" lon="7.75404">
        <ele>228.45</ele>
        <time>2014-08-28T09:14:01Z</time>
      </trkpt>
      <trkpt lat="49.03208" lon="7.75419">
        <ele>227.97</ele>
        <time>2014-08-28T09:14:02Z</time>
      </trkpt>
      <trkpt lat="49.03204" lon="7.75433">
        <ele>227.97</ele>
        <time>2014-08-28T09:14:03Z</time>
      </trkpt>
      <trkpt lat="49.03201" lon="7.75448">
        <ele>227.49</ele>
        <time>2014-08-28T09:14:04Z</time>
      </trkpt>
      <trkpt lat="49.03198" lon="7.75462">
        <ele>227.49</ele>
        <time>2014-08-28T09:14:05Z</time>
      </trkpt>
      <trkpt lat="49.03195" lon="7.75476">
        <ele>227.01</ele>
        <time>2014-08-28T09:14:06Z</time>
      </trkpt>
      <trkpt lat="49.03192" lon="7.7549">
        <ele>227.01</ele>
        <time>2014-08-28T09:14:07Z</time>
      </trkpt>
      <trkpt lat="49.0319" lon="7.75503">
        <ele>226.53</ele>
        <time>2014-08-28T09:14:08Z</time>
      </trkpt>
      <trkpt lat="49.03188" lon="7.75517">
        <ele>226.53</ele>
        <time>2014-08-28T09:14:09Z</time>
      </trkpt>
      <trkpt lat="49.03185" lon="7.75531">
        <ele>226.53</ele>
        <time>2014-08-28T09:14:10Z</time>
      </trkpt>
      <trkpt lat="49.03181" lon="7.75558">
        <ele>226.53</ele>
        <time>2014-08-28T09:14:12Z</time>
      </trkpt>
      <trkpt lat="49.03179" lon="7.75572">
        <ele>226.05</ele>
        <time>2014-08-28T09:14:13Z</time>
      </trkpt>
      <trkpt lat="49.03174" lon="7.75598">
        <ele>226.05</ele>
        <time>2014-08-28T09:14:15Z</time>
      </trkpt>
      <trkpt lat="49.0317" lon="7.75624">
        <ele>226.05</ele>
        <time>2014-08-28T09:14:17Z</time>
      </trkpt>
      <trkpt lat="49.03165" lon="7.75648">
        <ele>226.53</ele>
        <time>2014-08-28T09:14:19Z</time>
      </trkpt>
      <trkpt lat="49.0316" lon="7.75673">
        <ele>227.01</ele>
        <time>2014-08-28T09:14:21Z</time>
      </trkpt>
      <trkpt lat="49.03156" lon="7.75699">
        <ele>227.49</ele>
        <time>2014-08-28T09:14:23Z</time>
      </trkpt>
      <trkpt lat="49.03152" lon="7.75726">
        <ele>227.97</ele>
        <time>2014-08-28T09:14:25Z</time>
      </trkpt>
      <trkpt lat="49.03149" lon="7.75752">
        <ele>228.45</ele>
        <time>2014-08-28T09:14:27Z</time>
      </trkpt>
      <trkpt lat="49.03147" lon="7.75779">
        <ele>228.45</ele>
        <time>2014-08-28T09:14:29Z</time>
      </trkpt>
      <trkpt lat="49.03145" lon="7.75805">
        <ele>228.45</ele>
        <time>2014-08-28T09:14:31Z</time>
      </trkpt>
      <trkpt lat="49.03144" lon="7.75832">
        <ele>227.97</ele>
        <time>2014-08-28T09:14:33Z</time>
      </trkpt>
      <trkpt lat="49.03143" lon="7.75859">
        <ele>227.01</ele>
        <time>2014-08-28T09:14:35Z</time>
      </trkpt>
      <trkpt lat="49.03143" lon="7.75885">
        <ele>226.53</ele>
        <time>2014-08-28T09:14:37Z</time>
      </trkpt>
      <trkpt lat="49.03144" lon="7.7591">
        <ele>226.05</ele>
        <time>2014-08-28T09:14:39Z</time>
      </trkpt>
      <trkpt lat="49.03144" lon="7.75935">
        <ele>226.05</ele>
        <time>2014-08-28T09:14:41Z</time>
      </trkpt>
      <trkpt lat="49.03144" lon="7.7596">
        <ele>225.57</ele>
        <time>2014-08-28T09:14:43Z</time>
      </trkpt>
      <trkpt lat="49.03145" lon="7.75986">
        <ele>225.09</ele>
        <time>2014-08-28T09:14:45Z</time>
      </trkpt>
      <trkpt lat="49.03144" lon="7.7601">
        <ele>224.61</ele>
        <time>2014-08-28T09:14:47Z</time>
      </trkpt>
      <trkpt lat="49.03142" lon="7.76035">
        <ele>224.12</ele>
        <time>2014-08-28T09:14:49Z</time>
      </trkpt>
      <trkpt lat="49.03141" lon="7.7606">
        <ele>223.16</ele>
        <time>2014-08-28T09:14:51Z</time>
      </trkpt>
      <trkpt lat="49.03138" lon="7.76085">
        <ele>223.16</ele>
        <time>2014-08-28T09:14:53Z</time>
      </trkpt>
      <trkpt lat="49.03136" lon="7.76107">
        <ele>222.68</ele>
        <time>2014-08-28T09:14:55Z</time>
      </trkpt>
      <trkpt lat="49.03132" lon="7.76129">
        <ele>222.68</ele>
        <time>2014-08-28T09:14:57Z</time>
      </trkpt>
      <trkpt lat="49.03129" lon="7.76151">
        <ele>222.68</ele>
        <time>2014-08-28T09:14:59Z</time>
      </trkpt>
      <trkpt lat="49.03124" lon="7.76175">
        <ele>222.2</ele>
        <time>2014-08-28T09:15:01Z</time>
      </trkpt>
      <trkpt lat="49.0312" lon="7.76199">
        <ele>222.2</ele>
        <time>2014-08-28T09:15:03Z</time>
      </trkpt>
      <trkpt lat="49.03115" lon="7.76222">
        <ele>222.2</ele>
        <time>2014-08-28T09:15:05Z</time>
      </trkpt>
      <trkpt lat="49.03109" lon="7.76244">
        <ele>222.68</ele>
        <time>2014-08-28T09:15:07Z</time>
      </trkpt>
      <trkpt lat="49.03102" lon="7.76265">
        <ele>223.64</ele>
        <time>2014-08-28T09:15:09Z</time>
      </trkpt>
      <trkpt lat="49.03094" lon="7.76285">
        <ele>224.61</ele>
        <time>2014-08-28T09:15:11Z</time>
      </trkpt>
      <trkpt lat="49.03087" lon="7.76304">
        <ele>225.57</ele>
        <time>2014-08-28T09:15:13Z</time>
      </trkpt>
      <trkpt lat="49.03079" lon="7.76324">
        <ele>226.53</ele>
        <time>2014-08-28T09:15:15Z</time>
      </trkpt>
      <trkpt lat="49.03071" lon="7.76343">
        <ele>227.49</ele>
        <time>2014-08-28T09:15:17Z</time>
      </trkpt>
      <trkpt lat="49.03063" lon="7.76363">
        <ele>228.45</ele>
        <time>2014-08-28T09:15:19Z</time>
      </trkpt>
      <trkpt lat="49.03055" lon="7.76383">
        <ele>229.89</ele>
        <time>2014-08-28T09:15:21Z</time>
      </trkpt>
      <trkpt lat="49.03046" lon="7.76401">
        <ele>231.33</ele>
        <time>2014-08-28T09:15:23Z</time>
      </trkpt>
      <trkpt lat="49.03038" lon="7.7642">
        <ele>231.81</ele>
        <time>2014-08-28T09:15:25Z</time>
      </trkpt>
      <trkpt lat="49.03031" lon="7.76441">
        <ele>231.81</ele>
        <time>2014-08-28T09:15:27Z</time>
      </trkpt>
      <trkpt lat="49.03024" lon="7.76459">
        <ele>231.33</ele>
        <time>2014-08-28T09:15:29Z</time>
      </trkpt>
      <trkpt lat="49.03018" lon="7.76477">
        <ele>230.85</ele>
        <time>2014-08-28T09:15:31Z</time>
      </trkpt>
      <trkpt lat="49.03011" lon="7.76495">
        <ele>230.37</ele>
        <time>2014-08-28T09:15:33Z</time>
      </trkpt>
      <trkpt lat="49.03005" lon="7.76513">
        <ele>229.41</ele>
        <time>2014-08-28T09:15:35Z</time>
      </trkpt>
      <trkpt lat="49.02998" lon="7.7653">
        <ele>228.45</ele>
        <time>2014-08-28T09:15:37Z</time>
      </trkpt>
      <trkpt lat="49.0299" lon="7.76548">
        <ele>227.01</ele>
        <time>2014-08-28T09:15:39Z</time>
      </trkpt>
      <trkpt lat="49.02982" lon="7.76567">
        <ele>226.53</ele>
        <time>2014-08-28T09:15:41Z</time>
      </trkpt>
      <trkpt lat="49.02974" lon="7.76585">
        <ele>225.57</ele>
        <time>2014-08-28T09:15:43Z</time>
      </trkpt>
      <trkpt lat="49.02966" lon="7.76601">
        <ele>224.12</ele>
        <time>2014-08-28T09:15:45Z</time>
      </trkpt>
      <trkpt lat="49.02957" lon="7.76616">
        <ele>222.68</ele>
        <time>2014-08-28T09:15:47Z</time>
      </trkpt>
      <trkpt lat="49.02944" lon="7.76628">
        <ele>220.76</ele>
        <time>2014-08-28T09:15:49Z</time>
      </trkpt>
      <trkpt lat="49.02931" lon="7.76637">
        <ele>219.8</ele>
        <time>2014-08-28T09:15:51Z</time>
      </trkpt>
      <trkpt lat="49.02917" lon="7.76645">
        <ele>219.32</ele>
        <time>2014-08-28T09:15:53Z</time>
      </trkpt>
      <trkpt lat="49.02903" lon="7.76653">
        <ele>218.36</ele>
        <time>2014-08-28T09:15:55Z</time>
      </trkpt>
      <trkpt lat="49.02889" lon="7.76662">
        <ele>217.88</ele>
        <time>2014-08-28T09:15:57Z</time>
      </trkpt>
      <trkpt lat="49.02875" lon="7.76673">
        <ele>216.91</ele>
        <time>2014-08-28T09:15:59Z</time>
      </trkpt>
      <trkpt lat="49.02861" lon="7.76685">
        <ele>215.95</ele>
        <time>2014-08-28T09:16:01Z</time>
      </trkpt>
      <trkpt lat="49.02847" lon="7.76698">
        <ele>215.95</ele>
        <time>2014-08-28T09:16:03Z</time>
      </trkpt>
      <trkpt lat="49.02833" lon="7.7671">
        <ele>215.47</ele>
        <time>2014-08-28T09:16:05Z</time>
      </trkpt>
      <trkpt lat="49.02818" lon="7.76723">
        <ele>214.99</ele>
        <time>2014-08-28T09:16:07Z</time>
      </trkpt>
      <trkpt lat="49.02805" lon="7.76738">
        <ele>214.03</ele>
        <time>2014-08-28T09:16:09Z</time>
      </trkpt>
      <trkpt lat="49.02793" lon="7.76754">
        <ele>213.07</ele>
        <time>2014-08-28T09:16:11Z</time>
      </trkpt>
      <trkpt lat="49.02781" lon="7.7677">
        <ele>211.63</ele>
        <time>2014-08-28T09:16:13Z</time>
      </trkpt>
      <trkpt lat="49.02769" lon="7.76788">
        <ele>210.67</ele>
        <time>2014-08-28T09:16:15Z</time>
      </trkpt>
      <trkpt lat="49.02758" lon="7.76807">
        <ele>210.19</ele>
        <time>2014-08-28T09:16:17Z</time>
      </trkpt>
      <trkpt lat="49.02747" lon="7.76826">
        <ele>209.22</ele>
        <time>2014-08-28T09:16:19Z</time>
      </trkpt>
      <trkpt lat="49.02736" lon="7.76844">
        <ele>208.74</ele>
        <time>2014-08-28T09:16:21Z</time>
      </trkpt>
      <trkpt lat="49.02725" lon="7.76862">
        <ele>208.26</ele>
        <time>2014-08-28T09:16:23Z</time>
      </trkpt>
      <trkpt lat="49.02715" lon="7.76879">
        <ele>208.26</ele>
        <time>2014-08-28T09:16:25Z</time>
      </trkpt>
      <trkpt lat="49.02705" lon="7.76898">
        <ele>207.78</ele>
        <time>2014-08-28T09:16:27Z</time>
      </trkpt>
      <trkpt lat="49.02694" lon="7.76916">
        <ele>207.3</ele>
        <time>2014-08-28T09:16:29Z</time>
      </trkpt>
      <trkpt lat="49.02683" lon="7.76934">
        <ele>206.82</ele>
        <time>2014-08-28T09:16:31Z</time>
      </trkpt>
      <trkpt lat="49.02672" lon="7.76951">
        <ele>206.34</ele>
        <time>2014-08-28T09:16:33Z</time>
      </trkpt>
      <trkpt lat="49.02659" lon="7.76966">
        <ele>205.86</ele>
        <time>2014-08-28T09:16:35Z</time>
      </trkpt>
      <trkpt lat="49.02646" lon="7.76979">
        <ele>205.86</ele>
        <time>2014-08-28T09:16:37Z</time>
      </trkpt>
      <trkpt lat="49.02633" lon="7.76993">
        <ele>205.38</ele>
        <time>2014-08-28T09:16:39Z</time>
      </trkpt>
      <trkpt lat="49.02623" lon="7.7701">
        <ele>205.38</ele>
        <time>2014-08-28T09:16:41Z</time>
      </trkpt>
      <trkpt lat="49.02614" lon="7.77027">
        <ele>205.38</ele>
        <time>2014-08-28T09:16:43Z</time>
      </trkpt>
      <trkpt lat="49.02604" lon="7.77045">
        <ele>205.38</ele>
        <time>2014-08-28T09:16:45Z</time>
      </trkpt>
      <trkpt lat="49.02594" lon="7.77059">
        <ele>205.86</ele>
        <time>2014-08-28T09:16:47Z</time>
      </trkpt>
      <trkpt lat="49.02581" lon="7.77069">
        <ele>206.34</ele>
        <time>2014-08-28T09:16:49Z</time>
      </trkpt>
      <trkpt lat="49.02567" lon="7.77073">
        <ele>206.34</ele>
        <time>2014-08-28T09:16:51Z</time>
      </trkpt>
      <trkpt lat="49.02552" lon="7.77069">
        <ele>205.38</ele>
        <time>2014-08-28T09:16:53Z</time>
      </trkpt>
      <trkpt lat="49.02536" lon="7.77064">
        <ele>205.38</ele>
        <time>2014-08-28T09:16:55Z</time>
      </trkpt>
      <trkpt lat="49.0252" lon="7.77058">
        <ele>205.38</ele>
        <time>2014-08-28T09:16:57Z</time>
      </trkpt>
      <trkpt lat="49.02504" lon="7.77053">
        <ele>204.9</ele>
        <time>2014-08-28T09:16:59Z</time>
      </trkpt>
      <trkpt lat="49.02488" lon="7.77048">
        <ele>204.42</ele>
        <time>2014-08-28T09:17:01Z</time>
      </trkpt>
      <trkpt lat="49.02471" lon="7.77043">
        <ele>203.94</ele>
        <time>2014-08-28T09:17:03Z</time>
      </trkpt>
      <trkpt lat="49.02455" lon="7.77037">
        <ele>203.46</ele>
        <time>2014-08-28T09:17:05Z</time>
      </trkpt>
      <trkpt lat="49.02439" lon="7.7703">
        <ele>202.98</ele>
        <time>2014-08-28T09:17:07Z</time>
      </trkpt>
      <trkpt lat="49.02423" lon="7.77022">
        <ele>202.49</ele>
        <time>2014-08-28T09:17:09Z</time>
      </trkpt>
      <trkpt lat="49.02408" lon="7.77013">
        <ele>202.49</ele>
        <time>2014-08-28T09:17:11Z</time>
      </trkpt>
      <trkpt lat="49.02393" lon="7.77005">
        <ele>202.01</ele>
        <time>2014-08-28T09:17:13Z</time>
      </trkpt>
      <trkpt lat="49.02377" lon="7.76998">
        <ele>201.53</ele>
        <time>2014-08-28T09:17:15Z</time>
      </trkpt>
      <trkpt lat="49.02361" lon="7.76996">
        <ele>201.53</ele>
        <time>2014-08-28T09:17:17Z</time>
      </trkpt>
      <trkpt lat="49.02344" lon="7.76999">
        <ele>201.53</ele>
        <time>2014-08-28T09:17:19Z</time>
      </trkpt>
      <trkpt lat="49.02328" lon="7.77007">
        <ele>202.01</ele>
        <time>2014-08-28T09:17:21Z</time>
      </trkpt>
      <trkpt lat="49.02314" lon="7.77017">
        <ele>202.49</ele>
        <time>2014-08-28T09:17:23Z</time>
      </trkpt>
      <trkpt lat="49.02299" lon="7.77028">
        <ele>202.98</ele>
        <time>2014-08-28T09:17:25Z</time>
      </trkpt>
      <trkpt lat="49.02285" lon="7.77041">
        <ele>203.94</ele>
        <time>2014-08-28T09:17:27Z</time>
      </trkpt>
      <trkpt lat="49.02273" lon="7.77055">
        <ele>204.42</ele>
        <time>2014-08-28T09:17:29Z</time>
      </trkpt>
      <trkpt lat="49.02262" lon="7.77072">
        <ele>205.38</ele>
        <time>2014-08-28T09:17:31Z</time>
      </trkpt>
      <trkpt lat="49.02252" lon="7.7709">
        <ele>205.86</ele>
        <time>2014-08-28T09:17:33Z</time>
      </trkpt>
      <trkpt lat="49.02243" lon="7.77109">
        <ele>206.34</ele>
        <time>2014-08-28T09:17:35Z</time>
      </trkpt>
      <trkpt lat="49.02234" lon="7.77128">
        <ele>207.3</ele>
        <time>2014-08-28T09:17:37Z</time>
      </trkpt>
      <trkpt lat="49.02225" lon="7.77147">
        <ele>208.26</ele>
        <time>2014-08-28T09:17:39Z</time>
      </trkpt>
      <trkpt lat="49.02215" lon="7.77166">
        <ele>208.74</ele>
        <time>2014-08-28T09:17:41Z</time>
      </trkpt>
      <trkpt lat="49.02206" lon="7.77185">
        <ele>209.22</ele>
        <time>2014-08-28T09:17:43Z</time>
      </trkpt>
      <trkpt lat="49.02196" lon="7.77204">
        <ele>209.7</ele>
        <time>2014-08-28T09:17:45Z</time>
      </trkpt>
      <trkpt lat="49.02184" lon="7.77222">
        <ele>209.7</ele>
        <time>2014-08-28T09:17:47Z</time>
      </trkpt>
      <trkpt lat="49.02172" lon="7.77239">
        <ele>210.19</ele>
        <time>2014-08-28T09:17:49Z</time>
      </trkpt>
      <trkpt lat="49.02159" lon="7.77255">
        <ele>210.19</ele>
        <time>2014-08-28T09:17:51Z</time>
      </trkpt>
      <trkpt lat="49.02145" lon="7.7727">
        <ele>210.67</ele>
        <time>2014-08-28T09:17:53Z</time>
      </trkpt>
      <trkpt lat="49.02132" lon="7.77284">
        <ele>210.19</ele>
        <time>2014-08-28T09:17:55Z</time>
      </trkpt>
      <trkpt lat="49.02119" lon="7.77297">
        <ele>210.19</ele>
        <time>2014-08-28T09:17:57Z</time>
      </trkpt>
      <trkpt lat="49.02106" lon="7.77312">
        <ele>209.7</ele>
        <time>2014-08-28T09:17:59Z</time>
      </trkpt>
      <trkpt lat="49.02094" lon="7.77326">
        <ele>210.19</ele>
        <time>2014-08-28T09:18:01Z</time>
      </trkpt>
      <trkpt lat="49.02083" lon="7.77342">
        <ele>210.19</ele>
        <time>2014-08-28T09:18:03Z</time>
      </trkpt>
      <trkpt lat="49.02073" lon="7.77359">
        <ele>210.19</ele>
        <time>2014-08-28T09:18:05Z</time>
      </trkpt>
      <trkpt lat="49.02063" lon="7.77377">
        <ele>210.19</ele>
        <time>2014-08-28T09:18:07Z</time>
      </trkpt>
      <trkpt lat="49.02053" lon="7.77395">
        <ele>209.7</ele>
        <time>2014-08-28T09:18:09Z</time>
      </trkpt>
      <trkpt lat="49.02045" lon="7.77415">
        <ele>209.7</ele>
        <time>2014-08-28T09:18:11Z</time>
      </trkpt>
      <trkpt lat="49.02038" lon="7.77435">
        <ele>209.22</ele>
        <time>2014-08-28T09:18:13Z</time>
      </trkpt>
      <trkpt lat="49.02031" lon="7.77457">
        <ele>209.22</ele>
        <time>2014-08-28T09:18:15Z</time>
      </trkpt>
      <trkpt lat="49.02026" lon="7.77479">
        <ele>209.22</ele>
        <time>2014-08-28T09:18:17Z</time>
      </trkpt>
      <trkpt lat="49.02021" lon="7.77503">
        <ele>209.22</ele>
        <time>2014-08-28T09:18:19Z</time>
      </trkpt>
      <trkpt lat="49.02017" lon="7.77527">
        <ele>208.74</ele>
        <time>2014-08-28T09:18:21Z</time>
      </trkpt>
      <trkpt lat="49.02012" lon="7.77551">
        <ele>208.74</ele>
        <time>2014-08-28T09:18:23Z</time>
      </trkpt>
      <trkpt lat="49.02008" lon="7.77573">
        <ele>208.74</ele>
        <time>2014-08-28T09:18:25Z</time>
      </trkpt>
      <trkpt lat="49.02003" lon="7.77595">
        <ele>208.26</ele>
        <time>2014-08-28T09:18:27Z</time>
      </trkpt>
      <trkpt lat="49.01997" lon="7.77616">
        <ele>208.74</ele>
        <time>2014-08-28T09:18:29Z</time>
      </trkpt>
      <trkpt lat="49.0199" lon="7.77637">
        <ele>209.22</ele>
        <time>2014-08-28T09:18:31Z</time>
      </trkpt>
      <trkpt lat="49.01983" lon="7.77658">
        <ele>209.22</ele>
        <time>2014-08-28T09:18:33Z</time>
      </trkpt>
      <trkpt lat="49.01976" lon="7.7768">
        <ele>209.7</ele>
        <time>2014-08-28T09:18:35Z</time>
      </trkpt>
      <trkpt lat="49.01969" lon="7.77701">
        <ele>210.19</ele>
        <time>2014-08-28T09:18:37Z</time>
      </trkpt>
      <trkpt lat="49.0196" lon="7.77721">
        <ele>210.67</ele>
        <time>2014-08-28T09:18:39Z</time>
      </trkpt>
      <trkpt lat="49.01952" lon="7.77742">
        <ele>211.63</ele>
        <time>2014-08-28T09:18:41Z</time>
      </trkpt>
      <trkpt lat="49.01943" lon="7.77762">
        <ele>212.59</ele>
        <time>2014-08-28T09:18:43Z</time>
      </trkpt>
      <trkpt lat="49.01933" lon="7.77781">
        <ele>213.55</ele>
        <time>2014-08-28T09:18:45Z</time>
      </trkpt>
      <trkpt lat="49.01923" lon="7.778">
        <ele>214.51</ele>
        <time>2014-08-28T09:18:47Z</time>
      </trkpt>
      <trkpt lat="49.01911" lon="7.77818">
        <ele>214.99</ele>
        <time>2014-08-28T09:18:49Z</time>
      </trkpt>
      <trkpt lat="49.01898" lon="7.77834">
        <ele>214.99</ele>
        <time>2014-08-28T09:18:51Z</time>
      </trkpt>
      <trkpt lat="49.01885" lon="7.77846">
        <ele>215.47</ele>
        <time>2014-08-28T09:18:53Z</time>
      </trkpt>
      <trkpt lat="49.0187" lon="7.77858">
        <ele>216.43</ele>
        <time>2014-08-28T09:18:55Z</time>
      </trkpt>
      <trkpt lat="49.01855" lon="7.77867">
        <ele>216.91</ele>
        <time>2014-08-28T09:18:57Z</time>
      </trkpt>
      <trkpt lat="49.01839" lon="7.77873">
        <ele>216.91</ele>
        <time>2014-08-28T09:18:59Z</time>
      </trkpt>
      <trkpt lat="49.01823" lon="7.77877">
        <ele>217.4</ele>
        <time>2014-08-28T09:19:01Z</time>
      </trkpt>
      <trkpt lat="49.01806" lon="7.77877">
        <ele>217.4</ele>
        <time>2014-08-28T09:19:03Z</time>
      </trkpt>
      <trkpt lat="49.0179" lon="7.77876">
        <ele>217.4</ele>
        <time>2014-08-28T09:19:05Z</time>
      </trkpt>
      <trkpt lat="49.01773" lon="7.77874">
        <ele>217.4</ele>
        <time>2014-08-28T09:19:07Z</time>
      </trkpt>
      <trkpt lat="49.01757" lon="7.77872">
        <ele>217.88</ele>
        <time>2014-08-28T09:19:09Z</time>
      </trkpt>
      <trkpt lat="49.01741" lon="7.77873">
        <ele>217.88</ele>
        <time>2014-08-28T09:19:11Z</time>
      </trkpt>
      <trkpt lat="49.01726" lon="7.77879">
        <ele>217.88</ele>
        <time>2014-08-28T09:19:13Z</time>
      </trkpt>
      <trkpt lat="49.01713" lon="7.77889">
        <ele>217.88</ele>
        <time>2014-08-28T09:19:15Z</time>
      </trkpt>
      <trkpt lat="49.01703" lon="7.77906">
        <ele>217.88</ele>
        <time>2014-08-28T09:19:17Z</time>
      </trkpt>
      <trkpt lat="49.01695" lon="7.77925">
        <ele>217.4</ele>
        <time>2014-08-28T09:19:19Z</time>
      </trkpt>
      <trkpt lat="49.01688" lon="7.77945">
        <ele>216.43</ele>
        <time>2014-08-28T09:19:21Z</time>
      </trkpt>
      <trkpt lat="49.01683" lon="7.77966">
        <ele>214.51</ele>
        <time>2014-08-28T09:19:23Z</time>
      </trkpt>
      <trkpt lat="49.01679" lon="7.77989">
        <ele>212.11</ele>
        <time>2014-08-28T09:19:25Z</time>
      </trkpt>
      <trkpt lat="49.01674" lon="7.78011">
        <ele>210.67</ele>
        <time>2014-08-28T09:19:27Z</time>
      </trkpt>
      <trkpt lat="49.01668" lon="7.78033">
        <ele>208.74</ele>
        <time>2014-08-28T09:19:29Z</time>
      </trkpt>
      <trkpt lat="49.01663" lon="7.78055">
        <ele>207.78</ele>
        <time>2014-08-28T09:19:31Z</time>
      </trkpt>
      <trkpt lat="49.01657" lon="7.78077">
        <ele>206.82</ele>
        <time>2014-08-28T09:19:33Z</time>
      </trkpt>
      <trkpt lat="49.0165" lon="7.78096">
        <ele>206.34</ele>
        <time>2014-08-28T09:19:35Z</time>
      </trkpt>
      <trkpt lat="49.01642" lon="7.78115">
        <ele>206.34</ele>
        <time>2014-08-28T09:19:37Z</time>
      </trkpt>
      <trkpt lat="49.01634" lon="7.78133">
        <ele>205.86</ele>
        <time>2014-08-28T09:19:39Z</time>
      </trkpt>
      <trkpt lat="49.01625" lon="7.78148">
        <ele>205.86</ele>
        <time>2014-08-28T09:19:41Z</time>
      </trkpt>
      <trkpt lat="49.01615" lon="7.78162">
        <ele>205.86</ele>
        <time>2014-08-28T09:19:43Z</time>
      </trkpt>
      <trkpt lat="49.01603" lon="7.78173">
        <ele>205.38</ele>
        <time>2014-08-28T09:19:45Z</time>
      </trkpt>
      <trkpt lat="49.0159" lon="7.78182">
        <ele>205.86</ele>
        <time>2014-08-28T09:19:47Z</time>
      </trkpt>
      <trkpt lat="49.01576" lon="7.78186">
        <ele>205.86</ele>
        <time>2014-08-28T09:19:49Z</time>
      </trkpt>
      <trkpt lat="49.01562" lon="7.78187">
        <ele>205.86</ele>
        <time>2014-08-28T09:19:51Z</time>
      </trkpt>
      <trkpt lat="49.01547" lon="7.78181">
        <ele>205.38</ele>
        <time>2014-08-28T09:19:53Z</time>
      </trkpt>
      <trkpt lat="49.01533" lon="7.78173">
        <ele>205.38</ele>
        <time>2014-08-28T09:19:55Z</time>
      </trkpt>
      <trkpt lat="49.0152" lon="7.78161">
        <ele>204.42</ele>
        <time>2014-08-28T09:19:57Z</time>
      </trkpt>
      <trkpt lat="49.01508" lon="7.78147">
        <ele>203.46</ele>
        <time>2014-08-28T09:19:59Z</time>
      </trkpt>
      <trkpt lat="49.01498" lon="7.78131">
        <ele>202.49</ele>
        <time>2014-08-28T09:20:01Z</time>
      </trkpt>
      <trkpt lat="49.01489" lon="7.78114">
        <ele>202.01</ele>
        <time>2014-08-28T09:20:03Z</time>
      </trkpt>
      <trkpt lat="49.01481" lon="7.78094">
        <ele>201.53</ele>
        <time>2014-08-28T09:20:05Z</time>
      </trkpt>
      <trkpt lat="49.01475" lon="7.78074">
        <ele>201.53</ele>
        <time>2014-08-28T09:20:07Z</time>
      </trkpt>
      <trkpt lat="49.01471" lon="7.78052">
        <ele>201.53</ele>
        <time>2014-08-28T09:20:09Z</time>
      </trkpt>
      <trkpt lat="49.01466" lon="7.78031">
        <ele>201.53</ele>
        <time>2014-08-28T09:20:11Z</time>
      </trkpt>
      <trkpt lat="49.01462" lon="7.78009">
        <ele>202.01</ele>
        <time>2014-08-28T09:20:13Z</time>
      </trkpt>
      <trkpt lat="49.01458" lon="7.77988">
        <ele>202.01</ele>
        <time>2014-08-28T09:20:15Z</time>
      </trkpt>
      <trkpt lat="49.01454" lon="7.77967">
        <ele>202.49</ele>
        <time>2014-08-28T09:20:17Z</time>
      </trkpt>
      <trkpt lat="49.01447" lon="7.77949">
        <ele>202.49</ele>
        <time>2014-08-28T09:20:19Z</time>
      </trkpt>
      <trkpt lat="49.01437" lon="7.77936">
        <ele>202.49</ele>
        <time>2014-08-28T09:20:21Z</time>
      </trkpt>
      <trkpt lat="49.01424" lon="7.77929">
        <ele>202.49</ele>
        <time>2014-08-28T09:20:23Z</time>
      </trkpt>
      <trkpt lat="49.0141" lon="7.77931">
        <ele>202.49</ele>
        <time>2014-08-28T09:20:25Z</time>
      </trkpt>
      <trkpt lat="49.01398" lon="7.77939">
        <ele>202.49</ele>
        <time>2014-08-28T09:20:27Z</time>
      </trkpt>
      <trkpt lat="49.01388" lon="7.77954">
        <ele>202.49</ele>
        <time>2014-08-28T09:20:29Z</time>
      </trkpt>
      <trkpt lat="49.01381" lon="7.77974">
        <ele>202.49</ele>
        <time>2014-08-28T09:20:31Z</time>
      </trkpt>
      <trkpt lat="49.01376" lon="7.77996">
        <ele>202.49</ele>
        <time>2014-08-28T09:20:33Z</time>
      </trkpt>
      <trkpt lat="49.01373" lon="7.7802">
        <ele>202.01</ele>
        <time>2014-08-28T09:20:35Z</time>
      </trkpt>
      <trkpt lat="49.01369" lon="7.78044">
        <ele>201.53</ele>
        <time>2014-08-28T09:20:37Z</time>
      </trkpt>
      <trkpt lat="49.01366" lon="7.78068">
        <ele>201.53</ele>
        <time>2014-08-28T09:20:39Z</time>
      </trkpt>
      <trkpt lat="49.01363" lon="7.78091">
        <ele>201.05</ele>
        <time>2014-08-28T09:20:41Z</time>
      </trkpt>
      <trkpt lat="49.01361" lon="7.78114">
        <ele>201.05</ele>
        <time>2014-08-28T09:20:43Z</time>
      </trkpt>
      <trkpt lat="49.01359" lon="7.78137">
        <ele>201.05</ele>
        <time>2014-08-28T09:20:45Z</time>
      </trkpt>
      <trkpt lat="49.01357" lon="7.7816">
        <ele>200.57</ele>
        <time>2014-08-28T09:20:47Z</time>
      </trkpt>
      <trkpt lat="49.01356" lon="7.78183">
        <ele>200.57</ele>
        <time>2014-08-28T09:20:49Z</time>
      </trkpt>
      <trkpt lat="49.01355" lon="7.78206">
        <ele>200.09</ele>
        <time>2014-08-28T09:20:51Z</time>
      </trkpt>
      <trkpt lat="49.01355" lon="7.7823">
        <ele>200.09</ele>
        <time>2014-08-28T09:20:53Z</time>
      </trkpt>
      <trkpt lat="49.01354" lon="7.78254">
        <ele>200.09</ele>
        <time>2014-08-28T09:20:55Z</time>
      </trkpt>
      <trkpt lat="49.01353" lon="7.78278">
        <ele>200.57</ele>
        <time>2014-08-28T09:20:57Z</time>
      </trkpt>
      <trkpt lat="49.01349" lon="7.78301">
        <ele>200.57</ele>
        <time>2014-08-28T09:20:59Z</time>
      </trkpt>
      <trkpt lat="49.01344" lon="7.78323">
        <ele>201.05</ele>
        <time>2014-08-28T09:21:01Z</time>
      </trkpt>
      <trkpt lat="49.01337" lon="7.78344">
        <ele>201.53</ele>
        <time>2014-08-28T09:21:03Z</time>
      </trkpt>
      <trkpt lat="49.01329" lon="7.78364">
        <ele>202.01</ele>
        <time>2014-08-28T09:21:05Z</time>
      </trkpt>
      <trkpt lat="49.0132" lon="7.78382">
        <ele>202.49</ele>
        <time>2014-08-28T09:21:07Z</time>
      </trkpt>
      <trkpt lat="49.01309" lon="7.784">
        <ele>203.46</ele>
        <time>2014-08-28T09:21:09Z</time>
      </trkpt>
      <trkpt lat="49.01297" lon="7.78416">
        <ele>203.46</ele>
        <time>2014-08-28T09:21:11Z</time>
      </trkpt>
      <trkpt lat="49.01286" lon="7.78431">
        <ele>203.94</ele>
        <time>2014-08-28T09:21:13Z</time>
      </trkpt>
      <trkpt lat="49.01274" lon="7.78447">
        <ele>204.42</ele>
        <time>2014-08-28T09:21:15Z</time>
      </trkpt>
      <trkpt lat="49.01264" lon="7.78462">
        <ele>204.42</ele>
        <time>2014-08-28T09:21:17Z</time>
      </trkpt>
      <trkpt lat="49.01253" lon="7.78475">
        <ele>204.42</ele>
        <time>2014-08-28T09:21:19Z</time>
      </trkpt>
      <trkpt lat="49.01242" lon="7.78489">
        <ele>204.9</ele>
        <time>2014-08-28T09:21:21Z</time>
      </trkpt>
      <trkpt lat="49.01232" lon="7.78502">
        <ele>205.38</ele>
        <time>2014-08-28T09:21:23Z</time>
      </trkpt>
      <trkpt lat="49.01221" lon="7.78516">
        <ele>205.38</ele>
        <time>2014-08-28T09:21:25Z</time>
      </trkpt>
      <trkpt lat="49.01211" lon="7.78529">
        <ele>205.86</ele>
        <time>2014-08-28T09:21:27Z</time>
      </trkpt>
      <trkpt lat="49.01201" lon="7.78543">
        <ele>205.86</ele>
        <time>2014-08-28T09:21:29Z</time>
      </trkpt>
      <trkpt lat="49.01191" lon="7.78557">
        <ele>205.86</ele>
        <time>2014-08-28T09:21:31Z</time>
      </trkpt>
      <trkpt lat="49.01182" lon="7.78572">
        <ele>205.86</ele>
        <time>2014-08-28T09:21:33Z</time>
      </trkpt>
      <trkpt lat="49.01172" lon="7.78586">
        <ele>205.86</ele>
        <time>2014-08-28T09:21:35Z</time>
      </trkpt>
      <trkpt lat="49.01163" lon="7.786">
        <ele>206.34</ele>
        <time>2014-08-28T09:21:37Z</time>
      </trkpt>
      <trkpt lat="49.01155" lon="7.78614">
        <ele>206.34</ele>
        <time>2014-08-28T09:21:39Z</time>
      </trkpt>
      <trkpt lat="49.01146" lon="7.78627">
        <ele>206.82</ele>
        <time>2014-08-28T09:21:41Z</time>
      </trkpt>
      <trkpt lat="49.01136" lon="7.78638">
        <ele>206.82</ele>
        <time>2014-08-28T09:21:43Z</time>
      </trkpt>
      <trkpt lat="49.01126" lon="7.7865">
        <ele>206.82</ele>
        <time>2014-08-28T09:21:45Z</time>
      </trkpt>
      <trkpt lat="49.01117" lon="7.78661">
        <ele>207.3</ele>
        <time>2014-08-28T09:21:47Z</time>
      </trkpt>
      <trkpt lat="49.01108" lon="7.78671">
        <ele>207.3</ele>
        <time>2014-08-28T09:21:49Z</time>
      </trkpt>
      <trkpt lat="49.011" lon="7.7868">
        <ele>207.78</ele>
        <time>2014-08-28T09:21:51Z</time>
      </trkpt>
      <trkpt lat="49.01093" lon="7.78687">
        <ele>207.78</ele>
        <time>2014-08-28T09:21:53Z</time>
      </trkpt>
      <trkpt lat="49.01082" lon="7.78698">
        <ele>207.78</ele>
        <time>2014-08-28T09:21:56Z</time>
      </trkpt>
      <trkpt lat="49.01074" lon="7.78707">
        <ele>207.78</ele>
        <time>2014-08-28T09:21:58Z</time>
      </trkpt>
      <trkpt lat="49.01066" lon="7.78715">
        <ele>207.78</ele>
        <time>2014-08-28T09:22:00Z</time>
      </trkpt>
      <trkpt lat="49.01059" lon="7.78723">
        <ele>207.78</ele>
        <time>2014-08-28T09:22:02Z</time>
      </trkpt>
      <trkpt lat="49.01048" lon="7.78735">
        <ele>208.26</ele>
        <time>2014-08-28T09:22:05Z</time>
      </trkpt>
      <trkpt lat="49.01038" lon="7.7875">
        <ele>207.78</ele>
        <time>2014-08-28T09:22:08Z</time>
      </trkpt>
      <trkpt lat="49.0103" lon="7.78766">
        <ele>208.26</ele>
        <time>2014-08-28T09:22:11Z</time>
      </trkpt>
      <trkpt lat="49.01024" lon="7.78778">
        <ele>208.74</ele>
        <time>2014-08-28T09:22:13Z</time>
      </trkpt>
      <trkpt lat="49.01018" lon="7.78795">
        <ele>208.74</ele>
        <time>2014-08-28T09:22:16Z</time>
      </trkpt>
      <trkpt lat="49.01011" lon="7.78809">
        <ele>208.74</ele>
        <time>2014-08-28T09:22:19Z</time>
      </trkpt>
      <trkpt lat="49.01005" lon="7.78822">
        <ele>208.74</ele>
        <time>2014-08-28T09:22:22Z</time>
      </trkpt>
      <trkpt lat="49.00998" lon="7.78836">
        <ele>208.26</ele>
        <time>2014-08-28T09:22:25Z</time>
      </trkpt>
      <trkpt lat="49.00988" lon="7.78847">
        <ele>207.78</ele>
        <time>2014-08-28T09:22:28Z</time>
      </trkpt>
      <trkpt lat="49.00975" lon="7.78855">
        <ele>206.82</ele>
        <time>2014-08-28T09:22:31Z</time>
      </trkpt>
      <trkpt lat="49.00966" lon="7.78859">
        <ele>206.82</ele>
        <time>2014-08-28T09:22:33Z</time>
      </trkpt>
      <trkpt lat="49.00957" lon="7.78862">
        <ele>205.86</ele>
        <time>2014-08-28T09:22:35Z</time>
      </trkpt>
      <trkpt lat="49.00947" lon="7.78865">
        <ele>205.38</ele>
        <time>2014-08-28T09:22:37Z</time>
      </trkpt>
      <trkpt lat="49.00937" lon="7.78869">
        <ele>204.9</ele>
        <time>2014-08-28T09:22:39Z</time>
      </trkpt>
      <trkpt lat="49.00927" lon="7.78872">
        <ele>204.42</ele>
        <time>2014-08-28T09:22:41Z</time>
      </trkpt>
      <trkpt lat="49.00917" lon="7.78875">
        <ele>203.94</ele>
        <time>2014-08-28T09:22:43Z</time>
      </trkpt>
      <trkpt lat="49.00906" lon="7.78878">
        <ele>202.98</ele>
        <time>2014-08-28T09:22:45Z</time>
      </trkpt>
      <trkpt lat="49.00894" lon="7.78881">
        <ele>202.49</ele>
        <time>2014-08-28T09:22:47Z</time>
      </trkpt>
      <trkpt lat="49.00881" lon="7.78885">
        <ele>202.01</ele>
        <time>2014-08-28T09:22:49Z</time>
      </trkpt>
      <trkpt lat="49.00868" lon="7.78888">
        <ele>201.53</ele>
        <time>2014-08-28T09:22:51Z</time>
      </trkpt>
      <trkpt lat="49.00855" lon="7.78893">
        <ele>201.05</ele>
        <time>2014-08-28T09:22:53Z</time>
      </trkpt>
      <trkpt lat="49.00842" lon="7.78899">
        <ele>200.57</ele>
        <time>2014-08-28T09:22:55Z</time>
      </trkpt>
      <trkpt lat="49.00829" lon="7.78904">
        <ele>200.09</ele>
        <time>2014-08-28T09:22:57Z</time>
      </trkpt>
      <trkpt lat="49.00815" lon="7.78909">
        <ele>199.61</ele>
        <time>2014-08-28T09:22:59Z</time>
      </trkpt>
      <trkpt lat="49.00802" lon="7.78913">
        <ele>199.13</ele>
        <time>2014-08-28T09:23:01Z</time>
      </trkpt>
      <trkpt lat="49.00788" lon="7.78917">
        <ele>199.13</ele>
        <time>2014-08-28T09:23:03Z</time>
      </trkpt>
      <trkpt lat="49.00774" lon="7.78921">
        <ele>198.65</ele>
        <time>2014-08-28T09:23:05Z</time>
      </trkpt>
      <trkpt lat="49.00759" lon="7.78925">
        <ele>199.13</ele>
        <time>2014-08-28T09:23:07Z</time>
      </trkpt>
      <trkpt lat="49.00745" lon="7.78929">
        <ele>199.61</ele>
        <time>2014-08-28T09:23:09Z</time>
      </trkpt>
      <trkpt lat="49.0073" lon="7.78935">
        <ele>199.61</ele>
        <time>2014-08-28T09:23:11Z</time>
      </trkpt>
      <trkpt lat="49.00716" lon="7.7894">
        <ele>200.09</ele>
        <time>2014-08-28T09:23:13Z</time>
      </trkpt>
      <trkpt lat="49.00703" lon="7.78944">
        <ele>200.57</ele>
        <time>2014-08-28T09:23:15Z</time>
      </trkpt>
      <trkpt lat="49.0069" lon="7.78948">
        <ele>201.05</ele>
        <time>2014-08-28T09:23:17Z</time>
      </trkpt>
      <trkpt lat="49.00678" lon="7.7895">
        <ele>201.53</ele>
        <time>2014-08-28T09:23:19Z</time>
      </trkpt>
      <trkpt lat="49.00666" lon="7.78952">
        <ele>202.01</ele>
        <time>2014-08-28T09:23:21Z</time>
      </trkpt>
      <trkpt lat="49.00655" lon="7.78956">
        <ele>202.49</ele>
        <time>2014-08-28T09:23:23Z</time>
      </trkpt>
      <trkpt lat="49.00645" lon="7.7896">
        <ele>202.98</ele>
        <time>2014-08-28T09:23:25Z</time>
      </trkpt>
      <trkpt lat="49.00636" lon="7.78965">
        <ele>203.46</ele>
        <time>2014-08-28T09:23:27Z</time>
      </trkpt>
      <trkpt lat="49.00625" lon="7.78972">
        <ele>203.46</ele>
        <time>2014-08-28T09:23:30Z</time>
      </trkpt>
      <trkpt lat="49.00618" lon="7.7898">
        <ele>206.34</ele>
        <time>2014-08-28T09:23:46Z</time>
      </trkpt>
      <trkpt lat="49.00616" lon="7.78974">
        <ele>207.3</ele>
        <time>2014-08-28T09:24:43Z</time>
      </trkpt>
      <trkpt lat="49.00616" lon="7.78972">
        <ele>192.88</ele>
        <time>2014-08-28T09:32:39Z</time>
      </trkpt>
      <trkpt lat="49.00615" lon="7.79012">
        <ele>189.04</ele>
        <time>2014-08-28T09:33:39Z</time>
      </trkpt>
      <trkpt lat="49.00607" lon="7.79018">
        <ele>186.15</ele>
        <time>2014-08-28T09:33:52Z</time>
      </trkpt>
      <trkpt lat="49.00588" lon="7.78995">
        <ele>207.78</ele>
        <time>2014-08-28T09:34:24Z</time>
      </trkpt>
      <trkpt lat="49.00576" lon="7.78992">
        <ele>211.63</ele>
        <time>2014-08-28T09:34:29Z</time>
      </trkpt>
      <trkpt lat="49.00567" lon="7.78991">
        <ele>214.03</ele>
        <time>2014-08-28T09:34:32Z</time>
      </trkpt>
      <trkpt lat="49.00555" lon="7.78994">
        <ele>215.47</ele>
        <time>2014-08-28T09:34:35Z</time>
      </trkpt>
      <trkpt lat="49.00544" lon="7.78998">
        <ele>216.43</ele>
        <time>2014-08-28T09:34:38Z</time>
      </trkpt>
      <trkpt lat="49.00533" lon="7.78999">
        <ele>216.91</ele>
        <time>2014-08-28T09:34:41Z</time>
      </trkpt>
      <trkpt lat="49.00521" lon="7.79003">
        <ele>217.88</ele>
        <time>2014-08-28T09:34:44Z</time>
      </trkpt>
      <trkpt lat="49.00512" lon="7.79006">
        <ele>218.36</ele>
        <time>2014-08-28T09:34:46Z</time>
      </trkpt>
      <trkpt lat="49.00502" lon="7.79008">
        <ele>218.36</ele>
        <time>2014-08-28T09:34:48Z</time>
      </trkpt>
      <trkpt lat="49.00493" lon="7.79011">
        <ele>218.36</ele>
        <time>2014-08-28T09:34:50Z</time>
      </trkpt>
      <trkpt lat="49.00482" lon="7.79014">
        <ele>218.36</ele>
        <time>2014-08-28T09:34:52Z</time>
      </trkpt>
      <trkpt lat="49.0047" lon="7.79016">
        <ele>218.36</ele>
        <time>2014-08-28T09:34:54Z</time>
      </trkpt>
      <trkpt lat="49.00458" lon="7.79019">
        <ele>218.36</ele>
        <time>2014-08-28T09:34:56Z</time>
      </trkpt>
      <trkpt lat="49.00446" lon="7.79018">
        <ele>218.36</ele>
        <time>2014-08-28T09:34:58Z</time>
      </trkpt>
      <trkpt lat="49.00433" lon="7.79015">
        <ele>218.36</ele>
        <time>2014-08-28T09:35:00Z</time>
      </trkpt>
      <trkpt lat="49.00419" lon="7.79012">
        <ele>218.36</ele>
        <time>2014-08-28T09:35:02Z</time>
      </trkpt>
      <trkpt lat="49.00405" lon="7.79009">
        <ele>217.88</ele>
        <time>2014-08-28T09:35:04Z</time>
      </trkpt>
      <trkpt lat="49.00391" lon="7.79007">
        <ele>217.4</ele>
        <time>2014-08-28T09:35:06Z</time>
      </trkpt>
      <trkpt lat="49.00381" lon="7.79004">
        <ele>216.91</ele>
        <time>2014-08-28T09:35:08Z</time>
      </trkpt>
      <trkpt lat="49.00371" lon="7.78998">
        <ele>216.43</ele>
        <time>2014-08-28T09:35:10Z</time>
      </trkpt>
      <trkpt lat="49.00362" lon="7.78992">
        <ele>216.43</ele>
        <time>2014-08-28T09:35:12Z</time>
      </trkpt>
      <trkpt lat="49.00353" lon="7.78992">
        <ele>216.43</ele>
        <time>2014-08-28T09:35:14Z</time>
      </trkpt>
      <trkpt lat="49.0034" lon="7.78991">
        <ele>215.95</ele>
        <time>2014-08-28T09:35:17Z</time>
      </trkpt>
      <trkpt lat="49.0033" lon="7.78985">
        <ele>215.47</ele>
        <time>2014-08-28T09:35:20Z</time>
      </trkpt>
      <trkpt lat="49.00319" lon="7.78984">
        <ele>212.59</ele>
        <time>2014-08-28T09:35:37Z</time>
      </trkpt>
      <trkpt lat="49.00324" lon="7.78991">
        <ele>211.63</ele>
        <time>2014-08-28T09:35:41Z</time>
      </trkpt>
      <trkpt lat="49.00335" lon="7.78996">
        <ele>211.63</ele>
        <time>2014-08-28T09:35:44Z</time>
      </trkpt>
      <trkpt lat="49.00344" lon="7.79002">
        <ele>211.63</ele>
        <time>2014-08-28T09:35:46Z</time>
      </trkpt>
      <trkpt lat="49.00352" lon="7.79009">
        <ele>212.11</ele>
        <time>2014-08-28T09:35:48Z</time>
      </trkpt>
      <trkpt lat="49.00361" lon="7.79007">
        <ele>212.11</ele>
        <time>2014-08-28T09:35:50Z</time>
      </trkpt>
      <trkpt lat="49.00367" lon="7.78989">
        <ele>211.15</ele>
        <time>2014-08-28T09:35:53Z</time>
      </trkpt>
      <trkpt lat="49.00369" lon="7.78975">
        <ele>210.67</ele>
        <time>2014-08-28T09:35:55Z</time>
      </trkpt>
      <trkpt lat="49.00372" lon="7.78959">
        <ele>209.7</ele>
        <time>2014-08-28T09:35:57Z</time>
      </trkpt>
      <trkpt lat="49.00376" lon="7.78941">
        <ele>209.7</ele>
        <time>2014-08-28T09:35:59Z</time>
      </trkpt>
      <trkpt lat="49.0038" lon="7.78923">
        <ele>209.22</ele>
        <time>2014-08-28T09:36:01Z</time>
      </trkpt>
      <trkpt lat="49.00383" lon="7.78904">
        <ele>208.26</ele>
        <time>2014-08-28T09:36:03Z</time>
      </trkpt>
      <trkpt lat="49.00386" lon="7.78885">
        <ele>207.3</ele>
        <time>2014-08-28T09:36:05Z</time>
      </trkpt>
      <trkpt lat="49.00387" lon="7.78866">
        <ele>207.3</ele>
        <time>2014-08-28T09:36:07Z</time>
      </trkpt>
      <trkpt lat="49.00386" lon="7.78848">
        <ele>207.3</ele>
        <time>2014-08-28T09:36:09Z</time>
      </trkpt>
      <trkpt lat="49.00385" lon="7.78828">
        <ele>206.82</ele>
        <time>2014-08-28T09:36:11Z</time>
      </trkpt>
      <trkpt lat="49.00385" lon="7.78809">
        <ele>206.82</ele>
        <time>2014-08-28T09:36:13Z</time>
      </trkpt>
      <trkpt lat="49.00384" lon="7.7879">
        <ele>206.34</ele>
        <time>2014-08-28T09:36:15Z</time>
      </trkpt>
      <trkpt lat="49.00378" lon="7.78771">
        <ele>205.86</ele>
        <time>2014-08-28T09:36:17Z</time>
      </trkpt>
      <trkpt lat="49.00375" lon="7.78752">
        <ele>205.86</ele>
        <time>2014-08-28T09:36:19Z</time>
      </trkpt>
      <trkpt lat="49.00374" lon="7.78733">
        <ele>205.38</ele>
        <time>2014-08-28T09:36:21Z</time>
      </trkpt>
      <trkpt lat="49.00374" lon="7.78715">
        <ele>205.38</ele>
        <time>2014-08-28T09:36:23Z</time>
      </trkpt>
      <trkpt lat="49.00376" lon="7.78698">
        <ele>205.38</ele>
        <time>2014-08-28T09:36:25Z</time>
      </trkpt>
      <trkpt lat="49.00377" lon="7.78683">
        <ele>205.38</ele>
        <time>2014-08-28T09:36:27Z</time>
      </trkpt>
      <trkpt lat="49.00378" lon="7.78669">
        <ele>205.86</ele>
        <time>2014-08-28T09:36:29Z</time>
      </trkpt>
      <trkpt lat="49.00381" lon="7.78652">
        <ele>206.34</ele>
        <time>2014-08-28T09:36:32Z</time>
      </trkpt>
      <trkpt lat="49.00379" lon="7.78637">
        <ele>206.82</ele>
        <time>2014-08-28T09:36:35Z</time>
      </trkpt>
      <trkpt lat="49.00372" lon="7.7862">
        <ele>207.3</ele>
        <time>2014-08-28T09:36:38Z</time>
      </trkpt>
      <trkpt lat="49.00365" lon="7.78609">
        <ele>207.3</ele>
        <time>2014-08-28T09:36:40Z</time>
      </trkpt>
      <trkpt lat="49.00355" lon="7.78598">
        <ele>207.78</ele>
        <time>2014-08-28T09:36:42Z</time>
      </trkpt>
      <trkpt lat="49.00346" lon="7.78589">
        <ele>208.26</ele>
        <time>2014-08-28T09:36:44Z</time>
      </trkpt>
      <trkpt lat="49.00337" lon="7.78581">
        <ele>208.26</ele>
        <time>2014-08-28T09:36:46Z</time>
      </trkpt>
      <trkpt lat="49.00327" lon="7.78573">
        <ele>208.26</ele>
        <time>2014-08-28T09:36:48Z</time>
      </trkpt>
      <trkpt lat="49.00317" lon="7.78564">
        <ele>208.26</ele>
        <time>2014-08-28T09:36:50Z</time>
      </trkpt>
      <trkpt lat="49.00306" lon="7.78555">
        <ele>208.26</ele>
        <time>2014-08-28T09:36:52Z</time>
      </trkpt>
      <trkpt lat="49.00296" lon="7.78547">
        <ele>208.26</ele>
        <time>2014-08-28T09:36:54Z</time>
      </trkpt>
      <trkpt lat="49.00287" lon="7.78539">
        <ele>207.78</ele>
        <time>2014-08-28T09:36:56Z</time>
      </trkpt>
      <trkpt lat="49.00278" lon="7.7853">
        <ele>207.78</ele>
        <time>2014-08-28T09:36:58Z</time>
      </trkpt>
      <trkpt lat="49.00267" lon="7.78523">
        <ele>207.78</ele>
        <time>2014-08-28T09:37:00Z</time>
      </trkpt>
      <trkpt lat="49.00256" lon="7.78515">
        <ele>207.78</ele>
        <time>2014-08-28T09:37:02Z</time>
      </trkpt>
      <trkpt lat="49.00246" lon="7.78508">
        <ele>207.3</ele>
        <time>2014-08-28T09:37:04Z</time>
      </trkpt>
      <trkpt lat="49.00235" lon="7.78501">
        <ele>206.34</ele>
        <time>2014-08-28T09:37:06Z</time>
      </trkpt>
      <trkpt lat="49.00222" lon="7.78495">
        <ele>205.86</ele>
        <time>2014-08-28T09:37:08Z</time>
      </trkpt>
      <trkpt lat="49.0021" lon="7.78489">
        <ele>205.38</ele>
        <time>2014-08-28T09:37:10Z</time>
      </trkpt>
      <trkpt lat="49.00198" lon="7.78484">
        <ele>204.9</ele>
        <time>2014-08-28T09:37:12Z</time>
      </trkpt>
      <trkpt lat="49.00186" lon="7.78479">
        <ele>204.9</ele>
        <time>2014-08-28T09:37:14Z</time>
      </trkpt>
      <trkpt lat="49.00175" lon="7.78474">
        <ele>204.9</ele>
        <time>2014-08-28T09:37:16Z</time>
      </trkpt>
      <trkpt lat="49.00163" lon="7.7847">
        <ele>204.9</ele>
        <time>2014-08-28T09:37:18Z</time>
      </trkpt>
      <trkpt lat="49.0015" lon="7.78466">
        <ele>204.9</ele>
        <time>2014-08-28T09:37:20Z</time>
      </trkpt>
      <trkpt lat="49.00138" lon="7.78463">
        <ele>204.9</ele>
        <time>2014-08-28T09:37:22Z</time>
      </trkpt>
      <trkpt lat="49.00125" lon="7.78461">
        <ele>204.9</ele>
        <time>2014-08-28T09:37:24Z</time>
      </trkpt>
      <trkpt lat="49.00113" lon="7.78457">
        <ele>204.9</ele>
        <time>2014-08-28T09:37:26Z</time>
      </trkpt>
      <trkpt lat="49.00103" lon="7.78452">
        <ele>204.9</ele>
        <time>2014-08-28T09:37:28Z</time>
      </trkpt>
      <trkpt lat="49.00093" lon="7.78447">
        <ele>204.9</ele>
        <time>2014-08-28T09:37:30Z</time>
      </trkpt>
      <trkpt lat="49.00082" lon="7.78441">
        <ele>204.9</ele>
        <time>2014-08-28T09:37:33Z</time>
      </trkpt>
      <trkpt lat="49.0007" lon="7.78434">
        <ele>205.38</ele>
        <time>2014-08-28T09:37:36Z</time>
      </trkpt>
      <trkpt lat="49.00062" lon="7.78429">
        <ele>205.86</ele>
        <time>2014-08-28T09:37:38Z</time>
      </trkpt>
      <trkpt lat="49.0005" lon="7.78422">
        <ele>206.34</ele>
        <time>2014-08-28T09:37:41Z</time>
      </trkpt>
      <trkpt lat="49.00038" lon="7.78416">
        <ele>207.3</ele>
        <time>2014-08-28T09:37:44Z</time>
      </trkpt>
      <trkpt lat="49.00026" lon="7.78409">
        <ele>208.26</ele>
        <time>2014-08-28T09:37:47Z</time>
      </trkpt>
      <trkpt lat="49.00016" lon="7.78403">
        <ele>208.74</ele>
        <time>2014-08-28T09:37:50Z</time>
      </trkpt>
      <trkpt lat="49.00006" lon="7.78398">
        <ele>209.7</ele>
        <time>2014-08-28T09:37:53Z</time>
      </trkpt>
      <trkpt lat="48.99997" lon="7.78392">
        <ele>210.19</ele>
        <time>2014-08-28T09:37:56Z</time>
      </trkpt>
      <trkpt lat="48.99988" lon="7.78387">
        <ele>211.15</ele>
        <time>2014-08-28T09:37:59Z</time>
      </trkpt>
      <trkpt lat="48.9998" lon="7.78384">
        <ele>212.11</ele>
        <time>2014-08-28T09:38:02Z</time>
      </trkpt>
      <trkpt lat="48.99968" lon="7.78382">
        <ele>212.59</ele>
        <time>2014-08-28T09:38:05Z</time>
      </trkpt>
      <trkpt lat="48.99958" lon="7.78381">
        <ele>212.59</ele>
        <time>2014-08-28T09:38:07Z</time>
      </trkpt>
      <trkpt lat="48.99946" lon="7.7838">
        <ele>212.11</ele>
        <time>2014-08-28T09:38:09Z</time>
      </trkpt>
      <trkpt lat="48.99932" lon="7.7838">
        <ele>212.11</ele>
        <time>2014-08-28T09:38:11Z</time>
      </trkpt>
      <trkpt lat="48.99917" lon="7.7838">
        <ele>211.63</ele>
        <time>2014-08-28T09:38:13Z</time>
      </trkpt>
      <trkpt lat="48.999" lon="7.78378">
        <ele>210.67</ele>
        <time>2014-08-28T09:38:15Z</time>
      </trkpt>
      <trkpt lat="48.99882" lon="7.78376">
        <ele>210.19</ele>
        <time>2014-08-28T09:38:17Z</time>
      </trkpt>
      <trkpt lat="48.99865" lon="7.78373">
        <ele>209.22</ele>
        <time>2014-08-28T09:38:19Z</time>
      </trkpt>
      <trkpt lat="48.99847" lon="7.78368">
        <ele>208.26</ele>
        <time>2014-08-28T09:38:21Z</time>
      </trkpt>
      <trkpt lat="48.99838" lon="7.78366">
        <ele>207.3</ele>
        <time>2014-08-28T09:38:22Z</time>
      </trkpt>
      <trkpt lat="48.99829" lon="7.78364">
        <ele>206.82</ele>
        <time>2014-08-28T09:38:23Z</time>
      </trkpt>
      <trkpt lat="48.9982" lon="7.78362">
        <ele>206.34</ele>
        <time>2014-08-28T09:38:24Z</time>
      </trkpt>
      <trkpt lat="48.99811" lon="7.7836">
        <ele>205.86</ele>
        <time>2014-08-28T09:38:25Z</time>
      </trkpt>
      <trkpt lat="48.99801" lon="7.78358">
        <ele>205.38</ele>
        <time>2014-08-28T09:38:26Z</time>
      </trkpt>
      <trkpt lat="48.99792" lon="7.78356">
        <ele>204.42</ele>
        <time>2014-08-28T09:38:27Z</time>
      </trkpt>
      <trkpt lat="48.99782" lon="7.78354">
        <ele>203.94</ele>
        <time>2014-08-28T09:38:28Z</time>
      </trkpt>
      <trkpt lat="48.99772" lon="7.78351">
        <ele>203.46</ele>
        <time>2014-08-28T09:38:29Z</time>
      </trkpt>
      <trkpt lat="48.99763" lon="7.78348">
        <ele>202.98</ele>
        <time>2014-08-28T09:38:30Z</time>
      </trkpt>
      <trkpt lat="48.99753" lon="7.78344">
        <ele>202.49</ele>
        <time>2014-08-28T09:38:31Z</time>
      </trkpt>
      <trkpt lat="48.99745" lon="7.78339">
        <ele>202.49</ele>
        <time>2014-08-28T09:38:32Z</time>
      </trkpt>
      <trkpt lat="48.99736" lon="7.78334">
        <ele>202.01</ele>
        <time>2014-08-28T09:38:33Z</time>
      </trkpt>
      <trkpt lat="48.9972" lon="7.78321">
        <ele>201.05</ele>
        <time>2014-08-28T09:38:35Z</time>
      </trkpt>
      <trkpt lat="48.99713" lon="7.78314">
        <ele>200.57</ele>
        <time>2014-08-28T09:38:36Z</time>
      </trkpt>
      <trkpt lat="48.99698" lon="7.783">
        <ele>200.09</ele>
        <time>2014-08-28T09:38:38Z</time>
      </trkpt>
      <trkpt lat="48.99691" lon="7.78292">
        <ele>200.09</ele>
        <time>2014-08-28T09:38:39Z</time>
      </trkpt>
      <trkpt lat="48.99677" lon="7.78275">
        <ele>199.61</ele>
        <time>2014-08-28T09:38:41Z</time>
      </trkpt>
      <trkpt lat="48.9967" lon="7.78266">
        <ele>199.61</ele>
        <time>2014-08-28T09:38:42Z</time>
      </trkpt>
      <trkpt lat="48.99663" lon="7.78256">
        <ele>199.61</ele>
        <time>2014-08-28T09:38:43Z</time>
      </trkpt>
      <trkpt lat="48.99657" lon="7.78246">
        <ele>199.13</ele>
        <time>2014-08-28T09:38:44Z</time>
      </trkpt>
      <trkpt lat="48.99645" lon="7.78226">
        <ele>198.65</ele>
        <time>2014-08-28T09:38:46Z</time>
      </trkpt>
      <trkpt lat="48.99634" lon="7.78206">
        <ele>198.65</ele>
        <time>2014-08-28T09:38:48Z</time>
      </trkpt>
      <trkpt lat="48.99623" lon="7.78184">
        <ele>198.17</ele>
        <time>2014-08-28T09:38:50Z</time>
      </trkpt>
      <trkpt lat="48.99613" lon="7.78162">
        <ele>198.17</ele>
        <time>2014-08-28T09:38:52Z</time>
      </trkpt>
      <trkpt lat="48.99603" lon="7.7814">
        <ele>198.17</ele>
        <time>2014-08-28T09:38:54Z</time>
      </trkpt>
      <trkpt lat="48.99593" lon="7.78118">
        <ele>198.17</ele>
        <time>2014-08-28T09:38:56Z</time>
      </trkpt>
      <trkpt lat="48.99583" lon="7.78098">
        <ele>198.17</ele>
        <time>2014-08-28T09:38:58Z</time>
      </trkpt>
      <trkpt lat="48.99572" lon="7.78079">
        <ele>198.17</ele>
        <time>2014-08-28T09:39:00Z</time>
      </trkpt>
      <trkpt lat="48.99561" lon="7.78062">
        <ele>198.17</ele>
        <time>2014-08-28T09:39:02Z</time>
      </trkpt>
      <trkpt lat="48.9955" lon="7.78047">
        <ele>198.17</ele>
        <time>2014-08-28T09:39:04Z</time>
      </trkpt>
      <trkpt lat="48.99538" lon="7.78033">
        <ele>198.17</ele>
        <time>2014-08-28T09:39:06Z</time>
      </trkpt>
      <trkpt lat="48.99526" lon="7.7802">
        <ele>198.65</ele>
        <time>2014-08-28T09:39:08Z</time>
      </trkpt>
      <trkpt lat="48.99515" lon="7.78005">
        <ele>198.65</ele>
        <time>2014-08-28T09:39:10Z</time>
      </trkpt>
      <trkpt lat="48.99503" lon="7.7799">
        <ele>198.65</ele>
        <time>2014-08-28T09:39:12Z</time>
      </trkpt>
      <trkpt lat="48.99491" lon="7.77976">
        <ele>199.13</ele>
        <time>2014-08-28T09:39:14Z</time>
      </trkpt>
      <trkpt lat="48.99478" lon="7.77964">
        <ele>199.13</ele>
        <time>2014-08-28T09:39:16Z</time>
      </trkpt>
      <trkpt lat="48.99465" lon="7.77955">
        <ele>199.13</ele>
        <time>2014-08-28T09:39:18Z</time>
      </trkpt>
      <trkpt lat="48.99451" lon="7.77947">
        <ele>199.13</ele>
        <time>2014-08-28T09:39:20Z</time>
      </trkpt>
      <trkpt lat="48.99437" lon="7.7794">
        <ele>198.65</ele>
        <time>2014-08-28T09:39:22Z</time>
      </trkpt>
      <trkpt lat="48.99422" lon="7.77933">
        <ele>198.65</ele>
        <time>2014-08-28T09:39:24Z</time>
      </trkpt>
      <trkpt lat="48.99407" lon="7.77925">
        <ele>198.17</ele>
        <time>2014-08-28T09:39:26Z</time>
      </trkpt>
      <trkpt lat="48.99393" lon="7.77916">
        <ele>197.69</ele>
        <time>2014-08-28T09:39:28Z</time>
      </trkpt>
      <trkpt lat="48.99378" lon="7.77906">
        <ele>197.69</ele>
        <time>2014-08-28T09:39:30Z</time>
      </trkpt>
      <trkpt lat="48.99362" lon="7.77898">
        <ele>197.21</ele>
        <time>2014-08-28T09:39:32Z</time>
      </trkpt>
      <trkpt lat="48.99347" lon="7.7789">
        <ele>197.21</ele>
        <time>2014-08-28T09:39:34Z</time>
      </trkpt>
      <trkpt lat="48.99333" lon="7.77883">
        <ele>197.21</ele>
        <time>2014-08-28T09:39:36Z</time>
      </trkpt>
      <trkpt lat="48.99319" lon="7.77879">
        <ele>196.73</ele>
        <time>2014-08-28T09:39:38Z</time>
      </trkpt>
      <trkpt lat="48.99303" lon="7.77879">
        <ele>196.73</ele>
        <time>2014-08-28T09:39:40Z</time>
      </trkpt>
      <trkpt lat="48.99288" lon="7.77881">
        <ele>196.25</ele>
        <time>2014-08-28T09:39:42Z</time>
      </trkpt>
      <trkpt lat="48.99272" lon="7.77886">
        <ele>196.25</ele>
        <time>2014-08-28T09:39:44Z</time>
      </trkpt>
      <trkpt lat="48.99257" lon="7.7789">
        <ele>196.25</ele>
        <time>2014-08-28T09:39:46Z</time>
      </trkpt>
      <trkpt lat="48.99241" lon="7.77894">
        <ele>196.73</ele>
        <time>2014-08-28T09:39:48Z</time>
      </trkpt>
      <trkpt lat="48.99225" lon="7.77895">
        <ele>196.73</ele>
        <time>2014-08-28T09:39:50Z</time>
      </trkpt>
      <trkpt lat="48.99208" lon="7.77893">
        <ele>196.73</ele>
        <time>2014-08-28T09:39:52Z</time>
      </trkpt>
      <trkpt lat="48.99193" lon="7.77887">
        <ele>196.73</ele>
        <time>2014-08-28T09:39:54Z</time>
      </trkpt>
      <trkpt lat="48.99179" lon="7.77882">
        <ele>196.73</ele>
        <time>2014-08-28T09:39:56Z</time>
      </trkpt>
      <trkpt lat="48.99166" lon="7.77876">
        <ele>196.73</ele>
        <time>2014-08-28T09:39:58Z</time>
      </trkpt>
      <trkpt lat="48.99155" lon="7.77871">
        <ele>196.73</ele>
        <time>2014-08-28T09:40:00Z</time>
      </trkpt>
      <trkpt lat="48.99145" lon="7.77865">
        <ele>197.21</ele>
        <time>2014-08-28T09:40:02Z</time>
      </trkpt>
      <trkpt lat="48.99135" lon="7.77856">
        <ele>197.21</ele>
        <time>2014-08-28T09:40:04Z</time>
      </trkpt>
      <trkpt lat="48.99128" lon="7.77845">
        <ele>197.69</ele>
        <time>2014-08-28T09:40:06Z</time>
      </trkpt>
      <trkpt lat="48.99121" lon="7.77834">
        <ele>197.69</ele>
        <time>2014-08-28T09:40:08Z</time>
      </trkpt>
      <trkpt lat="48.99114" lon="7.77822">
        <ele>198.17</ele>
        <time>2014-08-28T09:40:10Z</time>
      </trkpt>
      <trkpt lat="48.99109" lon="7.77809">
        <ele>198.65</ele>
        <time>2014-08-28T09:40:12Z</time>
      </trkpt>
      <trkpt lat="48.99104" lon="7.77796">
        <ele>199.13</ele>
        <time>2014-08-28T09:40:14Z</time>
      </trkpt>
      <trkpt lat="48.99099" lon="7.77783">
        <ele>199.61</ele>
        <time>2014-08-28T09:40:16Z</time>
      </trkpt>
      <trkpt lat="48.99095" lon="7.77771">
        <ele>200.09</ele>
        <time>2014-08-28T09:40:18Z</time>
      </trkpt>
      <trkpt lat="48.99089" lon="7.77752">
        <ele>201.05</ele>
        <time>2014-08-28T09:40:21Z</time>
      </trkpt>
      <trkpt lat="48.99087" lon="7.77739">
        <ele>201.53</ele>
        <time>2014-08-28T09:40:23Z</time>
      </trkpt>
      <trkpt lat="48.99085" lon="7.77724">
        <ele>202.01</ele>
        <time>2014-08-28T09:40:25Z</time>
      </trkpt>
      <trkpt lat="48.99084" lon="7.77704">
        <ele>202.49</ele>
        <time>2014-08-28T09:40:28Z</time>
      </trkpt>
      <trkpt lat="48.99085" lon="7.77686">
        <ele>203.46</ele>
        <time>2014-08-28T09:40:31Z</time>
      </trkpt>
      <trkpt lat="48.99085" lon="7.77668">
        <ele>204.42</ele>
        <time>2014-08-28T09:40:34Z</time>
      </trkpt>
      <trkpt lat="48.99086" lon="7.77647">
        <ele>205.38</ele>
        <time>2014-08-28T09:40:37Z</time>
      </trkpt>
      <trkpt lat="48.99087" lon="7.77627">
        <ele>206.34</ele>
        <time>2014-08-28T09:40:40Z</time>
      </trkpt>
      <trkpt lat="48.99086" lon="7.77607">
        <ele>208.26</ele>
        <time>2014-08-28T09:40:43Z</time>
      </trkpt>
      <trkpt lat="48.99085" lon="7.77588">
        <ele>210.19</ele>
        <time>2014-08-28T09:40:46Z</time>
      </trkpt>
      <trkpt lat="48.99083" lon="7.77568">
        <ele>211.63</ele>
        <time>2014-08-28T09:40:49Z</time>
      </trkpt>
      <trkpt lat="48.9908" lon="7.77548">
        <ele>213.55</ele>
        <time>2014-08-28T09:40:52Z</time>
      </trkpt>
      <trkpt lat="48.99076" lon="7.77531">
        <ele>215.47</ele>
        <time>2014-08-28T09:40:55Z</time>
      </trkpt>
      <trkpt lat="48.99072" lon="7.77514">
        <ele>217.4</ele>
        <time>2014-08-28T09:40:58Z</time>
      </trkpt>
      <trkpt lat="48.99069" lon="7.77497">
        <ele>218.84</ele>
        <time>2014-08-28T09:41:01Z</time>
      </trkpt>
      <trkpt lat="48.99066" lon="7.77478">
        <ele>220.28</ele>
        <time>2014-08-28T09:41:04Z</time>
      </trkpt>
      <trkpt lat="48.99064" lon="7.77457">
        <ele>222.2</ele>
        <time>2014-08-28T09:41:07Z</time>
      </trkpt>
      <trkpt lat="48.99061" lon="7.77438">
        <ele>224.12</ele>
        <time>2014-08-28T09:41:10Z</time>
      </trkpt>
      <trkpt lat="48.99057" lon="7.77421">
        <ele>226.05</ele>
        <time>2014-08-28T09:41:13Z</time>
      </trkpt>
      <trkpt lat="48.99052" lon="7.77404">
        <ele>227.97</ele>
        <time>2014-08-28T09:41:16Z</time>
      </trkpt>
      <trkpt lat="48.99048" lon="7.77388">
        <ele>230.37</ele>
        <time>2014-08-28T09:41:19Z</time>
      </trkpt>
      <trkpt lat="48.99042" lon="7.77372">
        <ele>232.78</ele>
        <time>2014-08-28T09:41:22Z</time>
      </trkpt>
      <trkpt lat="48.99035" lon="7.77356">
        <ele>234.7</ele>
        <time>2014-08-28T09:41:25Z</time>
      </trkpt>
      <trkpt lat="48.99028" lon="7.77339">
        <ele>237.1</ele>
        <time>2014-08-28T09:41:28Z</time>
      </trkpt>
      <trkpt lat="48.99021" lon="7.77323">
        <ele>239.02</ele>
        <time>2014-08-28T09:41:31Z</time>
      </trkpt>
      <trkpt lat="48.99013" lon="7.77308">
        <ele>240.47</ele>
        <time>2014-08-28T09:41:34Z</time>
      </trkpt>
      <trkpt lat="48.99005" lon="7.77295">
        <ele>241.43</ele>
        <time>2014-08-28T09:41:37Z</time>
      </trkpt>
      <trkpt lat="48.98996" lon="7.77283">
        <ele>242.87</ele>
        <time>2014-08-28T09:41:40Z</time>
      </trkpt>
      <trkpt lat="48.98989" lon="7.77268">
        <ele>243.83</ele>
        <time>2014-08-28T09:41:43Z</time>
      </trkpt>
      <trkpt lat="48.98982" lon="7.77251">
        <ele>244.79</ele>
        <time>2014-08-28T09:41:46Z</time>
      </trkpt>
      <trkpt lat="48.98978" lon="7.77234">
        <ele>245.75</ele>
        <time>2014-08-28T09:41:49Z</time>
      </trkpt>
      <trkpt lat="48.98972" lon="7.77218">
        <ele>246.72</ele>
        <time>2014-08-28T09:41:52Z</time>
      </trkpt>
      <trkpt lat="48.98965" lon="7.77203">
        <ele>247.2</ele>
        <time>2014-08-28T09:41:55Z</time>
      </trkpt>
      <trkpt lat="48.98955" lon="7.77189">
        <ele>247.68</ele>
        <time>2014-08-28T09:41:58Z</time>
      </trkpt>
      <trkpt lat="48.98946" lon="7.77173">
        <ele>248.16</ele>
        <time>2014-08-28T09:42:01Z</time>
      </trkpt>
      <trkpt lat="48.98938" lon="7.77158">
        <ele>248.64</ele>
        <time>2014-08-28T09:42:04Z</time>
      </trkpt>
      <trkpt lat="48.98931" lon="7.77141">
        <ele>249.6</ele>
        <time>2014-08-28T09:42:07Z</time>
      </trkpt>
      <trkpt lat="48.98927" lon="7.77122">
        <ele>250.56</ele>
        <time>2014-08-28T09:42:10Z</time>
      </trkpt>
      <trkpt lat="48.98924" lon="7.77103">
        <ele>251.52</ele>
        <time>2014-08-28T09:42:13Z</time>
      </trkpt>
      <trkpt lat="48.98925" lon="7.77084">
        <ele>252.48</ele>
        <time>2014-08-28T09:42:16Z</time>
      </trkpt>
      <trkpt lat="48.98926" lon="7.77067">
        <ele>253.93</ele>
        <time>2014-08-28T09:42:19Z</time>
      </trkpt>
      <trkpt lat="48.98927" lon="7.77049">
        <ele>255.37</ele>
        <time>2014-08-28T09:42:22Z</time>
      </trkpt>
      <trkpt lat="48.98929" lon="7.77029">
        <ele>256.33</ele>
        <time>2014-08-28T09:42:25Z</time>
      </trkpt>
      <trkpt lat="48.98931" lon="7.77013">
        <ele>256.81</ele>
        <time>2014-08-28T09:42:27Z</time>
      </trkpt>
      <trkpt lat="48.98934" lon="7.76994">
        <ele>256.81</ele>
        <time>2014-08-28T09:42:29Z</time>
      </trkpt>
      <trkpt lat="48.98934" lon="7.76975">
        <ele>257.29</ele>
        <time>2014-08-28T09:42:31Z</time>
      </trkpt>
      <trkpt lat="48.98934" lon="7.76956">
        <ele>257.29</ele>
        <time>2014-08-28T09:42:33Z</time>
      </trkpt>
      <trkpt lat="48.98932" lon="7.76937">
        <ele>257.77</ele>
        <time>2014-08-28T09:42:35Z</time>
      </trkpt>
      <trkpt lat="48.9893" lon="7.7692">
        <ele>257.77</ele>
        <time>2014-08-28T09:42:37Z</time>
      </trkpt>
      <trkpt lat="48.98928" lon="7.76901">
        <ele>257.77</ele>
        <time>2014-08-28T09:42:39Z</time>
      </trkpt>
      <trkpt lat="48.98926" lon="7.76883">
        <ele>257.77</ele>
        <time>2014-08-28T09:42:41Z</time>
      </trkpt>
      <trkpt lat="48.98923" lon="7.76867">
        <ele>257.29</ele>
        <time>2014-08-28T09:42:43Z</time>
      </trkpt>
      <trkpt lat="48.9892" lon="7.7685">
        <ele>256.81</ele>
        <time>2014-08-28T09:42:45Z</time>
      </trkpt>
      <trkpt lat="48.98917" lon="7.76835">
        <ele>255.85</ele>
        <time>2014-08-28T09:42:47Z</time>
      </trkpt>
      <trkpt lat="48.98913" lon="7.76821">
        <ele>255.37</ele>
        <time>2014-08-28T09:42:49Z</time>
      </trkpt>
      <trkpt lat="48.98911" lon="7.76804">
        <ele>253.93</ele>
        <time>2014-08-28T09:42:52Z</time>
      </trkpt>
      <trkpt lat="48.98909" lon="7.76789">
        <ele>251.52</ele>
        <time>2014-08-28T09:42:55Z</time>
      </trkpt>
      <trkpt lat="48.98907" lon="7.76776">
        <ele>251.04</ele>
        <time>2014-08-28T09:42:58Z</time>
      </trkpt>
      <trkpt lat="48.98903" lon="7.76759">
        <ele>249.6</ele>
        <time>2014-08-28T09:43:02Z</time>
      </trkpt>
      <trkpt lat="48.989" lon="7.76743">
        <ele>247.68</ele>
        <time>2014-08-28T09:43:06Z</time>
      </trkpt>
      <trkpt lat="48.98897" lon="7.76727">
        <ele>246.23</ele>
        <time>2014-08-28T09:43:10Z</time>
      </trkpt>
      <trkpt lat="48.98894" lon="7.76713">
        <ele>245.75</ele>
        <time>2014-08-28T09:43:14Z</time>
      </trkpt>
      <trkpt lat="48.98891" lon="7.76699">
        <ele>244.79</ele>
        <time>2014-08-28T09:43:18Z</time>
      </trkpt>
      <trkpt lat="48.98887" lon="7.76684">
        <ele>243.83</ele>
        <time>2014-08-28T09:43:22Z</time>
      </trkpt>
      <trkpt lat="48.98883" lon="7.76667">
        <ele>243.83</ele>
        <time>2014-08-28T09:43:26Z</time>
      </trkpt>
      <trkpt lat="48.98879" lon="7.76651">
        <ele>243.83</ele>
        <time>2014-08-28T09:43:30Z</time>
      </trkpt>
      <trkpt lat="48.98874" lon="7.76636">
        <ele>243.83</ele>
        <time>2014-08-28T09:43:34Z</time>
      </trkpt>
      <trkpt lat="48.9887" lon="7.76622">
        <ele>244.31</ele>
        <time>2014-08-28T09:43:38Z</time>
      </trkpt>
      <trkpt lat="48.98866" lon="7.76607">
        <ele>244.79</ele>
        <time>2014-08-28T09:43:42Z</time>
      </trkpt>
      <trkpt lat="48.98861" lon="7.76592">
        <ele>244.79</ele>
        <time>2014-08-28T09:43:46Z</time>
      </trkpt>
      <trkpt lat="48.98856" lon="7.76576">
        <ele>244.79</ele>
        <time>2014-08-28T09:43:50Z</time>
      </trkpt>
      <trkpt lat="48.98852" lon="7.76561">
        <ele>245.27</ele>
        <time>2014-08-28T09:43:54Z</time>
      </trkpt>
      <trkpt lat="48.98847" lon="7.76545">
        <ele>245.75</ele>
        <time>2014-08-28T09:43:58Z</time>
      </trkpt>
      <trkpt lat="48.98843" lon="7.76529">
        <ele>246.72</ele>
        <time>2014-08-28T09:44:02Z</time>
      </trkpt>
      <trkpt lat="48.98838" lon="7.76514">
        <ele>247.2</ele>
        <time>2014-08-28T09:44:06Z</time>
      </trkpt>
      <trkpt lat="48.98834" lon="7.76499">
        <ele>247.68</ele>
        <time>2014-08-28T09:44:10Z</time>
      </trkpt>
      <trkpt lat="48.9883" lon="7.76483">
        <ele>248.16</ele>
        <time>2014-08-28T09:44:14Z</time>
      </trkpt>
      <trkpt lat="48.98826" lon="7.76467">
        <ele>249.12</ele>
        <time>2014-08-28T09:44:18Z</time>
      </trkpt>
      <trkpt lat="48.98822" lon="7.76451">
        <ele>249.12</ele>
        <time>2014-08-28T09:44:22Z</time>
      </trkpt>
      <trkpt lat="48.98818" lon="7.76434">
        <ele>249.6</ele>
        <time>2014-08-28T09:44:26Z</time>
      </trkpt>
      <trkpt lat="48.98815" lon="7.76416">
        <ele>250.08</ele>
        <time>2014-08-28T09:44:30Z</time>
      </trkpt>
      <trkpt lat="48.98812" lon="7.76399">
        <ele>251.04</ele>
        <time>2014-08-28T09:44:34Z</time>
      </trkpt>
      <trkpt lat="48.9881" lon="7.76381">
        <ele>251.04</ele>
        <time>2014-08-28T09:44:38Z</time>
      </trkpt>
      <trkpt lat="48.98808" lon="7.76363">
        <ele>250.56</ele>
        <time>2014-08-28T09:44:42Z</time>
      </trkpt>
      <trkpt lat="48.98806" lon="7.76345">
        <ele>250.56</ele>
        <time>2014-08-28T09:44:46Z</time>
      </trkpt>
      <trkpt lat="48.98803" lon="7.76329">
        <ele>251.04</ele>
        <time>2014-08-28T09:44:50Z</time>
      </trkpt>
      <trkpt lat="48.988" lon="7.76314">
        <ele>252</ele>
        <time>2014-08-28T09:44:54Z</time>
      </trkpt>
      <trkpt lat="48.98796" lon="7.76298">
        <ele>252.48</ele>
        <time>2014-08-28T09:44:58Z</time>
      </trkpt>
      <trkpt lat="48.98792" lon="7.76282">
        <ele>253.93</ele>
        <time>2014-08-28T09:45:02Z</time>
      </trkpt>
      <trkpt lat="48.98788" lon="7.76266">
        <ele>254.89</ele>
        <time>2014-08-28T09:45:06Z</time>
      </trkpt>
      <trkpt lat="48.98783" lon="7.76249">
        <ele>255.37</ele>
        <time>2014-08-28T09:45:10Z</time>
      </trkpt>
      <trkpt lat="48.98778" lon="7.76232">
        <ele>256.81</ele>
        <time>2014-08-28T09:45:14Z</time>
      </trkpt>
      <trkpt lat="48.98774" lon="7.76213">
        <ele>257.29</ele>
        <time>2014-08-28T09:45:18Z</time>
      </trkpt>
      <trkpt lat="48.98772" lon="7.76196">
        <ele>256.81</ele>
        <time>2014-08-28T09:45:22Z</time>
      </trkpt>
      <trkpt lat="48.9877" lon="7.76183">
        <ele>257.29</ele>
        <time>2014-08-28T09:45:25Z</time>
      </trkpt>
      <trkpt lat="48.98766" lon="7.7617">
        <ele>257.77</ele>
        <time>2014-08-28T09:45:28Z</time>
      </trkpt>
      <trkpt lat="48.98763" lon="7.76157">
        <ele>258.25</ele>
        <time>2014-08-28T09:45:31Z</time>
      </trkpt>
      <trkpt lat="48.98761" lon="7.76143">
        <ele>258.73</ele>
        <time>2014-08-28T09:45:34Z</time>
      </trkpt>
      <trkpt lat="48.98758" lon="7.76129">
        <ele>258.73</ele>
        <time>2014-08-28T09:45:37Z</time>
      </trkpt>
      <trkpt lat="48.98755" lon="7.76116">
        <ele>259.21</ele>
        <time>2014-08-28T09:45:40Z</time>
      </trkpt>
      <trkpt lat="48.98752" lon="7.76102">
        <ele>259.21</ele>
        <time>2014-08-28T09:45:43Z</time>
      </trkpt>
      <trkpt lat="48.98747" lon="7.76088">
        <ele>259.69</ele>
        <time>2014-08-28T09:45:47Z</time>
      </trkpt>
      <trkpt lat="48.98741" lon="7.76072">
        <ele>260.17</ele>
        <time>2014-08-28T09:45:51Z</time>
      </trkpt>
      <trkpt lat="48.98735" lon="7.7606">
        <ele>260.17</ele>
        <time>2014-08-28T09:45:54Z</time>
      </trkpt>
      <trkpt lat="48.98727" lon="7.76046">
        <ele>260.65</ele>
        <time>2014-08-28T09:45:57Z</time>
      </trkpt>
      <trkpt lat="48.98718" lon="7.76032">
        <ele>260.17</ele>
        <time>2014-08-28T09:46:00Z</time>
      </trkpt>
      <trkpt lat="48.98711" lon="7.7602">
        <ele>259.69</ele>
        <time>2014-08-28T09:46:02Z</time>
      </trkpt>
      <trkpt lat="48.98704" lon="7.76007">
        <ele>259.21</ele>
        <time>2014-08-28T09:46:04Z</time>
      </trkpt>
      <trkpt lat="48.98695" lon="7.75995">
        <ele>258.73</ele>
        <time>2014-08-28T09:46:06Z</time>
      </trkpt>
      <trkpt lat="48.98686" lon="7.75982">
        <ele>258.25</ele>
        <time>2014-08-28T09:46:08Z</time>
      </trkpt>
      <trkpt lat="48.98678" lon="7.75967">
        <ele>257.77</ele>
        <time>2014-08-28T09:46:10Z</time>
      </trkpt>
      <trkpt lat="48.9867" lon="7.75952">
        <ele>257.77</ele>
        <time>2014-08-28T09:46:12Z</time>
      </trkpt>
      <trkpt lat="48.98662" lon="7.75936">
        <ele>257.29</ele>
        <time>2014-08-28T09:46:14Z</time>
      </trkpt>
      <trkpt lat="48.98654" lon="7.75921">
        <ele>256.81</ele>
        <time>2014-08-28T09:46:16Z</time>
      </trkpt>
      <trkpt lat="48.98643" lon="7.75912">
        <ele>256.33</ele>
        <time>2014-08-28T09:46:18Z</time>
      </trkpt>
      <trkpt lat="48.98631" lon="7.75912">
        <ele>255.85</ele>
        <time>2014-08-28T09:46:20Z</time>
      </trkpt>
      <trkpt lat="48.9862" lon="7.75918">
        <ele>255.37</ele>
        <time>2014-08-28T09:46:22Z</time>
      </trkpt>
      <trkpt lat="48.9861" lon="7.75927">
        <ele>254.89</ele>
        <time>2014-08-28T09:46:24Z</time>
      </trkpt>
      <trkpt lat="48.98598" lon="7.7593">
        <ele>254.41</ele>
        <time>2014-08-28T09:46:27Z</time>
      </trkpt>
      <trkpt lat="48.9859" lon="7.75918">
        <ele>254.41</ele>
        <time>2014-08-28T09:46:31Z</time>
      </trkpt>
      <trkpt lat="48.98591" lon="7.75904">
        <ele>253.93</ele>
        <time>2014-08-28T09:46:36Z</time>
      </trkpt>
      <trkpt lat="48.98594" lon="7.75893">
        <ele>254.41</ele>
        <time>2014-08-28T09:47:15Z</time>
      </trkpt>
      <trkpt lat="48.986" lon="7.75885">
        <ele>255.85</ele>
        <time>2014-08-28T09:47:39Z</time>
      </trkpt>
      <trkpt lat="48.9859" lon="7.75892">
        <ele>264.98</ele>
        <time>2014-08-28T09:49:17Z</time>
      </trkpt>
      <trkpt lat="48.98595" lon="7.759">
        <ele>265.46</ele>
        <time>2014-08-28T09:49:35Z</time>
      </trkpt>
      <trkpt lat="48.98593" lon="7.75905">
        <ele>264.5</ele>
        <time>2014-08-28T09:50:02Z</time>
      </trkpt>
    </trkseg>
  </trk>
</gpx>